<?xml version="1.0" encoding="UTF-8" standalone="no" ?>
<gpx xmlns="http://www.topografix.com/GPX/1/1" xmlns:xsi="http://www.w3.org/2001/XMLSchema-instance" xsi:schemaLocation="http://www.topografix.com/GPX/1/1 http://www.topografix.com/GPX/1/1/gpx.xsd" version="1.1" creator="VisuGPX - https://www.visugpx.com">
  <metadata>
    <name>Trail&amp;CO : Ascension du Ventoux par la face nord</name>
    <desc><![CDATA[Suite de la websérie : Les sentiers de France par Trail&CO
http://trailandco.blogspot.fr/p/les-sentiers-de-france-by-trail.html]]></desc>
  </metadata>
  <trk>
    <name><![CDATA[Move]]></name>
    <trkseg>
      <trkpt lat="44.19893" lon="5.30086">
        <ele>447</ele>
        <time>2015-05-18T08:54:14.070Z</time>
      </trkpt>
      <trkpt lat="44.19884" lon="5.3009">
        <ele>447</ele>
        <time>2015-05-18T08:54:22.050Z</time>
      </trkpt>
      <trkpt lat="44.19873" lon="5.30094">
        <ele>447</ele>
        <time>2015-05-18T08:54:30.050Z</time>
      </trkpt>
      <trkpt lat="44.19862" lon="5.30093">
        <ele>448.33399808</ele>
        <time>2015-05-18T08:54:37.050Z</time>
      </trkpt>
      <trkpt lat="44.19852" lon="5.30092">
        <ele>449.36699904</ele>
        <time>2015-05-18T08:54:44.050Z</time>
      </trkpt>
      <trkpt lat="44.19841" lon="5.3009">
        <ele>450.26699904</ele>
        <time>2015-05-18T08:54:53.050Z</time>
      </trkpt>
      <trkpt lat="44.19831" lon="5.30093">
        <ele>451.53399808</ele>
        <time>2015-05-18T08:55:03.050Z</time>
      </trkpt>
      <trkpt lat="44.1982" lon="5.30096">
        <ele>453</ele>
        <time>2015-05-18T08:55:12.050Z</time>
      </trkpt>
      <trkpt lat="44.1981" lon="5.30096">
        <ele>453</ele>
        <time>2015-05-18T08:55:20.050Z</time>
      </trkpt>
      <trkpt lat="44.198" lon="5.30095">
        <ele>453.86699904</ele>
        <time>2015-05-18T08:55:29.050Z</time>
      </trkpt>
      <trkpt lat="44.19788" lon="5.30096">
        <ele>454.66699904</ele>
        <time>2015-05-18T08:55:37.050Z</time>
      </trkpt>
      <trkpt lat="44.19778" lon="5.30095">
        <ele>455.36699904</ele>
        <time>2015-05-18T08:55:44.050Z</time>
      </trkpt>
      <trkpt lat="44.19767" lon="5.30092">
        <ele>456.53399808</ele>
        <time>2015-05-18T08:55:53.050Z</time>
      </trkpt>
      <trkpt lat="44.19757" lon="5.30094">
        <ele>458.16599936</ele>
        <time>2015-05-18T08:56:02.040Z</time>
      </trkpt>
      <trkpt lat="44.19747" lon="5.30097">
        <ele>458.86599936</ele>
        <time>2015-05-18T08:56:09.040Z</time>
      </trkpt>
      <trkpt lat="44.19737" lon="5.30099">
        <ele>459</ele>
        <time>2015-05-18T08:56:16.050Z</time>
      </trkpt>
      <trkpt lat="44.19727" lon="5.301">
        <ele>459.26699904</ele>
        <time>2015-05-18T08:56:23.050Z</time>
      </trkpt>
      <trkpt lat="44.19716" lon="5.301">
        <ele>459.96699904</ele>
        <time>2015-05-18T08:56:30.050Z</time>
      </trkpt>
      <trkpt lat="44.19707" lon="5.30107">
        <ele>461.73399808</ele>
        <time>2015-05-18T08:56:39.050Z</time>
      </trkpt>
      <trkpt lat="44.19706" lon="5.30122">
        <ele>462.76699904</ele>
        <time>2015-05-18T08:56:48.050Z</time>
      </trkpt>
      <trkpt lat="44.19704" lon="5.30137">
        <ele>463.56699904</ele>
        <time>2015-05-18T08:56:56.050Z</time>
      </trkpt>
      <trkpt lat="44.19697" lon="5.3015">
        <ele>464.26699904</ele>
        <time>2015-05-18T08:57:03.050Z</time>
      </trkpt>
      <trkpt lat="44.19687" lon="5.30157">
        <ele>465</ele>
        <time>2015-05-18T08:57:11.050Z</time>
      </trkpt>
      <trkpt lat="44.19677" lon="5.30162">
        <ele>465</ele>
        <time>2015-05-18T08:57:19.050Z</time>
      </trkpt>
      <trkpt lat="44.1967" lon="5.30171">
        <ele>466.13399808</ele>
        <time>2015-05-18T08:57:26.050Z</time>
      </trkpt>
      <trkpt lat="44.19668" lon="5.30185">
        <ele>467.46699904</ele>
        <time>2015-05-18T08:57:35.050Z</time>
      </trkpt>
      <trkpt lat="44.19677" lon="5.30194">
        <ele>468.36699904</ele>
        <time>2015-05-18T08:57:44.050Z</time>
      </trkpt>
      <trkpt lat="44.19682" lon="5.30207">
        <ele>469.06699904</ele>
        <time>2015-05-18T08:57:51.050Z</time>
      </trkpt>
      <trkpt lat="44.19683" lon="5.30219">
        <ele>469.66699904</ele>
        <time>2015-05-18T08:57:57.050Z</time>
      </trkpt>
      <trkpt lat="44.19685" lon="5.3023">
        <ele>470.52999936</ele>
        <time>2015-05-18T08:58:03.030Z</time>
      </trkpt>
      <trkpt lat="44.19686" lon="5.30242">
        <ele>471.76999936</ele>
        <time>2015-05-18T08:58:09.230Z</time>
      </trkpt>
      <trkpt lat="44.19683" lon="5.30253">
        <ele>472</ele>
        <time>2015-05-18T08:58:15.250Z</time>
      </trkpt>
      <trkpt lat="44.1968" lon="5.30265">
        <ele>472</ele>
        <time>2015-05-18T08:58:21.050Z</time>
      </trkpt>
      <trkpt lat="44.19678" lon="5.30277">
        <ele>472</ele>
        <time>2015-05-18T08:58:28.050Z</time>
      </trkpt>
      <trkpt lat="44.19675" lon="5.30289">
        <ele>472.93399808</ele>
        <time>2015-05-18T08:58:35.050Z</time>
      </trkpt>
      <trkpt lat="44.19671" lon="5.30304">
        <ele>474.26699904</ele>
        <time>2015-05-18T08:58:43.050Z</time>
      </trkpt>
      <trkpt lat="44.19668" lon="5.30317">
        <ele>475.06699904</ele>
        <time>2015-05-18T08:58:51.050Z</time>
      </trkpt>
      <trkpt lat="44.19667" lon="5.30332">
        <ele>475.86699904</ele>
        <time>2015-05-18T08:58:59.050Z</time>
      </trkpt>
      <trkpt lat="44.19668" lon="5.30347">
        <ele>477.53399808</ele>
        <time>2015-05-18T08:59:08.050Z</time>
      </trkpt>
      <trkpt lat="44.19672" lon="5.3036">
        <ele>478.66699904</ele>
        <time>2015-05-18T08:59:17.050Z</time>
      </trkpt>
      <trkpt lat="44.19676" lon="5.30375">
        <ele>479.36699904</ele>
        <time>2015-05-18T08:59:24.050Z</time>
      </trkpt>
      <trkpt lat="44.19679" lon="5.30388">
        <ele>479.96699904</ele>
        <time>2015-05-18T08:59:30.050Z</time>
      </trkpt>
      <trkpt lat="44.19679" lon="5.30402">
        <ele>480.66699904</ele>
        <time>2015-05-18T08:59:37.050Z</time>
      </trkpt>
      <trkpt lat="44.19679" lon="5.30416">
        <ele>481.73399808</ele>
        <time>2015-05-18T08:59:44.050Z</time>
      </trkpt>
      <trkpt lat="44.19681" lon="5.3043">
        <ele>483.16699904</ele>
        <time>2015-05-18T08:59:52.050Z</time>
      </trkpt>
      <trkpt lat="44.19681" lon="5.30445">
        <ele>483.86699904</ele>
        <time>2015-05-18T08:59:59.050Z</time>
      </trkpt>
      <trkpt lat="44.19683" lon="5.30459">
        <ele>485.32999936</ele>
        <time>2015-05-18T09:00:07.030Z</time>
      </trkpt>
      <trkpt lat="44.19686" lon="5.30473">
        <ele>486.73399808</ele>
        <time>2015-05-18T09:00:14.050Z</time>
      </trkpt>
      <trkpt lat="44.19689" lon="5.30488">
        <ele>488.26699904</ele>
        <time>2015-05-18T09:00:23.050Z</time>
      </trkpt>
      <trkpt lat="44.1969" lon="5.30502">
        <ele>488.96699904</ele>
        <time>2015-05-18T09:00:30.050Z</time>
      </trkpt>
      <trkpt lat="44.19691" lon="5.30517">
        <ele>489</ele>
        <time>2015-05-18T09:00:37.030Z</time>
      </trkpt>
      <trkpt lat="44.19694" lon="5.30532">
        <ele>489.36699904</ele>
        <time>2015-05-18T09:00:44.050Z</time>
      </trkpt>
      <trkpt lat="44.19694" lon="5.30548">
        <ele>490.53399808</ele>
        <time>2015-05-18T09:00:53.050Z</time>
      </trkpt>
      <trkpt lat="44.19697" lon="5.30562">
        <ele>491.93399808</ele>
        <time>2015-05-18T09:01:00.050Z</time>
      </trkpt>
      <trkpt lat="44.19697" lon="5.30577">
        <ele>492.66699904</ele>
        <time>2015-05-18T09:01:07.050Z</time>
      </trkpt>
      <trkpt lat="44.19698" lon="5.30592">
        <ele>493.93399808</ele>
        <time>2015-05-18T09:01:15.050Z</time>
      </trkpt>
      <trkpt lat="44.19701" lon="5.30606">
        <ele>495.26699904</ele>
        <time>2015-05-18T09:01:23.050Z</time>
      </trkpt>
      <trkpt lat="44.19704" lon="5.3062">
        <ele>496.16699904</ele>
        <time>2015-05-18T09:01:32.050Z</time>
      </trkpt>
      <trkpt lat="44.19709" lon="5.30634">
        <ele>496.96699904</ele>
        <time>2015-05-18T09:01:40.050Z</time>
      </trkpt>
      <trkpt lat="44.19716" lon="5.30645">
        <ele>497.56699904</ele>
        <time>2015-05-18T09:01:46.050Z</time>
      </trkpt>
      <trkpt lat="44.19721" lon="5.30657">
        <ele>498.53399808</ele>
        <time>2015-05-18T09:01:53.050Z</time>
      </trkpt>
      <trkpt lat="44.19724" lon="5.30671">
        <ele>500.13399808</ele>
        <time>2015-05-18T09:02:01.050Z</time>
      </trkpt>
      <trkpt lat="44.19725" lon="5.30684">
        <ele>502</ele>
        <time>2015-05-18T09:02:11.050Z</time>
      </trkpt>
      <trkpt lat="44.19728" lon="5.30697">
        <ele>502</ele>
        <time>2015-05-18T09:02:19.050Z</time>
      </trkpt>
      <trkpt lat="44.19722" lon="5.30709">
        <ele>504.13399808</ele>
        <time>2015-05-18T09:02:36.050Z</time>
      </trkpt>
      <trkpt lat="44.19714" lon="5.30717">
        <ele>505</ele>
        <time>2015-05-18T09:02:47.050Z</time>
      </trkpt>
      <trkpt lat="44.19706" lon="5.30727">
        <ele>508.85999872</ele>
        <time>2015-05-18T09:03:00.030Z</time>
      </trkpt>
      <trkpt lat="44.19698" lon="5.30737">
        <ele>510.33399808</ele>
        <time>2015-05-18T09:03:07.050Z</time>
      </trkpt>
      <trkpt lat="44.19691" lon="5.30747">
        <ele>511.66699904</ele>
        <time>2015-05-18T09:03:17.050Z</time>
      </trkpt>
      <trkpt lat="44.19683" lon="5.30755">
        <ele>513.13399808</ele>
        <time>2015-05-18T09:03:26.050Z</time>
      </trkpt>
      <trkpt lat="44.19675" lon="5.30766">
        <ele>514.368</ele>
        <time>2015-05-18T09:03:34.060Z</time>
      </trkpt>
      <trkpt lat="44.19666" lon="5.30776">
        <ele>515.16699904</ele>
        <time>2015-05-18T09:03:42.050Z</time>
      </trkpt>
      <trkpt lat="44.19658" lon="5.30785">
        <ele>515.86699904</ele>
        <time>2015-05-18T09:03:49.050Z</time>
      </trkpt>
      <trkpt lat="44.19648" lon="5.30791">
        <ele>516.76499968</ele>
        <time>2015-05-18T09:03:58.030Z</time>
      </trkpt>
      <trkpt lat="44.19638" lon="5.30796">
        <ele>517</ele>
        <time>2015-05-18T09:04:06.050Z</time>
      </trkpt>
      <trkpt lat="44.19629" lon="5.30804">
        <ele>517</ele>
        <time>2015-05-18T09:04:14.050Z</time>
      </trkpt>
      <trkpt lat="44.1962" lon="5.30812">
        <ele>517.26699904</ele>
        <time>2015-05-18T09:04:23.050Z</time>
      </trkpt>
      <trkpt lat="44.19611" lon="5.30821">
        <ele>518</ele>
        <time>2015-05-18T09:04:31.050Z</time>
      </trkpt>
      <trkpt lat="44.19604" lon="5.30832">
        <ele>518</ele>
        <time>2015-05-18T09:04:39.050Z</time>
      </trkpt>
      <trkpt lat="44.19597" lon="5.30843">
        <ele>518</ele>
        <time>2015-05-18T09:04:47.050Z</time>
      </trkpt>
      <trkpt lat="44.19587" lon="5.30843">
        <ele>518</ele>
        <time>2015-05-18T09:04:59.050Z</time>
      </trkpt>
      <trkpt lat="44.19582" lon="5.3083">
        <ele>518.03300096</ele>
        <time>2015-05-18T09:05:40.050Z</time>
      </trkpt>
      <trkpt lat="44.19579" lon="5.30815">
        <ele>518</ele>
        <time>2015-05-18T09:05:47.020Z</time>
      </trkpt>
      <trkpt lat="44.19573" lon="5.30802">
        <ele>518.36699904</ele>
        <time>2015-05-18T09:05:54.050Z</time>
      </trkpt>
      <trkpt lat="44.19568" lon="5.30815">
        <ele>519</ele>
        <time>2015-05-18T09:06:15.250Z</time>
      </trkpt>
      <trkpt lat="44.19562" lon="5.30828">
        <ele>519.36699904</ele>
        <time>2015-05-18T09:06:24.050Z</time>
      </trkpt>
      <trkpt lat="44.19554" lon="5.30837">
        <ele>520.13399808</ele>
        <time>2015-05-18T09:06:31.050Z</time>
      </trkpt>
      <trkpt lat="44.19545" lon="5.30844">
        <ele>521.93399808</ele>
        <time>2015-05-18T09:06:40.050Z</time>
      </trkpt>
      <trkpt lat="44.19535" lon="5.30846">
        <ele>522.96699904</ele>
        <time>2015-05-18T09:06:50.050Z</time>
      </trkpt>
      <trkpt lat="44.19525" lon="5.30845">
        <ele>526.00199424</ele>
        <time>2015-05-18T09:07:02.050Z</time>
      </trkpt>
      <trkpt lat="44.19514" lon="5.30843">
        <ele>531</ele>
        <time>2015-05-18T09:07:14.050Z</time>
      </trkpt>
      <trkpt lat="44.19502" lon="5.3084">
        <ele>532.34999808</ele>
        <time>2015-05-18T09:07:27.130Z</time>
      </trkpt>
      <trkpt lat="44.19487" lon="5.30838">
        <ele>535.34999808</ele>
        <time>2015-05-18T09:07:42.130Z</time>
      </trkpt>
      <trkpt lat="44.19474" lon="5.30833">
        <ele>538.14999808</ele>
        <time>2015-05-18T09:07:56.130Z</time>
      </trkpt>
      <trkpt lat="44.19464" lon="5.30836">
        <ele>543.52499712</ele>
        <time>2015-05-18T09:08:12.130Z</time>
      </trkpt>
      <trkpt lat="44.19454" lon="5.30843">
        <ele>548.37499904</ele>
        <time>2015-05-18T09:08:34.130Z</time>
      </trkpt>
      <trkpt lat="44.19445" lon="5.30852">
        <ele>551.77499904</ele>
        <time>2015-05-18T09:08:58.130Z</time>
      </trkpt>
      <trkpt lat="44.19435" lon="5.30855">
        <ele>556.15499904</ele>
        <time>2015-05-18T09:09:11.930Z</time>
      </trkpt>
      <trkpt lat="44.1942" lon="5.30869">
        <ele>559.29999616</ele>
        <time>2015-05-18T09:09:31.130Z</time>
      </trkpt>
      <trkpt lat="44.19413" lon="5.30883">
        <ele>563</ele>
        <time>2015-05-18T09:09:47.130Z</time>
      </trkpt>
      <trkpt lat="44.19403" lon="5.30888">
        <ele>563.95399936</ele>
        <time>2015-05-18T09:09:55.150Z</time>
      </trkpt>
      <trkpt lat="44.19394" lon="5.30898">
        <ele>570.15399936</ele>
        <time>2015-05-18T09:10:11.150Z</time>
      </trkpt>
      <trkpt lat="44.19384" lon="5.30906">
        <ele>572.83099904</ele>
        <time>2015-05-18T09:10:23.150Z</time>
      </trkpt>
      <trkpt lat="44.19373" lon="5.30913">
        <ele>577.93099904</ele>
        <time>2015-05-18T09:10:40.150Z</time>
      </trkpt>
      <trkpt lat="44.19358" lon="5.30916">
        <ele>579.37499904</ele>
        <time>2015-05-18T09:10:54.130Z</time>
      </trkpt>
      <trkpt lat="44.19346" lon="5.30915">
        <ele>581.89999616</ele>
        <time>2015-05-18T09:11:05.130Z</time>
      </trkpt>
      <trkpt lat="44.19337" lon="5.30923">
        <ele>585.14999808</ele>
        <time>2015-05-18T09:11:21.130Z</time>
      </trkpt>
      <trkpt lat="44.19329" lon="5.30933">
        <ele>587.67699968</ele>
        <time>2015-05-18T09:11:37.150Z</time>
      </trkpt>
      <trkpt lat="44.19317" lon="5.30941">
        <ele>591.66199808</ele>
        <time>2015-05-18T09:11:53.150Z</time>
      </trkpt>
      <trkpt lat="44.19308" lon="5.3095">
        <ele>596.95399936</ele>
        <time>2015-05-18T09:12:05.150Z</time>
      </trkpt>
      <trkpt lat="44.19298" lon="5.30955">
        <ele>598.77499904</ele>
        <time>2015-05-18T09:12:18.130Z</time>
      </trkpt>
      <trkpt lat="44.19285" lon="5.30959">
        <ele>603.17499904</ele>
        <time>2015-05-18T09:12:42.130Z</time>
      </trkpt>
      <trkpt lat="44.19272" lon="5.30956">
        <ele>605.552</ele>
        <time>2015-05-18T09:12:58.140Z</time>
      </trkpt>
      <trkpt lat="44.19263" lon="5.30942">
        <ele>607.29999616</ele>
        <time>2015-05-18T09:13:11.130Z</time>
      </trkpt>
      <trkpt lat="44.19265" lon="5.30927">
        <ele>610.50399488</ele>
        <time>2015-05-18T09:13:19.140Z</time>
      </trkpt>
      <trkpt lat="44.19266" lon="5.30912">
        <ele>611.66799872</ele>
        <time>2015-05-18T09:13:27.060Z</time>
      </trkpt>
      <trkpt lat="44.1927" lon="5.30895">
        <ele>613.75399936</ele>
        <time>2015-05-18T09:13:39.150Z</time>
      </trkpt>
      <trkpt lat="44.19278" lon="5.3088">
        <ele>617.3849984</ele>
        <time>2015-05-18T09:13:55.150Z</time>
      </trkpt>
      <trkpt lat="44.1927" lon="5.30888">
        <ele>622.75399936</ele>
        <time>2015-05-18T09:14:34.150Z</time>
      </trkpt>
      <trkpt lat="44.1926" lon="5.30893">
        <ele>624.57699968</ele>
        <time>2015-05-18T09:14:46.150Z</time>
      </trkpt>
      <trkpt lat="44.19248" lon="5.30898">
        <ele>626.55399936</ele>
        <time>2015-05-18T09:14:58.150Z</time>
      </trkpt>
      <trkpt lat="44.19244" lon="5.30885">
        <ele>629.74999808</ele>
        <time>2015-05-18T09:15:14.130Z</time>
      </trkpt>
      <trkpt lat="44.19249" lon="5.3087">
        <ele>631.53099904</ele>
        <time>2015-05-18T09:15:22.150Z</time>
      </trkpt>
      <trkpt lat="44.19258" lon="5.30856">
        <ele>634.75399936</ele>
        <time>2015-05-18T09:15:34.150Z</time>
      </trkpt>
      <trkpt lat="44.19264" lon="5.30842">
        <ele>636.95399936</ele>
        <time>2015-05-18T09:15:45.150Z</time>
      </trkpt>
      <trkpt lat="44.19269" lon="5.30828">
        <ele>638.66799872</ele>
        <time>2015-05-18T09:15:57.060Z</time>
      </trkpt>
      <trkpt lat="44.19275" lon="5.30814">
        <ele>639.95399936</ele>
        <time>2015-05-18T09:16:05.150Z</time>
      </trkpt>
      <trkpt lat="44.19281" lon="5.30801">
        <ele>641.27699968</ele>
        <time>2015-05-18T09:16:13.150Z</time>
      </trkpt>
      <trkpt lat="44.19288" lon="5.30792">
        <ele>642.07699968</ele>
        <time>2015-05-18T09:16:21.150Z</time>
      </trkpt>
      <trkpt lat="44.19294" lon="5.30783">
        <ele>642.87699968</ele>
        <time>2015-05-18T09:16:29.150Z</time>
      </trkpt>
      <trkpt lat="44.19299" lon="5.30766">
        <ele>645.08499968</ele>
        <time>2015-05-18T09:16:41.230Z</time>
      </trkpt>
      <trkpt lat="44.19306" lon="5.30755">
        <ele>645.88499968</ele>
        <time>2015-05-18T09:16:49.230Z</time>
      </trkpt>
      <trkpt lat="44.19312" lon="5.3074">
        <ele>648.34999808</ele>
        <time>2015-05-18T09:17:02.130Z</time>
      </trkpt>
      <trkpt lat="44.19302" lon="5.30748">
        <ele>651.35399936</ele>
        <time>2015-05-18T09:17:22.150Z</time>
      </trkpt>
      <trkpt lat="44.19296" lon="5.3076">
        <ele>653.35399936</ele>
        <time>2015-05-18T09:17:32.150Z</time>
      </trkpt>
      <trkpt lat="44.19285" lon="5.30769">
        <ele>656.14999808</ele>
        <time>2015-05-18T09:17:46.130Z</time>
      </trkpt>
      <trkpt lat="44.19269" lon="5.30775">
        <ele>658.552</ele>
        <time>2015-05-18T09:17:58.140Z</time>
      </trkpt>
      <trkpt lat="44.19267" lon="5.30757">
        <ele>660.75399936</ele>
        <time>2015-05-18T09:18:14.150Z</time>
      </trkpt>
      <trkpt lat="44.19273" lon="5.30739">
        <ele>663.15599872</ele>
        <time>2015-05-18T09:18:26.160Z</time>
      </trkpt>
      <trkpt lat="44.19276" lon="5.30725">
        <ele>665.55399936</ele>
        <time>2015-05-18T09:18:38.150Z</time>
      </trkpt>
      <trkpt lat="44.19264" lon="5.30725">
        <ele>669.74999808</ele>
        <time>2015-05-18T09:18:59.130Z</time>
      </trkpt>
      <trkpt lat="44.19253" lon="5.30737">
        <ele>671.74999808</ele>
        <time>2015-05-18T09:19:09.130Z</time>
      </trkpt>
      <trkpt lat="44.19241" lon="5.30751">
        <ele>673.07699968</ele>
        <time>2015-05-18T09:19:21.150Z</time>
      </trkpt>
      <trkpt lat="44.19233" lon="5.30759">
        <ele>673.87699968</ele>
        <time>2015-05-18T09:19:29.150Z</time>
      </trkpt>
      <trkpt lat="44.19218" lon="5.30767">
        <ele>676.736</ele>
        <time>2015-05-18T09:19:44.060Z</time>
      </trkpt>
      <trkpt lat="44.19209" lon="5.30775">
        <ele>679.74999808</ele>
        <time>2015-05-18T09:19:59.130Z</time>
      </trkpt>
      <trkpt lat="44.19199" lon="5.30784">
        <ele>682.15399936</ele>
        <time>2015-05-18T09:20:11.150Z</time>
      </trkpt>
      <trkpt lat="44.1919" lon="5.30797">
        <ele>684.54999808</ele>
        <time>2015-05-18T09:20:23.130Z</time>
      </trkpt>
      <trkpt lat="44.19178" lon="5.30809">
        <ele>686.87499904</ele>
        <time>2015-05-18T09:20:39.130Z</time>
      </trkpt>
      <trkpt lat="44.19161" lon="5.3082">
        <ele>691.07699968</ele>
        <time>2015-05-18T09:20:51.150Z</time>
      </trkpt>
      <trkpt lat="44.19151" lon="5.30828">
        <ele>692</ele>
        <time>2015-05-18T09:21:03.150Z</time>
      </trkpt>
      <trkpt lat="44.19138" lon="5.30842">
        <ele>692.45699968</ele>
        <time>2015-05-18T09:21:14.950Z</time>
      </trkpt>
      <trkpt lat="44.19124" lon="5.30839">
        <ele>693.17499904</ele>
        <time>2015-05-18T09:21:22.130Z</time>
      </trkpt>
      <trkpt lat="44.19125" lon="5.30822">
        <ele>693.87499904</ele>
        <time>2015-05-18T09:21:29.130Z</time>
      </trkpt>
      <trkpt lat="44.19129" lon="5.30809">
        <ele>694.67499904</ele>
        <time>2015-05-18T09:21:37.130Z</time>
      </trkpt>
      <trkpt lat="44.19138" lon="5.30792">
        <ele>698.77099904</ele>
        <time>2015-05-18T09:21:52.950Z</time>
      </trkpt>
      <trkpt lat="44.19145" lon="5.30772">
        <ele>701</ele>
        <time>2015-05-18T09:22:07.150Z</time>
      </trkpt>
      <trkpt lat="44.19147" lon="5.30755">
        <ele>702.74999808</ele>
        <time>2015-05-18T09:22:19.130Z</time>
      </trkpt>
      <trkpt lat="44.1915" lon="5.30741">
        <ele>704.07699968</ele>
        <time>2015-05-18T09:22:31.150Z</time>
      </trkpt>
      <trkpt lat="44.19156" lon="5.30723">
        <ele>705.55399936</ele>
        <time>2015-05-18T09:22:43.150Z</time>
      </trkpt>
      <trkpt lat="44.19162" lon="5.30703">
        <ele>707.95399936</ele>
        <time>2015-05-18T09:22:55.150Z</time>
      </trkpt>
      <trkpt lat="44.19165" lon="5.30689">
        <ele>710.29199872</ele>
        <time>2015-05-18T09:23:06.840Z</time>
      </trkpt>
      <trkpt lat="44.19171" lon="5.30677">
        <ele>712.94999808</ele>
        <time>2015-05-18T09:23:20.130Z</time>
      </trkpt>
      <trkpt lat="44.19173" lon="5.3066">
        <ele>716.57699968</ele>
        <time>2015-05-18T09:23:36.150Z</time>
      </trkpt>
      <trkpt lat="44.19173" lon="5.30643">
        <ele>717.37499904</ele>
        <time>2015-05-18T09:23:44.130Z</time>
      </trkpt>
      <trkpt lat="44.19173" lon="5.30626">
        <ele>719.152</ele>
        <time>2015-05-18T09:23:56.140Z</time>
      </trkpt>
      <trkpt lat="44.19171" lon="5.30609">
        <ele>723.20399616</ele>
        <time>2015-05-18T09:24:11.060Z</time>
      </trkpt>
      <trkpt lat="44.19165" lon="5.30586">
        <ele>726.97499904</ele>
        <time>2015-05-18T09:24:30.130Z</time>
      </trkpt>
      <trkpt lat="44.19162" lon="5.30572">
        <ele>729.35399936</ele>
        <time>2015-05-18T09:24:42.150Z</time>
      </trkpt>
      <trkpt lat="44.19162" lon="5.30553">
        <ele>731.37699968</ele>
        <time>2015-05-18T09:24:54.150Z</time>
      </trkpt>
      <trkpt lat="44.19163" lon="5.30539">
        <ele>733.30999808</ele>
        <time>2015-05-18T09:25:06.930Z</time>
      </trkpt>
      <trkpt lat="44.19154" lon="5.30527">
        <ele>736.29999616</ele>
        <time>2015-05-18T09:25:21.130Z</time>
      </trkpt>
      <trkpt lat="44.19144" lon="5.30514">
        <ele>740.27699968</ele>
        <time>2015-05-18T09:25:33.150Z</time>
      </trkpt>
      <trkpt lat="44.1914" lon="5.30501">
        <ele>741.57499904</ele>
        <time>2015-05-18T09:25:46.130Z</time>
      </trkpt>
      <trkpt lat="44.19137" lon="5.30487">
        <ele>743.30999808</ele>
        <time>2015-05-18T09:25:56.930Z</time>
      </trkpt>
      <trkpt lat="44.19128" lon="5.30473">
        <ele>744.95399936</ele>
        <time>2015-05-18T09:26:05.150Z</time>
      </trkpt>
      <trkpt lat="44.1912" lon="5.30461">
        <ele>747.35399936</ele>
        <time>2015-05-18T09:26:17.150Z</time>
      </trkpt>
      <trkpt lat="44.19109" lon="5.30451">
        <ele>750</ele>
        <time>2015-05-18T09:26:33.150Z</time>
      </trkpt>
      <trkpt lat="44.19099" lon="5.30438">
        <ele>750.95399936</ele>
        <time>2015-05-18T09:26:45.150Z</time>
      </trkpt>
      <trkpt lat="44.19091" lon="5.30422">
        <ele>755.3849984</ele>
        <time>2015-05-18T09:26:57.150Z</time>
      </trkpt>
      <trkpt lat="44.19084" lon="5.30411">
        <ele>758.75399936</ele>
        <time>2015-05-18T09:27:09.150Z</time>
      </trkpt>
      <trkpt lat="44.19077" lon="5.30398">
        <ele>760.16699904</ele>
        <time>2015-05-18T09:27:22.050Z</time>
      </trkpt>
      <trkpt lat="44.19067" lon="5.30389">
        <ele>761.54999808</ele>
        <time>2015-05-18T09:27:33.130Z</time>
      </trkpt>
      <trkpt lat="44.19058" lon="5.30382">
        <ele>763.07499904</ele>
        <time>2015-05-18T09:27:41.130Z</time>
      </trkpt>
      <trkpt lat="44.19051" lon="5.30371">
        <ele>763.87699968</ele>
        <time>2015-05-18T09:27:49.150Z</time>
      </trkpt>
      <trkpt lat="44.19042" lon="5.30358">
        <ele>766.95399936</ele>
        <time>2015-05-18T09:28:05.150Z</time>
      </trkpt>
      <trkpt lat="44.19032" lon="5.30346">
        <ele>769.35399936</ele>
        <time>2015-05-18T09:28:17.150Z</time>
      </trkpt>
      <trkpt lat="44.19043" lon="5.30354">
        <ele>774</ele>
        <time>2015-05-18T09:28:45.950Z</time>
      </trkpt>
      <trkpt lat="44.19046" lon="5.30369">
        <ele>774</ele>
        <time>2015-05-18T09:28:54.150Z</time>
      </trkpt>
      <trkpt lat="44.19054" lon="5.30388">
        <ele>774.15699968</ele>
        <time>2015-05-18T09:29:01.950Z</time>
      </trkpt>
      <trkpt lat="44.19065" lon="5.30403">
        <ele>774.95799936</ele>
        <time>2015-05-18T09:29:09.960Z</time>
      </trkpt>
      <trkpt lat="44.19074" lon="5.30421">
        <ele>775</ele>
        <time>2015-05-18T09:29:18.150Z</time>
      </trkpt>
      <trkpt lat="44.19082" lon="5.30438">
        <ele>775.95699968</ele>
        <time>2015-05-18T09:29:29.950Z</time>
      </trkpt>
      <trkpt lat="44.19081" lon="5.30456">
        <ele>776</ele>
        <time>2015-05-18T09:29:44.130Z</time>
      </trkpt>
      <trkpt lat="44.19084" lon="5.3047">
        <ele>776.14799872</ele>
        <time>2015-05-18T09:29:51.860Z</time>
      </trkpt>
      <trkpt lat="44.19084" lon="5.30491">
        <ele>777</ele>
        <time>2015-05-18T09:30:07.150Z</time>
      </trkpt>
      <trkpt lat="44.19084" lon="5.3051">
        <ele>777.95199744</ele>
        <time>2015-05-18T09:30:15.140Z</time>
      </trkpt>
      <trkpt lat="44.19082" lon="5.30532">
        <ele>779</ele>
        <time>2015-05-18T09:30:27.150Z</time>
      </trkpt>
      <trkpt lat="44.19073" lon="5.30539">
        <ele>779.45699968</ele>
        <time>2015-05-18T09:30:34.950Z</time>
      </trkpt>
      <trkpt lat="44.19062" lon="5.30557">
        <ele>780</ele>
        <time>2015-05-18T09:30:42.950Z</time>
      </trkpt>
      <trkpt lat="44.19063" lon="5.30579">
        <ele>780.57699968</ele>
        <time>2015-05-18T09:30:56.150Z</time>
      </trkpt>
      <trkpt lat="44.19055" lon="5.30591">
        <ele>781</ele>
        <time>2015-05-18T09:31:04.130Z</time>
      </trkpt>
      <trkpt lat="44.19049" lon="5.30605">
        <ele>781.15699968</ele>
        <time>2015-05-18T09:31:11.950Z</time>
      </trkpt>
      <trkpt lat="44.19038" lon="5.30624">
        <ele>781.95699968</ele>
        <time>2015-05-18T09:31:19.950Z</time>
      </trkpt>
      <trkpt lat="44.19025" lon="5.30641">
        <ele>782.75699968</ele>
        <time>2015-05-18T09:31:27.950Z</time>
      </trkpt>
      <trkpt lat="44.19018" lon="5.30655">
        <ele>783</ele>
        <time>2015-05-18T09:31:36.150Z</time>
      </trkpt>
      <trkpt lat="44.19011" lon="5.30666">
        <ele>783.35699968</ele>
        <time>2015-05-18T09:31:43.950Z</time>
      </trkpt>
      <trkpt lat="44.19003" lon="5.30678">
        <ele>784</ele>
        <time>2015-05-18T09:31:55.130Z</time>
      </trkpt>
      <trkpt lat="44.18996" lon="5.30692">
        <ele>784</ele>
        <time>2015-05-18T09:32:03.940Z</time>
      </trkpt>
      <trkpt lat="44.18985" lon="5.30706">
        <ele>785.31399936</ele>
        <time>2015-05-18T09:32:16.950Z</time>
      </trkpt>
      <trkpt lat="44.18978" lon="5.30716">
        <ele>786</ele>
        <time>2015-05-18T09:32:24.950Z</time>
      </trkpt>
      <trkpt lat="44.18967" lon="5.30725">
        <ele>786</ele>
        <time>2015-05-18T09:32:32.950Z</time>
      </trkpt>
      <trkpt lat="44.18959" lon="5.30735">
        <ele>786</ele>
        <time>2015-05-18T09:32:44.150Z</time>
      </trkpt>
      <trkpt lat="44.18948" lon="5.30746">
        <ele>786.15599872</ele>
        <time>2015-05-18T09:32:51.940Z</time>
      </trkpt>
      <trkpt lat="44.18943" lon="5.3076">
        <ele>786.95499904</ele>
        <time>2015-05-18T09:32:59.930Z</time>
      </trkpt>
      <trkpt lat="44.18928" lon="5.3077">
        <ele>787.35399936</ele>
        <time>2015-05-18T09:33:12.150Z</time>
      </trkpt>
      <trkpt lat="44.18916" lon="5.30776">
        <ele>788.91399936</ele>
        <time>2015-05-18T09:33:19.950Z</time>
      </trkpt>
      <trkpt lat="44.189" lon="5.30779">
        <ele>789</ele>
        <time>2015-05-18T09:33:27.950Z</time>
      </trkpt>
      <trkpt lat="44.18887" lon="5.3079">
        <ele>789.55699968</ele>
        <time>2015-05-18T09:33:35.950Z</time>
      </trkpt>
      <trkpt lat="44.18886" lon="5.3081">
        <ele>790.37699968</ele>
        <time>2015-05-18T09:33:44.150Z</time>
      </trkpt>
      <trkpt lat="44.18886" lon="5.30827">
        <ele>791</ele>
        <time>2015-05-18T09:33:51.950Z</time>
      </trkpt>
      <trkpt lat="44.18885" lon="5.30843">
        <ele>791</ele>
        <time>2015-05-18T09:34:00.150Z</time>
      </trkpt>
      <trkpt lat="44.18882" lon="5.30869">
        <ele>791.45499904</ele>
        <time>2015-05-18T09:34:14.930Z</time>
      </trkpt>
      <trkpt lat="44.18884" lon="5.30886">
        <ele>792.47499904</ele>
        <time>2015-05-18T09:34:35.130Z</time>
      </trkpt>
      <trkpt lat="44.18884" lon="5.30905">
        <ele>793</ele>
        <time>2015-05-18T09:34:44.150Z</time>
      </trkpt>
      <trkpt lat="44.18876" lon="5.30917">
        <ele>793</ele>
        <time>2015-05-18T09:34:52.130Z</time>
      </trkpt>
      <trkpt lat="44.18871" lon="5.30931">
        <ele>793</ele>
        <time>2015-05-18T09:34:59.930Z</time>
      </trkpt>
      <trkpt lat="44.18869" lon="5.3095">
        <ele>795</ele>
        <time>2015-05-18T09:35:14.930Z</time>
      </trkpt>
      <trkpt lat="44.18864" lon="5.30966">
        <ele>795</ele>
        <time>2015-05-18T09:35:23.150Z</time>
      </trkpt>
      <trkpt lat="44.18854" lon="5.30977">
        <ele>795</ele>
        <time>2015-05-18T09:35:31.150Z</time>
      </trkpt>
      <trkpt lat="44.18843" lon="5.3099">
        <ele>795</ele>
        <time>2015-05-18T09:35:38.950Z</time>
      </trkpt>
      <trkpt lat="44.1883" lon="5.31008">
        <ele>795</ele>
        <time>2015-05-18T09:35:46.950Z</time>
      </trkpt>
      <trkpt lat="44.18822" lon="5.30998">
        <ele>797.27499904</ele>
        <time>2015-05-18T09:36:23.130Z</time>
      </trkpt>
      <trkpt lat="44.1883" lon="5.30967">
        <ele>798</ele>
        <time>2015-05-18T09:36:46.050Z</time>
      </trkpt>
      <trkpt lat="44.18838" lon="5.3095">
        <ele>798.35399936</ele>
        <time>2015-05-18T09:37:02.150Z</time>
      </trkpt>
      <trkpt lat="44.18845" lon="5.3094">
        <ele>801</ele>
        <time>2015-05-18T09:37:28.930Z</time>
      </trkpt>
      <trkpt lat="44.18849" lon="5.3092">
        <ele>802</ele>
        <time>2015-05-18T09:38:01.130Z</time>
      </trkpt>
      <trkpt lat="44.18849" lon="5.30905">
        <ele>802</ele>
        <time>2015-05-18T09:38:08.930Z</time>
      </trkpt>
      <trkpt lat="44.18846" lon="5.30918">
        <ele>804.57499904</ele>
        <time>2015-05-18T09:38:36.130Z</time>
      </trkpt>
      <trkpt lat="44.18834" lon="5.30923">
        <ele>805.35699968</ele>
        <time>2015-05-18T09:38:43.950Z</time>
      </trkpt>
      <trkpt lat="44.18821" lon="5.30933">
        <ele>807.15399936</ele>
        <time>2015-05-18T09:38:56.150Z</time>
      </trkpt>
      <trkpt lat="44.18811" lon="5.30937">
        <ele>809.13099904</ele>
        <time>2015-05-18T09:39:04.150Z</time>
      </trkpt>
      <trkpt lat="44.18799" lon="5.3094">
        <ele>811</ele>
        <time>2015-05-18T09:39:13.130Z</time>
      </trkpt>
      <trkpt lat="44.18782" lon="5.3094">
        <ele>811.90999808</ele>
        <time>2015-05-18T09:39:24.930Z</time>
      </trkpt>
      <trkpt lat="44.18773" lon="5.30932">
        <ele>813</ele>
        <time>2015-05-18T09:39:37.150Z</time>
      </trkpt>
      <trkpt lat="44.18767" lon="5.30918">
        <ele>813.95399936</ele>
        <time>2015-05-18T09:39:45.150Z</time>
      </trkpt>
      <trkpt lat="44.1876" lon="5.30899">
        <ele>816.35399936</ele>
        <time>2015-05-18T09:39:57.150Z</time>
      </trkpt>
      <trkpt lat="44.18758" lon="5.30885">
        <ele>817.91399936</ele>
        <time>2015-05-18T09:40:04.950Z</time>
      </trkpt>
      <trkpt lat="44.18748" lon="5.30875">
        <ele>821</ele>
        <time>2015-05-18T09:40:20.950Z</time>
      </trkpt>
      <trkpt lat="44.18754" lon="5.3086">
        <ele>822</ele>
        <time>2015-05-18T09:40:40.950Z</time>
      </trkpt>
      <trkpt lat="44.18748" lon="5.30848">
        <ele>822</ele>
        <time>2015-05-18T09:40:49.150Z</time>
      </trkpt>
      <trkpt lat="44.18745" lon="5.30825">
        <ele>824.47699968</ele>
        <time>2015-05-18T09:41:05.150Z</time>
      </trkpt>
      <trkpt lat="44.18742" lon="5.3081">
        <ele>826.07699968</ele>
        <time>2015-05-18T09:41:21.150Z</time>
      </trkpt>
      <trkpt lat="44.18741" lon="5.30794">
        <ele>826.87699968</ele>
        <time>2015-05-18T09:41:29.150Z</time>
      </trkpt>
      <trkpt lat="44.18738" lon="5.30781">
        <ele>828.75399936</ele>
        <time>2015-05-18T09:41:39.150Z</time>
      </trkpt>
      <trkpt lat="44.18732" lon="5.30764">
        <ele>830.2307683455</ele>
        <time>2015-05-18T09:41:51.150Z</time>
      </trkpt>
      <trkpt lat="44.18726" lon="5.30745">
        <ele>833.25625617417</ele>
        <time>2015-05-18T09:42:02.950Z</time>
      </trkpt>
      <trkpt lat="44.18722" lon="5.3073">
        <ele>834.07699968</ele>
        <time>2015-05-18T09:42:11.150Z</time>
      </trkpt>
      <trkpt lat="44.18721" lon="5.30715">
        <ele>836.35399936</ele>
        <time>2015-05-18T09:42:27.150Z</time>
      </trkpt>
      <trkpt lat="44.18723" lon="5.307">
        <ele>838.42500096</ele>
        <time>2015-05-18T09:43:26.130Z</time>
      </trkpt>
      <trkpt lat="44.18722" lon="5.30686">
        <ele>839.768</ele>
        <time>2015-05-18T09:44:48.060Z</time>
      </trkpt>
      <trkpt lat="44.18716" lon="5.30667">
        <ele>840</ele>
        <time>2015-05-18T09:44:59.940Z</time>
      </trkpt>
      <trkpt lat="44.18713" lon="5.30652">
        <ele>842.07499904</ele>
        <time>2015-05-18T09:45:11.130Z</time>
      </trkpt>
      <trkpt lat="44.18725" lon="5.30651">
        <ele>846.54999808</ele>
        <time>2015-05-18T09:45:38.130Z</time>
      </trkpt>
      <trkpt lat="44.18732" lon="5.30669">
        <ele>847.77499904</ele>
        <time>2015-05-18T09:45:48.130Z</time>
      </trkpt>
      <trkpt lat="44.18738" lon="5.30681">
        <ele>848.648</ele>
        <time>2015-05-18T09:45:56.860Z</time>
      </trkpt>
      <trkpt lat="44.18747" lon="5.30694">
        <ele>849.95399936</ele>
        <time>2015-05-18T09:46:05.150Z</time>
      </trkpt>
      <trkpt lat="44.18755" lon="5.30705">
        <ele>851</ele>
        <time>2015-05-18T09:46:12.950Z</time>
      </trkpt>
      <trkpt lat="44.18761" lon="5.30717">
        <ele>852.71399936</ele>
        <time>2015-05-18T09:46:28.950Z</time>
      </trkpt>
      <trkpt lat="44.18769" lon="5.30706">
        <ele>856</ele>
        <time>2015-05-18T09:46:53.150Z</time>
      </trkpt>
      <trkpt lat="44.18763" lon="5.30692">
        <ele>856.91399936</ele>
        <time>2015-05-18T09:47:04.950Z</time>
      </trkpt>
      <trkpt lat="44.18767" lon="5.30672">
        <ele>859.35399936</ele>
        <time>2015-05-18T09:47:17.150Z</time>
      </trkpt>
      <trkpt lat="44.18768" lon="5.3066">
        <ele>860</ele>
        <time>2015-05-18T09:47:24.950Z</time>
      </trkpt>
      <trkpt lat="44.18767" lon="5.30645">
        <ele>861.49999616</ele>
        <time>2015-05-18T09:47:34.130Z</time>
      </trkpt>
      <trkpt lat="44.18768" lon="5.30629">
        <ele>865.73099904</ele>
        <time>2015-05-18T09:47:46.150Z</time>
      </trkpt>
      <trkpt lat="44.18769" lon="5.30615">
        <ele>868.70799872</ele>
        <time>2015-05-18T09:48:02.150Z</time>
      </trkpt>
      <trkpt lat="44.1877" lon="5.30604">
        <ele>872.37699968</ele>
        <time>2015-05-18T09:48:14.150Z</time>
      </trkpt>
      <trkpt lat="44.1877" lon="5.3057">
        <ele>875.57699968</ele>
        <time>2015-05-18T09:48:36.150Z</time>
      </trkpt>
      <trkpt lat="44.18774" lon="5.30557">
        <ele>881.35399936</ele>
        <time>2015-05-18T09:48:52.150Z</time>
      </trkpt>
      <trkpt lat="44.18773" lon="5.3054">
        <ele>883.77699968</ele>
        <time>2015-05-18T09:49:08.150Z</time>
      </trkpt>
      <trkpt lat="44.18774" lon="5.30526">
        <ele>889</ele>
        <time>2015-05-18T09:49:30.160Z</time>
      </trkpt>
      <trkpt lat="44.18775" lon="5.30513">
        <ele>891.53099904</ele>
        <time>2015-05-18T09:49:42.150Z</time>
      </trkpt>
      <trkpt lat="44.1878" lon="5.30497">
        <ele>894.77699968</ele>
        <time>2015-05-18T09:49:58.150Z</time>
      </trkpt>
      <trkpt lat="44.18783" lon="5.30481">
        <ele>898.35699968</ele>
        <time>2015-05-18T09:50:13.950Z</time>
      </trkpt>
      <trkpt lat="44.18784" lon="5.30467">
        <ele>899.31399936</ele>
        <time>2015-05-18T09:50:21.950Z</time>
      </trkpt>
      <trkpt lat="44.18786" lon="5.30446">
        <ele>901.37699968</ele>
        <time>2015-05-18T09:50:34.150Z</time>
      </trkpt>
      <trkpt lat="44.18772" lon="5.30426">
        <ele>902</ele>
        <time>2015-05-18T09:50:58.130Z</time>
      </trkpt>
      <trkpt lat="44.18767" lon="5.30395">
        <ele>902</ele>
        <time>2015-05-18T09:51:06.150Z</time>
      </trkpt>
      <trkpt lat="44.18763" lon="5.30362">
        <ele>902</ele>
        <time>2015-05-18T09:51:18.150Z</time>
      </trkpt>
      <trkpt lat="44.18757" lon="5.30351">
        <ele>900.08600064</ele>
        <time>2015-05-18T09:51:29.950Z</time>
      </trkpt>
      <trkpt lat="44.18749" lon="5.30337">
        <ele>900</ele>
        <time>2015-05-18T09:51:42.150Z</time>
      </trkpt>
      <trkpt lat="44.18743" lon="5.30319">
        <ele>900</ele>
        <time>2015-05-18T09:51:53.950Z</time>
      </trkpt>
      <trkpt lat="44.18737" lon="5.30308">
        <ele>900</ele>
        <time>2015-05-18T09:52:01.950Z</time>
      </trkpt>
      <trkpt lat="44.18739" lon="5.30295">
        <ele>900</ele>
        <time>2015-05-18T09:52:10.150Z</time>
      </trkpt>
      <trkpt lat="44.18735" lon="5.30273">
        <ele>900.75699968</ele>
        <time>2015-05-18T09:52:17.950Z</time>
      </trkpt>
      <trkpt lat="44.18732" lon="5.30244">
        <ele>901</ele>
        <time>2015-05-18T09:52:26.140Z</time>
      </trkpt>
      <trkpt lat="44.18729" lon="5.30231">
        <ele>901</ele>
        <time>2015-05-18T09:52:33.950Z</time>
      </trkpt>
      <trkpt lat="44.18728" lon="5.30215">
        <ele>901.35399936</ele>
        <time>2015-05-18T09:52:42.150Z</time>
      </trkpt>
      <trkpt lat="44.1873" lon="5.30193">
        <ele>904.55399936</ele>
        <time>2015-05-18T09:52:58.150Z</time>
      </trkpt>
      <trkpt lat="44.1873" lon="5.30179">
        <ele>905.55699968</ele>
        <time>2015-05-18T09:53:05.950Z</time>
      </trkpt>
      <trkpt lat="44.18735" lon="5.30163">
        <ele>907.51399936</ele>
        <time>2015-05-18T09:53:17.950Z</time>
      </trkpt>
      <trkpt lat="44.18732" lon="5.30143">
        <ele>909.95399936</ele>
        <time>2015-05-18T09:53:30.150Z</time>
      </trkpt>
      <trkpt lat="44.18729" lon="5.3013">
        <ele>911.55399936</ele>
        <time>2015-05-18T09:53:38.150Z</time>
      </trkpt>
      <trkpt lat="44.18727" lon="5.30112">
        <ele>913.11399936</ele>
        <time>2015-05-18T09:53:45.950Z</time>
      </trkpt>
      <trkpt lat="44.18731" lon="5.3008">
        <ele>915</ele>
        <time>2015-05-18T09:54:06.130Z</time>
      </trkpt>
      <trkpt lat="44.1874" lon="5.3007">
        <ele>915.768</ele>
        <time>2015-05-18T09:54:18.060Z</time>
      </trkpt>
      <trkpt lat="44.18748" lon="5.30062">
        <ele>917.15399936</ele>
        <time>2015-05-18T09:54:26.150Z</time>
      </trkpt>
      <trkpt lat="44.18751" lon="5.30044">
        <ele>919.55399936</ele>
        <time>2015-05-18T09:54:38.150Z</time>
      </trkpt>
      <trkpt lat="44.1876" lon="5.3003">
        <ele>920.97699968</ele>
        <time>2015-05-18T09:54:50.150Z</time>
      </trkpt>
      <trkpt lat="44.18766" lon="5.30015">
        <ele>923.17699968</ele>
        <time>2015-05-18T09:55:02.150Z</time>
      </trkpt>
      <trkpt lat="44.18776" lon="5.30003">
        <ele>924</ele>
        <time>2015-05-18T09:55:18.150Z</time>
      </trkpt>
      <trkpt lat="44.18786" lon="5.29988">
        <ele>924.97699968</ele>
        <time>2015-05-18T09:55:30.150Z</time>
      </trkpt>
      <trkpt lat="44.18793" lon="5.29978">
        <ele>926.55599872</ele>
        <time>2015-05-18T09:55:38.160Z</time>
      </trkpt>
      <trkpt lat="44.188" lon="5.29966">
        <ele>927.57699968</ele>
        <time>2015-05-18T09:55:46.150Z</time>
      </trkpt>
      <trkpt lat="44.1879" lon="5.29975">
        <ele>932.776</ele>
        <time>2015-05-18T09:56:18.140Z</time>
      </trkpt>
      <trkpt lat="44.18776" lon="5.29981">
        <ele>933</ele>
        <time>2015-05-18T09:56:30.150Z</time>
      </trkpt>
      <trkpt lat="44.18762" lon="5.29987">
        <ele>936.15515414449</ele>
        <time>2015-05-18T09:56:46.160Z</time>
      </trkpt>
      <trkpt lat="44.18751" lon="5.29985">
        <ele>937.77699968</ele>
        <time>2015-05-18T09:56:58.150Z</time>
      </trkpt>
      <trkpt lat="44.18738" lon="5.29978">
        <ele>939.95399936</ele>
        <time>2015-05-18T09:57:10.150Z</time>
      </trkpt>
      <trkpt lat="44.18729" lon="5.29969">
        <ele>941.55399936</ele>
        <time>2015-05-18T09:57:18.150Z</time>
      </trkpt>
      <trkpt lat="44.18722" lon="5.29957">
        <ele>942</ele>
        <time>2015-05-18T09:57:26.150Z</time>
      </trkpt>
      <trkpt lat="44.18716" lon="5.29945">
        <ele>942.77699968</ele>
        <time>2015-05-18T09:57:38.150Z</time>
      </trkpt>
      <trkpt lat="44.18709" lon="5.29928">
        <ele>944.95399936</ele>
        <time>2015-05-18T09:57:50.150Z</time>
      </trkpt>
      <trkpt lat="44.18705" lon="5.29915">
        <ele>945.77499904</ele>
        <time>2015-05-18T09:57:58.130Z</time>
      </trkpt>
      <trkpt lat="44.18701" lon="5.29897">
        <ele>947.94999808</ele>
        <time>2015-05-18T09:58:10.130Z</time>
      </trkpt>
      <trkpt lat="44.18694" lon="5.29886">
        <ele>949.55399936</ele>
        <time>2015-05-18T09:58:18.150Z</time>
      </trkpt>
      <trkpt lat="44.18688" lon="5.29865">
        <ele>951.07599872</ele>
        <time>2015-05-18T09:58:31.140Z</time>
      </trkpt>
      <trkpt lat="44.18683" lon="5.29853">
        <ele>951.87599872</ele>
        <time>2015-05-18T09:58:39.140Z</time>
      </trkpt>
      <trkpt lat="44.18679" lon="5.29839">
        <ele>953.55599872</ele>
        <time>2015-05-18T09:58:48.160Z</time>
      </trkpt>
      <trkpt lat="44.18678" lon="5.29823">
        <ele>954.97699968</ele>
        <time>2015-05-18T09:59:00.150Z</time>
      </trkpt>
      <trkpt lat="44.18675" lon="5.29809">
        <ele>957.168</ele>
        <time>2015-05-18T09:59:22.060Z</time>
      </trkpt>
      <trkpt lat="44.18667" lon="5.29792">
        <ele>958.512</ele>
        <time>2015-05-18T09:59:32.940Z</time>
      </trkpt>
      <trkpt lat="44.18669" lon="5.2977">
        <ele>960.07499904</ele>
        <time>2015-05-18T09:59:41.130Z</time>
      </trkpt>
      <trkpt lat="44.18661" lon="5.29756">
        <ele>961.07499904</ele>
        <time>2015-05-18T09:59:51.130Z</time>
      </trkpt>
      <trkpt lat="44.18648" lon="5.29748">
        <ele>962.37499904</ele>
        <time>2015-05-18T10:00:04.130Z</time>
      </trkpt>
      <trkpt lat="44.18636" lon="5.29741">
        <ele>965.15399936</ele>
        <time>2015-05-18T10:00:21.150Z</time>
      </trkpt>
      <trkpt lat="44.18629" lon="5.29725">
        <ele>968.14999808</ele>
        <time>2015-05-18T10:00:36.130Z</time>
      </trkpt>
      <trkpt lat="44.18623" lon="5.29715">
        <ele>969</ele>
        <time>2015-05-18T10:00:44.150Z</time>
      </trkpt>
      <trkpt lat="44.18614" lon="5.29704">
        <ele>969.57699968</ele>
        <time>2015-05-18T10:00:56.150Z</time>
      </trkpt>
      <trkpt lat="44.18607" lon="5.2969">
        <ele>972.33099904</ele>
        <time>2015-05-18T10:01:08.150Z</time>
      </trkpt>
      <trkpt lat="44.18591" lon="5.29682">
        <ele>973.97699968</ele>
        <time>2015-05-18T10:01:20.150Z</time>
      </trkpt>
      <trkpt lat="44.18577" lon="5.29682">
        <ele>975.06793081093</ele>
        <time>2015-05-18T10:01:31.060Z</time>
      </trkpt>
      <trkpt lat="44.18569" lon="5.29667">
        <ele>976.9489473637</ele>
        <time>2015-05-18T10:01:45.130Z</time>
      </trkpt>
      <trkpt lat="44.18579" lon="5.29667">
        <ele>978</ele>
        <time>2015-05-18T10:01:57.150Z</time>
      </trkpt>
      <trkpt lat="44.18592" lon="5.29668">
        <ele>979.55399936</ele>
        <time>2015-05-18T10:02:13.150Z</time>
      </trkpt>
      <trkpt lat="44.18602" lon="5.29668">
        <ele>981.15399936</ele>
        <time>2015-05-18T10:02:21.150Z</time>
      </trkpt>
      <trkpt lat="44.18613" lon="5.29675">
        <ele>983</ele>
        <time>2015-05-18T10:02:31.060Z</time>
      </trkpt>
      <trkpt lat="44.18625" lon="5.2968">
        <ele>983</ele>
        <time>2015-05-18T10:02:39.060Z</time>
      </trkpt>
      <trkpt lat="44.18638" lon="5.29687">
        <ele>984.15399936</ele>
        <time>2015-05-18T10:02:51.150Z</time>
      </trkpt>
      <trkpt lat="44.18656" lon="5.29694">
        <ele>986</ele>
        <time>2015-05-18T10:03:06.150Z</time>
      </trkpt>
      <trkpt lat="44.18672" lon="5.29704">
        <ele>987.34999808</ele>
        <time>2015-05-18T10:03:22.130Z</time>
      </trkpt>
      <trkpt lat="44.18684" lon="5.29713">
        <ele>989.74999808</ele>
        <time>2015-05-18T10:03:34.130Z</time>
      </trkpt>
      <trkpt lat="44.18695" lon="5.29717">
        <ele>991</ele>
        <time>2015-05-18T10:03:46.150Z</time>
      </trkpt>
      <trkpt lat="44.18708" lon="5.29725">
        <ele>992.55399936</ele>
        <time>2015-05-18T10:03:58.150Z</time>
      </trkpt>
      <trkpt lat="44.18715" lon="5.29737">
        <ele>993.57699968</ele>
        <time>2015-05-18T10:04:06.150Z</time>
      </trkpt>
      <trkpt lat="44.1872" lon="5.2975">
        <ele>994.87499904</ele>
        <time>2015-05-18T10:04:19.130Z</time>
      </trkpt>
      <trkpt lat="44.18735" lon="5.2976">
        <ele>995.74999808</ele>
        <time>2015-05-18T10:04:34.130Z</time>
      </trkpt>
      <trkpt lat="44.18745" lon="5.29777">
        <ele>997.77499904</ele>
        <time>2015-05-18T10:04:48.130Z</time>
      </trkpt>
      <trkpt lat="44.18758" lon="5.29785">
        <ele>1000</ele>
        <time>2015-05-18T10:05:03.130Z</time>
      </trkpt>
      <trkpt lat="44.18758" lon="5.29771">
        <ele>1000.67699968</ele>
        <time>2015-05-18T10:05:27.150Z</time>
      </trkpt>
      <trkpt lat="44.18766" lon="5.2976">
        <ele>1004</ele>
        <time>2015-05-18T10:06:31.950Z</time>
      </trkpt>
      <trkpt lat="44.18776" lon="5.29762">
        <ele>1002</ele>
        <time>2015-05-18T10:07:19.040Z</time>
      </trkpt>
      <trkpt lat="44.18761" lon="5.29764">
        <ele>1003.95399936</ele>
        <time>2015-05-18T10:09:10.150Z</time>
      </trkpt>
      <trkpt lat="44.18768" lon="5.29747">
        <ele>1004.08499968</ele>
        <time>2015-05-18T10:10:01.230Z</time>
      </trkpt>
      <trkpt lat="44.18769" lon="5.29731">
        <ele>1005.26499968</ele>
        <time>2015-05-18T10:10:13.030Z</time>
      </trkpt>
      <trkpt lat="44.18769" lon="5.29716">
        <ele>1006.88699904</ele>
        <time>2015-05-18T10:10:29.250Z</time>
      </trkpt>
      <trkpt lat="44.18769" lon="5.29695">
        <ele>1008.18499968</ele>
        <time>2015-05-18T10:10:42.230Z</time>
      </trkpt>
      <trkpt lat="44.18768" lon="5.29678">
        <ele>1009.73199872</ele>
        <time>2015-05-18T10:10:54.040Z</time>
      </trkpt>
      <trkpt lat="44.18773" lon="5.29663">
        <ele>1011.98699904</ele>
        <time>2015-05-18T10:11:10.250Z</time>
      </trkpt>
      <trkpt lat="44.1878" lon="5.29649">
        <ele>1014.36999936</ele>
        <time>2015-05-18T10:11:22.230Z</time>
      </trkpt>
      <trkpt lat="44.18786" lon="5.29636">
        <ele>1016.36699904</ele>
        <time>2015-05-18T10:11:34.050Z</time>
      </trkpt>
      <trkpt lat="44.18795" lon="5.29625">
        <ele>1018.13399808</ele>
        <time>2015-05-18T10:11:46.050Z</time>
      </trkpt>
      <trkpt lat="44.18804" lon="5.29616">
        <ele>1019.3666325248</ele>
        <time>2015-05-18T10:11:54.050Z</time>
      </trkpt>
      <trkpt lat="44.18815" lon="5.29608">
        <ele>1020.3723709718</ele>
        <time>2015-05-18T10:12:02.250Z</time>
      </trkpt>
      <trkpt lat="44.18826" lon="5.29594">
        <ele>1022.73399808</ele>
        <time>2015-05-18T10:12:14.050Z</time>
      </trkpt>
      <trkpt lat="44.18823" lon="5.29576">
        <ele>1024.78699904</ele>
        <time>2015-05-18T10:12:28.250Z</time>
      </trkpt>
      <trkpt lat="44.18821" lon="5.29562">
        <ele>1025.57899904</ele>
        <time>2015-05-18T10:12:36.170Z</time>
      </trkpt>
      <trkpt lat="44.18823" lon="5.29548">
        <ele>1026.77399808</ele>
        <time>2015-05-18T10:12:44.250Z</time>
      </trkpt>
      <trkpt lat="44.18823" lon="5.2953">
        <ele>1029.17399808</ele>
        <time>2015-05-18T10:12:56.250Z</time>
      </trkpt>
      <trkpt lat="44.18821" lon="5.29512">
        <ele>1030.78699904</ele>
        <time>2015-05-18T10:13:08.250Z</time>
      </trkpt>
      <trkpt lat="44.18822" lon="5.29496">
        <ele>1032.77399808</ele>
        <time>2015-05-18T10:13:19.250Z</time>
      </trkpt>
      <trkpt lat="44.18822" lon="5.29481">
        <ele>1033.66499968</ele>
        <time>2015-05-18T10:13:27.030Z</time>
      </trkpt>
      <trkpt lat="44.18822" lon="5.29466">
        <ele>1034.93399808</ele>
        <time>2015-05-18T10:13:35.050Z</time>
      </trkpt>
      <trkpt lat="44.18824" lon="5.2945">
        <ele>1036.48499968</ele>
        <time>2015-05-18T10:13:45.230Z</time>
      </trkpt>
      <trkpt lat="44.18829" lon="5.29435">
        <ele>1038.73399808</ele>
        <time>2015-05-18T10:13:59.050Z</time>
      </trkpt>
      <trkpt lat="44.18836" lon="5.29422">
        <ele>1039.66699904</ele>
        <time>2015-05-18T10:14:07.050Z</time>
      </trkpt>
      <trkpt lat="44.18841" lon="5.29409">
        <ele>1040.46699904</ele>
        <time>2015-05-18T10:14:15.050Z</time>
      </trkpt>
      <trkpt lat="44.18844" lon="5.29395">
        <ele>1041.97399808</ele>
        <time>2015-05-18T10:14:25.250Z</time>
      </trkpt>
      <trkpt lat="44.18838" lon="5.29381">
        <ele>1043.56999936</ele>
        <time>2015-05-18T10:14:33.230Z</time>
      </trkpt>
      <trkpt lat="44.18829" lon="5.29369">
        <ele>1045.58499968</ele>
        <time>2015-05-18T10:14:46.230Z</time>
      </trkpt>
      <trkpt lat="44.18827" lon="5.29349">
        <ele>1046.584</ele>
        <time>2015-05-18T10:14:56.220Z</time>
      </trkpt>
      <trkpt lat="44.18831" lon="5.29335">
        <ele>1047.76999936</ele>
        <time>2015-05-18T10:15:04.230Z</time>
      </trkpt>
      <trkpt lat="44.18829" lon="5.2932">
        <ele>1049.76499968</ele>
        <time>2015-05-18T10:15:18.030Z</time>
      </trkpt>
      <trkpt lat="44.1882" lon="5.2931">
        <ele>1052.18499968</ele>
        <time>2015-05-18T10:15:32.230Z</time>
      </trkpt>
      <trkpt lat="44.18812" lon="5.29295">
        <ele>1053.16999936</ele>
        <time>2015-05-18T10:15:41.230Z</time>
      </trkpt>
      <trkpt lat="44.18811" lon="5.29276">
        <ele>1056.36999936</ele>
        <time>2015-05-18T10:15:57.230Z</time>
      </trkpt>
      <trkpt lat="44.18808" lon="5.29254">
        <ele>1058.36999936</ele>
        <time>2015-05-18T10:16:12.230Z</time>
      </trkpt>
      <trkpt lat="44.18802" lon="5.2924">
        <ele>1059.76999936</ele>
        <time>2015-05-18T10:16:19.230Z</time>
      </trkpt>
      <trkpt lat="44.18803" lon="5.29225">
        <ele>1060.68499968</ele>
        <time>2015-05-18T10:16:27.230Z</time>
      </trkpt>
      <trkpt lat="44.188" lon="5.29206">
        <ele>1061.94499968</ele>
        <time>2015-05-18T10:16:39.830Z</time>
      </trkpt>
      <trkpt lat="44.18786" lon="5.29193">
        <ele>1064.35599872</ele>
        <time>2015-05-18T10:16:57.160Z</time>
      </trkpt>
      <trkpt lat="44.18782" lon="5.2918">
        <ele>1065.78499968</ele>
        <time>2015-05-18T10:17:08.230Z</time>
      </trkpt>
      <trkpt lat="44.18776" lon="5.29167">
        <ele>1068.36999936</ele>
        <time>2015-05-18T10:17:22.230Z</time>
      </trkpt>
      <trkpt lat="44.18772" lon="5.29151">
        <ele>1070</ele>
        <time>2015-05-18T10:17:34.040Z</time>
      </trkpt>
      <trkpt lat="44.18757" lon="5.29136">
        <ele>1071.17199872</ele>
        <time>2015-05-18T10:17:46.240Z</time>
      </trkpt>
      <trkpt lat="44.18753" lon="5.29123">
        <ele>1073.32999936</ele>
        <time>2015-05-18T10:17:57.030Z</time>
      </trkpt>
      <trkpt lat="44.18745" lon="5.29108">
        <ele>1074.56699904</ele>
        <time>2015-05-18T10:18:06.050Z</time>
      </trkpt>
      <trkpt lat="44.18736" lon="5.29098">
        <ele>1075.92999936</ele>
        <time>2015-05-18T10:18:15.030Z</time>
      </trkpt>
      <trkpt lat="44.18729" lon="5.29085">
        <ele>1077.66599936</ele>
        <time>2015-05-18T10:18:27.040Z</time>
      </trkpt>
      <trkpt lat="44.18717" lon="5.29072">
        <ele>1078.88599936</ele>
        <time>2015-05-18T10:18:39.240Z</time>
      </trkpt>
      <trkpt lat="44.18709" lon="5.2906">
        <ele>1081.48699904</ele>
        <time>2015-05-18T10:18:55.250Z</time>
      </trkpt>
      <trkpt lat="44.187" lon="5.29047">
        <ele>1084</ele>
        <time>2015-05-18T10:19:11.250Z</time>
      </trkpt>
      <trkpt lat="44.18688" lon="5.29036">
        <ele>1084.57399808</ele>
        <time>2015-05-18T10:19:23.250Z</time>
      </trkpt>
      <trkpt lat="44.18682" lon="5.29014">
        <ele>1086.96699904</ele>
        <time>2015-05-18T10:19:40.050Z</time>
      </trkpt>
      <trkpt lat="44.18675" lon="5.28995">
        <ele>1089.12999936</ele>
        <time>2015-05-18T10:19:51.030Z</time>
      </trkpt>
      <trkpt lat="44.18666" lon="5.2898">
        <ele>1091.12999936</ele>
        <time>2015-05-18T10:20:01.030Z</time>
      </trkpt>
      <trkpt lat="44.18662" lon="5.28964">
        <ele>1093.28499968</ele>
        <time>2015-05-18T10:20:13.230Z</time>
      </trkpt>
      <trkpt lat="44.18654" lon="5.2895">
        <ele>1093.96499968</ele>
        <time>2015-05-18T10:20:20.030Z</time>
      </trkpt>
      <trkpt lat="44.18656" lon="5.28934">
        <ele>1096.17399808</ele>
        <time>2015-05-18T10:20:36.250Z</time>
      </trkpt>
      <trkpt lat="44.18647" lon="5.28924">
        <ele>1099.37399808</ele>
        <time>2015-05-18T10:20:52.250Z</time>
      </trkpt>
      <trkpt lat="44.18637" lon="5.28914">
        <ele>1101.78699904</ele>
        <time>2015-05-18T10:21:08.250Z</time>
      </trkpt>
      <trkpt lat="44.18625" lon="5.28904">
        <ele>1103.97399808</ele>
        <time>2015-05-18T10:21:20.250Z</time>
      </trkpt>
      <trkpt lat="44.18616" lon="5.28897">
        <ele>1106.18699904</ele>
        <time>2015-05-18T10:21:32.250Z</time>
      </trkpt>
      <trkpt lat="44.18603" lon="5.28885">
        <ele>1107.73399808</ele>
        <time>2015-05-18T10:21:44.050Z</time>
      </trkpt>
      <trkpt lat="44.18592" lon="5.28882">
        <ele>1109.464</ele>
        <time>2015-05-18T10:21:55.020Z</time>
      </trkpt>
      <trkpt lat="44.18583" lon="5.28876">
        <ele>1110.25799936</ele>
        <time>2015-05-18T10:22:02.960Z</time>
      </trkpt>
      <trkpt lat="44.18575" lon="5.28863">
        <ele>1111.93399808</ele>
        <time>2015-05-18T10:22:15.050Z</time>
      </trkpt>
      <trkpt lat="44.18566" lon="5.28848">
        <ele>1113.66499968</ele>
        <time>2015-05-18T10:22:27.030Z</time>
      </trkpt>
      <trkpt lat="44.18563" lon="5.28828">
        <ele>1115.53199872</ele>
        <time>2015-05-18T10:22:38.040Z</time>
      </trkpt>
      <trkpt lat="44.18565" lon="5.28814">
        <ele>1116.66499968</ele>
        <time>2015-05-18T10:22:47.030Z</time>
      </trkpt>
      <trkpt lat="44.18568" lon="5.288">
        <ele>1117.96999936</ele>
        <time>2015-05-18T10:22:55.230Z</time>
      </trkpt>
      <trkpt lat="44.18575" lon="5.28785">
        <ele>1120.33399808</ele>
        <time>2015-05-18T10:23:07.050Z</time>
      </trkpt>
      <trkpt lat="44.18579" lon="5.28768">
        <ele>1122.96999936</ele>
        <time>2015-05-18T10:23:20.230Z</time>
      </trkpt>
      <trkpt lat="44.18584" lon="5.2875">
        <ele>1123.51599872</ele>
        <time>2015-05-18T10:23:32.960Z</time>
      </trkpt>
      <trkpt lat="44.1859" lon="5.28736">
        <ele>1125</ele>
        <time>2015-05-18T10:23:50.230Z</time>
      </trkpt>
      <trkpt lat="44.18593" lon="5.28711">
        <ele>1126.66699904</ele>
        <time>2015-05-18T10:24:47.050Z</time>
      </trkpt>
      <trkpt lat="44.18594" lon="5.28695">
        <ele>1128.46699904</ele>
        <time>2015-05-18T10:25:05.050Z</time>
      </trkpt>
      <trkpt lat="44.18599" lon="5.28678">
        <ele>1129.98499968</ele>
        <time>2015-05-18T10:25:30.230Z</time>
      </trkpt>
      <trkpt lat="44.18604" lon="5.28665">
        <ele>1131.53399808</ele>
        <time>2015-05-18T10:25:38.050Z</time>
      </trkpt>
      <trkpt lat="44.18615" lon="5.28654">
        <ele>1132.96699904</ele>
        <time>2015-05-18T10:25:50.050Z</time>
      </trkpt>
      <trkpt lat="44.18628" lon="5.28649">
        <ele>1135.16699904</ele>
        <time>2015-05-18T10:26:02.050Z</time>
      </trkpt>
      <trkpt lat="44.18618" lon="5.28651">
        <ele>1140</ele>
        <time>2015-05-18T10:26:38.210Z</time>
      </trkpt>
      <trkpt lat="44.18604" lon="5.28658">
        <ele>1140.96699904</ele>
        <time>2015-05-18T10:26:50.050Z</time>
      </trkpt>
      <trkpt lat="44.18592" lon="5.28662">
        <ele>1142.72999936</ele>
        <time>2015-05-18T10:27:04.030Z</time>
      </trkpt>
      <trkpt lat="44.18581" lon="5.28665">
        <ele>1144.46499968</ele>
        <time>2015-05-18T10:27:15.030Z</time>
      </trkpt>
      <trkpt lat="44.18576" lon="5.28682">
        <ele>1147</ele>
        <time>2015-05-18T10:27:41.030Z</time>
      </trkpt>
      <trkpt lat="44.1857" lon="5.28694">
        <ele>1147.52999936</ele>
        <time>2015-05-18T10:27:53.030Z</time>
      </trkpt>
      <trkpt lat="44.1856" lon="5.28705">
        <ele>1150.37399808</ele>
        <time>2015-05-18T10:28:07.250Z</time>
      </trkpt>
      <trkpt lat="44.1855" lon="5.2872">
        <ele>1152.16599808</ele>
        <time>2015-05-18T10:28:21.210Z</time>
      </trkpt>
      <trkpt lat="44.18542" lon="5.28729">
        <ele>1153.72599808</ele>
        <time>2015-05-18T10:28:29.010Z</time>
      </trkpt>
      <trkpt lat="44.18539" lon="5.28763">
        <ele>1154.68599936</ele>
        <time>2015-05-18T10:28:47.240Z</time>
      </trkpt>
      <trkpt lat="44.18527" lon="5.28764">
        <ele>1155.67599872</ele>
        <time>2015-05-18T10:28:57.140Z</time>
      </trkpt>
      <trkpt lat="44.1852" lon="5.28773">
        <ele>1157.74999808</ele>
        <time>2015-05-18T10:29:09.130Z</time>
      </trkpt>
      <trkpt lat="44.1851" lon="5.2879">
        <ele>1159.54999808</ele>
        <time>2015-05-18T10:29:23.130Z</time>
      </trkpt>
      <trkpt lat="44.18504" lon="5.28807">
        <ele>1161.77499904</ele>
        <time>2015-05-18T10:29:38.130Z</time>
      </trkpt>
      <trkpt lat="44.18493" lon="5.28816">
        <ele>1163.54999808</ele>
        <time>2015-05-18T10:29:48.130Z</time>
      </trkpt>
      <trkpt lat="44.18487" lon="5.2883">
        <ele>1166.27599872</ele>
        <time>2015-05-18T10:30:03.140Z</time>
      </trkpt>
      <trkpt lat="44.18478" lon="5.28843">
        <ele>1167.35499904</ele>
        <time>2015-05-18T10:30:13.930Z</time>
      </trkpt>
      <trkpt lat="44.18466" lon="5.28852">
        <ele>1169.14999808</ele>
        <time>2015-05-18T10:30:26.130Z</time>
      </trkpt>
      <trkpt lat="44.18455" lon="5.28859">
        <ele>1171.54999808</ele>
        <time>2015-05-18T10:30:38.130Z</time>
      </trkpt>
      <trkpt lat="44.18464" lon="5.28872">
        <ele>1173.34999808</ele>
        <time>2015-05-18T10:30:57.130Z</time>
      </trkpt>
      <trkpt lat="44.18486" lon="5.28897">
        <ele>1174.87499904</ele>
        <time>2015-05-18T10:31:09.130Z</time>
      </trkpt>
      <trkpt lat="44.18497" lon="5.28904">
        <ele>1175.67699968</ele>
        <time>2015-05-18T10:31:17.150Z</time>
      </trkpt>
      <trkpt lat="44.18504" lon="5.28919">
        <ele>1176.87699968</ele>
        <time>2015-05-18T10:31:29.150Z</time>
      </trkpt>
      <trkpt lat="44.18511" lon="5.28932">
        <ele>1178.95399936</ele>
        <time>2015-05-18T10:31:40.150Z</time>
      </trkpt>
      <trkpt lat="44.18518" lon="5.28946">
        <ele>1181.17499904</ele>
        <time>2015-05-18T10:31:52.130Z</time>
      </trkpt>
      <trkpt lat="44.18518" lon="5.28964">
        <ele>1183.74999808</ele>
        <time>2015-05-18T10:32:09.130Z</time>
      </trkpt>
      <trkpt lat="44.18527" lon="5.28977">
        <ele>1184.15399936</ele>
        <time>2015-05-18T10:32:21.150Z</time>
      </trkpt>
      <trkpt lat="44.18539" lon="5.28987">
        <ele>1187.35399936</ele>
        <time>2015-05-18T10:32:37.150Z</time>
      </trkpt>
      <trkpt lat="44.1855" lon="5.28994">
        <ele>1188.87699968</ele>
        <time>2015-05-18T10:32:49.150Z</time>
      </trkpt>
      <trkpt lat="44.1856" lon="5.29007">
        <ele>1190.07699968</ele>
        <time>2015-05-18T10:33:01.150Z</time>
      </trkpt>
      <trkpt lat="44.18562" lon="5.29025">
        <ele>1191.55399936</ele>
        <time>2015-05-18T10:33:13.150Z</time>
      </trkpt>
      <trkpt lat="44.1856" lon="5.29041">
        <ele>1193.95399936</ele>
        <time>2015-05-18T10:33:25.150Z</time>
      </trkpt>
      <trkpt lat="44.18563" lon="5.29054">
        <ele>1196.35399936</ele>
        <time>2015-05-18T10:33:37.150Z</time>
      </trkpt>
      <trkpt lat="44.18567" lon="5.29068">
        <ele>1198.75399936</ele>
        <time>2015-05-18T10:33:49.150Z</time>
      </trkpt>
      <trkpt lat="44.18564" lon="5.29084">
        <ele>1201.15399936</ele>
        <time>2015-05-18T10:34:21.150Z</time>
      </trkpt>
      <trkpt lat="44.18565" lon="5.29113">
        <ele>1203.26499968</ele>
        <time>2015-05-18T10:34:33.030Z</time>
      </trkpt>
      <trkpt lat="44.18563" lon="5.29134">
        <ele>1204.85399936</ele>
        <time>2015-05-18T10:34:48.920Z</time>
      </trkpt>
      <trkpt lat="44.18554" lon="5.29152">
        <ele>1205.95699968</ele>
        <time>2015-05-18T10:34:59.950Z</time>
      </trkpt>
      <trkpt lat="44.1854" lon="5.29155">
        <ele>1207.75399936</ele>
        <time>2015-05-18T10:35:09.150Z</time>
      </trkpt>
      <trkpt lat="44.18528" lon="5.29157">
        <ele>1209.54999808</ele>
        <time>2015-05-18T10:35:23.130Z</time>
      </trkpt>
      <trkpt lat="44.18513" lon="5.29157">
        <ele>1211.87499904</ele>
        <time>2015-05-18T10:35:39.130Z</time>
      </trkpt>
      <trkpt lat="44.18508" lon="5.29144">
        <ele>1213.54999808</ele>
        <time>2015-05-18T10:35:53.130Z</time>
      </trkpt>
      <trkpt lat="44.18512" lon="5.2913">
        <ele>1218</ele>
        <time>2015-05-18T10:41:18.150Z</time>
      </trkpt>
      <trkpt lat="44.18523" lon="5.2912">
        <ele>1218.87699968</ele>
        <time>2015-05-18T10:41:29.150Z</time>
      </trkpt>
      <trkpt lat="44.18518" lon="5.29108">
        <ele>1220.47699968</ele>
        <time>2015-05-18T10:41:45.150Z</time>
      </trkpt>
      <trkpt lat="44.18513" lon="5.29095">
        <ele>1222.14999808</ele>
        <time>2015-05-18T10:42:01.130Z</time>
      </trkpt>
      <trkpt lat="44.18512" lon="5.29081">
        <ele>1224.54999808</ele>
        <time>2015-05-18T10:42:13.130Z</time>
      </trkpt>
      <trkpt lat="44.18508" lon="5.29066">
        <ele>1226.47699968</ele>
        <time>2015-05-18T10:42:25.150Z</time>
      </trkpt>
      <trkpt lat="44.18495" lon="5.29052">
        <ele>1228.95599872</ele>
        <time>2015-05-18T10:42:40.160Z</time>
      </trkpt>
      <trkpt lat="44.18485" lon="5.29042">
        <ele>1231.14999808</ele>
        <time>2015-05-18T10:42:51.130Z</time>
      </trkpt>
      <trkpt lat="44.18473" lon="5.29031">
        <ele>1233.27399936</ele>
        <time>2015-05-18T10:43:03.120Z</time>
      </trkpt>
      <trkpt lat="44.18462" lon="5.29018">
        <ele>1234</ele>
        <time>2015-05-18T10:43:17.130Z</time>
      </trkpt>
      <trkpt lat="44.18449" lon="5.29005">
        <ele>1234.87699968</ele>
        <time>2015-05-18T10:43:29.150Z</time>
      </trkpt>
      <trkpt lat="44.18441" lon="5.28994">
        <ele>1236</ele>
        <time>2015-05-18T10:43:45.150Z</time>
      </trkpt>
      <trkpt lat="44.1843" lon="5.28986">
        <ele>1237</ele>
        <time>2015-05-18T10:44:01.150Z</time>
      </trkpt>
      <trkpt lat="44.1842" lon="5.28978">
        <ele>1237.27699968</ele>
        <time>2015-05-18T10:44:13.150Z</time>
      </trkpt>
      <trkpt lat="44.18408" lon="5.28962">
        <ele>1238</ele>
        <time>2015-05-18T10:44:25.150Z</time>
      </trkpt>
      <trkpt lat="44.18392" lon="5.28948">
        <ele>1238.67499904</ele>
        <time>2015-05-18T10:44:37.130Z</time>
      </trkpt>
      <trkpt lat="44.1838" lon="5.28938">
        <ele>1239</ele>
        <time>2015-05-18T10:44:49.120Z</time>
      </trkpt>
      <trkpt lat="44.18369" lon="5.28931">
        <ele>1241.07699968</ele>
        <time>2015-05-18T10:45:01.150Z</time>
      </trkpt>
      <trkpt lat="44.18358" lon="5.28927">
        <ele>1242.55399936</ele>
        <time>2015-05-18T10:45:13.150Z</time>
      </trkpt>
      <trkpt lat="44.18349" lon="5.28917">
        <ele>1244.57699968</ele>
        <time>2015-05-18T10:45:26.150Z</time>
      </trkpt>
      <trkpt lat="44.18342" lon="5.28906">
        <ele>1245.47499904</ele>
        <time>2015-05-18T10:45:35.130Z</time>
      </trkpt>
      <trkpt lat="44.18334" lon="5.28898">
        <ele>1246.54599936</ele>
        <time>2015-05-18T10:45:43.110Z</time>
      </trkpt>
      <trkpt lat="44.18325" lon="5.28883">
        <ele>1248.15199744</ele>
        <time>2015-05-18T10:45:51.140Z</time>
      </trkpt>
      <trkpt lat="44.18315" lon="5.28866">
        <ele>1250</ele>
        <time>2015-05-18T10:46:03.750Z</time>
      </trkpt>
      <trkpt lat="44.18314" lon="5.28852">
        <ele>1252</ele>
        <time>2015-05-18T10:46:24.940Z</time>
      </trkpt>
      <trkpt lat="44.18307" lon="5.28841">
        <ele>1252.14999808</ele>
        <time>2015-05-18T10:46:31.130Z</time>
      </trkpt>
      <trkpt lat="44.18302" lon="5.28827">
        <ele>1254.67499904</ele>
        <time>2015-05-18T10:46:47.130Z</time>
      </trkpt>
      <trkpt lat="44.18306" lon="5.28812">
        <ele>1255.74999808</ele>
        <time>2015-05-18T10:46:54.130Z</time>
      </trkpt>
      <trkpt lat="44.18306" lon="5.28796">
        <ele>1257.17499904</ele>
        <time>2015-05-18T10:47:02.130Z</time>
      </trkpt>
      <trkpt lat="44.18313" lon="5.28781">
        <ele>1258.77499904</ele>
        <time>2015-05-18T10:47:18.130Z</time>
      </trkpt>
      <trkpt lat="44.18324" lon="5.28772">
        <ele>1259.35799936</ele>
        <time>2015-05-18T10:47:33.960Z</time>
      </trkpt>
      <trkpt lat="44.18333" lon="5.28768">
        <ele>1260.27499904</ele>
        <time>2015-05-18T10:47:43.130Z</time>
      </trkpt>
      <trkpt lat="44.18342" lon="5.28758">
        <ele>1261.25499904</ele>
        <time>2015-05-18T10:47:52.930Z</time>
      </trkpt>
      <trkpt lat="44.18351" lon="5.28749">
        <ele>1262.57499904</ele>
        <time>2015-05-18T10:48:06.130Z</time>
      </trkpt>
      <trkpt lat="44.18361" lon="5.28746">
        <ele>1264.55399936</ele>
        <time>2015-05-18T10:48:18.150Z</time>
      </trkpt>
      <trkpt lat="44.1837" lon="5.28738">
        <ele>1265</ele>
        <time>2015-05-18T10:48:25.130Z</time>
      </trkpt>
      <trkpt lat="44.18379" lon="5.2873">
        <ele>1265.27499904</ele>
        <time>2015-05-18T10:48:33.130Z</time>
      </trkpt>
      <trkpt lat="44.18388" lon="5.28718">
        <ele>1266</ele>
        <time>2015-05-18T10:48:45.110Z</time>
      </trkpt>
      <trkpt lat="44.18396" lon="5.28707">
        <ele>1266.67499904</ele>
        <time>2015-05-18T10:48:57.130Z</time>
      </trkpt>
      <trkpt lat="44.18406" lon="5.28694">
        <ele>1267.87699968</ele>
        <time>2015-05-18T10:49:09.150Z</time>
      </trkpt>
      <trkpt lat="44.18414" lon="5.28677">
        <ele>1268</ele>
        <time>2015-05-18T10:49:21.150Z</time>
      </trkpt>
      <trkpt lat="44.18415" lon="5.28658">
        <ele>1268.27699968</ele>
        <time>2015-05-18T10:49:33.150Z</time>
      </trkpt>
      <trkpt lat="44.18416" lon="5.28642">
        <ele>1269.95599872</ele>
        <time>2015-05-18T10:49:45.160Z</time>
      </trkpt>
      <trkpt lat="44.1842" lon="5.28622">
        <ele>1272.91599872</ele>
        <time>2015-05-18T10:50:04.960Z</time>
      </trkpt>
      <trkpt lat="44.18424" lon="5.28604">
        <ele>1275.15399936</ele>
        <time>2015-05-18T10:50:16.150Z</time>
      </trkpt>
      <trkpt lat="44.18429" lon="5.28589">
        <ele>1276</ele>
        <time>2015-05-18T10:50:28.130Z</time>
      </trkpt>
      <trkpt lat="44.18431" lon="5.28575">
        <ele>1277.95399936</ele>
        <time>2015-05-18T10:50:40.150Z</time>
      </trkpt>
      <trkpt lat="44.18436" lon="5.28559">
        <ele>1281.15399936</ele>
        <time>2015-05-18T10:50:56.150Z</time>
      </trkpt>
      <trkpt lat="44.18438" lon="5.28543">
        <ele>1283.51399936</ele>
        <time>2015-05-18T10:51:07.950Z</time>
      </trkpt>
      <trkpt lat="44.18437" lon="5.28527">
        <ele>1284</ele>
        <time>2015-05-18T10:51:17.150Z</time>
      </trkpt>
      <trkpt lat="44.18433" lon="5.28512">
        <ele>1284.87499904</ele>
        <time>2015-05-18T10:51:39.130Z</time>
      </trkpt>
      <trkpt lat="44.18429" lon="5.28499">
        <ele>1286.47699968</ele>
        <time>2015-05-18T10:51:55.150Z</time>
      </trkpt>
      <trkpt lat="44.18427" lon="5.28483">
        <ele>1288.07699968</ele>
        <time>2015-05-18T10:52:11.150Z</time>
      </trkpt>
      <trkpt lat="44.18427" lon="5.28466">
        <ele>1289.55399936</ele>
        <time>2015-05-18T10:52:23.150Z</time>
      </trkpt>
      <trkpt lat="44.18425" lon="5.28453">
        <ele>1291.95399936</ele>
        <time>2015-05-18T10:52:35.150Z</time>
      </trkpt>
      <trkpt lat="44.18425" lon="5.28436">
        <ele>1294.55399936</ele>
        <time>2015-05-18T10:52:48.150Z</time>
      </trkpt>
      <trkpt lat="44.18423" lon="5.28419">
        <ele>1295</ele>
        <time>2015-05-18T10:53:00.150Z</time>
      </trkpt>
      <trkpt lat="44.18419" lon="5.28406">
        <ele>1296.35399936</ele>
        <time>2015-05-18T10:53:12.150Z</time>
      </trkpt>
      <trkpt lat="44.18414" lon="5.28393">
        <ele>1298.75399936</ele>
        <time>2015-05-18T10:53:24.150Z</time>
      </trkpt>
      <trkpt lat="44.18407" lon="5.28379">
        <ele>1301.94999808</ele>
        <time>2015-05-18T10:53:40.130Z</time>
      </trkpt>
      <trkpt lat="44.18403" lon="5.28362">
        <ele>1304.57699968</ele>
        <time>2015-05-18T10:53:56.150Z</time>
      </trkpt>
      <trkpt lat="44.184" lon="5.28345">
        <ele>1305.77699968</ele>
        <time>2015-05-18T10:54:08.150Z</time>
      </trkpt>
      <trkpt lat="44.18402" lon="5.28328">
        <ele>1308.54999808</ele>
        <time>2015-05-18T10:54:23.130Z</time>
      </trkpt>
      <trkpt lat="44.18406" lon="5.28312">
        <ele>1310</ele>
        <time>2015-05-18T10:54:35.140Z</time>
      </trkpt>
      <trkpt lat="44.1841" lon="5.28297">
        <ele>1311.35399936</ele>
        <time>2015-05-18T10:54:47.150Z</time>
      </trkpt>
      <trkpt lat="44.18412" lon="5.28279">
        <ele>1314.55399936</ele>
        <time>2015-05-18T10:55:03.150Z</time>
      </trkpt>
      <trkpt lat="44.18412" lon="5.28254">
        <ele>1318.74199808</ele>
        <time>2015-05-18T10:55:24.090Z</time>
      </trkpt>
      <trkpt lat="44.18413" lon="5.28238">
        <ele>1321.14999808</ele>
        <time>2015-05-18T10:55:36.130Z</time>
      </trkpt>
      <trkpt lat="44.18417" lon="5.28225">
        <ele>1322.77699968</ele>
        <time>2015-05-18T10:55:48.150Z</time>
      </trkpt>
      <trkpt lat="44.18429" lon="5.28226">
        <ele>1325.37699968</ele>
        <time>2015-05-18T10:56:04.150Z</time>
      </trkpt>
      <trkpt lat="44.18435" lon="5.28243">
        <ele>1326.97699968</ele>
        <time>2015-05-18T10:56:20.150Z</time>
      </trkpt>
      <trkpt lat="44.18443" lon="5.28259">
        <ele>1328.90999808</ele>
        <time>2015-05-18T10:56:34.930Z</time>
      </trkpt>
      <trkpt lat="44.18453" lon="5.28266">
        <ele>1330.34599936</ele>
        <time>2015-05-18T10:56:52.110Z</time>
      </trkpt>
      <trkpt lat="44.18465" lon="5.2827">
        <ele>1332.37499904</ele>
        <time>2015-05-18T10:57:04.130Z</time>
      </trkpt>
      <trkpt lat="44.18476" lon="5.28272">
        <ele>1333.57699968</ele>
        <time>2015-05-18T10:57:16.150Z</time>
      </trkpt>
      <trkpt lat="44.18488" lon="5.28276">
        <ele>1336.17699968</ele>
        <time>2015-05-18T10:57:32.150Z</time>
      </trkpt>
      <trkpt lat="44.18499" lon="5.28281">
        <ele>1337.37499904</ele>
        <time>2015-05-18T10:57:44.130Z</time>
      </trkpt>
      <trkpt lat="44.18508" lon="5.28286">
        <ele>1338.17699968</ele>
        <time>2015-05-18T10:57:52.150Z</time>
      </trkpt>
      <trkpt lat="44.18522" lon="5.28286">
        <ele>1339.87499904</ele>
        <time>2015-05-18T10:58:09.130Z</time>
      </trkpt>
      <trkpt lat="44.18534" lon="5.2829">
        <ele>1342.47699968</ele>
        <time>2015-05-18T10:58:25.150Z</time>
      </trkpt>
      <trkpt lat="44.18544" lon="5.28297">
        <ele>1344.92300032</ele>
        <time>2015-05-18T10:58:41.150Z</time>
      </trkpt>
      <trkpt lat="44.18555" lon="5.28301">
        <ele>1344.2767230455</ele>
        <time>2015-05-18T10:58:53.150Z</time>
      </trkpt>
      <trkpt lat="44.18564" lon="5.28298">
        <ele>1344.35399936</ele>
        <time>2015-05-18T10:59:17.150Z</time>
      </trkpt>
      <trkpt lat="44.18571" lon="5.28288">
        <ele>1346.75399936</ele>
        <time>2015-05-18T10:59:29.150Z</time>
      </trkpt>
      <trkpt lat="44.18579" lon="5.28276">
        <ele>1349.07699968</ele>
        <time>2015-05-18T10:59:41.150Z</time>
      </trkpt>
      <trkpt lat="44.18586" lon="5.28266">
        <ele>1350</ele>
        <time>2015-05-18T10:59:57.150Z</time>
      </trkpt>
      <trkpt lat="44.18595" lon="5.28273">
        <ele>1354</ele>
        <time>2015-05-18T11:01:37.150Z</time>
      </trkpt>
      <trkpt lat="44.18618" lon="5.28295">
        <ele>1353.12500096</ele>
        <time>2015-05-18T11:02:09.130Z</time>
      </trkpt>
      <trkpt lat="44.18603" lon="5.28281">
        <ele>1353.82300032</ele>
        <time>2015-05-18T11:02:42.150Z</time>
      </trkpt>
      <trkpt lat="44.18592" lon="5.28276">
        <ele>1353.07399936</ele>
        <time>2015-05-18T11:02:50.750Z</time>
      </trkpt>
      <trkpt lat="44.18582" lon="5.28272">
        <ele>1354.60300032</ele>
        <time>2015-05-18T11:03:04.350Z</time>
      </trkpt>
      <trkpt lat="44.18581" lon="5.28287">
        <ele>1354</ele>
        <time>2015-05-18T11:03:15.660Z</time>
      </trkpt>
      <trkpt lat="44.18592" lon="5.28279">
        <ele>1354</ele>
        <time>2015-05-18T11:03:51.650Z</time>
      </trkpt>
      <trkpt lat="44.18604" lon="5.28286">
        <ele>1353</ele>
        <time>2015-05-18T11:05:27.150Z</time>
      </trkpt>
      <trkpt lat="44.18613" lon="5.28274">
        <ele>1355</ele>
        <time>2015-05-18T11:07:53.110Z</time>
      </trkpt>
      <trkpt lat="44.18603" lon="5.28282">
        <ele>1355</ele>
        <time>2015-05-18T11:08:17.150Z</time>
      </trkpt>
      <trkpt lat="44.18593" lon="5.28278">
        <ele>1355</ele>
        <time>2015-05-18T11:08:50.150Z</time>
      </trkpt>
      <trkpt lat="44.18604" lon="5.28274">
        <ele>1354.35399936</ele>
        <time>2015-05-18T11:09:47.150Z</time>
      </trkpt>
      <trkpt lat="44.18606" lon="5.28288">
        <ele>1353</ele>
        <time>2015-05-18T11:10:15.150Z</time>
      </trkpt>
      <trkpt lat="44.18594" lon="5.28282">
        <ele>1353.97499904</ele>
        <time>2015-05-18T11:10:40.130Z</time>
      </trkpt>
      <trkpt lat="44.18581" lon="5.28275">
        <ele>1354</ele>
        <time>2015-05-18T11:10:56.650Z</time>
      </trkpt>
      <trkpt lat="44.18592" lon="5.28274">
        <ele>1355</ele>
        <time>2015-05-18T11:11:31.110Z</time>
      </trkpt>
      <trkpt lat="44.186" lon="5.28289">
        <ele>1354.17699968</ele>
        <time>2015-05-18T11:12:02.150Z</time>
      </trkpt>
      <trkpt lat="44.18589" lon="5.28292">
        <ele>1355.03699968</ele>
        <time>2015-05-18T11:12:50.750Z</time>
      </trkpt>
      <trkpt lat="44.18576" lon="5.28292">
        <ele>1357.74999808</ele>
        <time>2015-05-18T11:13:09.130Z</time>
      </trkpt>
      <trkpt lat="44.18565" lon="5.2829">
        <ele>1359</ele>
        <time>2015-05-18T11:13:21.130Z</time>
      </trkpt>
      <trkpt lat="44.18559" lon="5.28279">
        <ele>1358.72500096</ele>
        <time>2015-05-18T11:13:33.130Z</time>
      </trkpt>
      <trkpt lat="44.18551" lon="5.28266">
        <ele>1358.87399936</ele>
        <time>2015-05-18T11:13:44.750Z</time>
      </trkpt>
      <trkpt lat="44.18541" lon="5.28262">
        <ele>1360.27699968</ele>
        <time>2015-05-18T11:13:53.150Z</time>
      </trkpt>
      <trkpt lat="44.18532" lon="5.28249">
        <ele>1361.05399808</ele>
        <time>2015-05-18T11:14:00.650Z</time>
      </trkpt>
      <trkpt lat="44.18522" lon="5.28254">
        <ele>1365</ele>
        <time>2015-05-18T11:14:34.150Z</time>
      </trkpt>
      <trkpt lat="44.18528" lon="5.28237">
        <ele>1366.62300032</ele>
        <time>2015-05-18T11:15:04.150Z</time>
      </trkpt>
      <trkpt lat="44.1852" lon="5.2823">
        <ele>1366.59699968</ele>
        <time>2015-05-18T11:15:16.350Z</time>
      </trkpt>
      <trkpt lat="44.18509" lon="5.28221">
        <ele>1369.25499904</ele>
        <time>2015-05-18T11:15:32.930Z</time>
      </trkpt>
      <trkpt lat="44.18494" lon="5.28206">
        <ele>1371.17299968</ele>
        <time>2015-05-18T11:15:52.110Z</time>
      </trkpt>
      <trkpt lat="44.18489" lon="5.28188">
        <ele>1374.32499712</ele>
        <time>2015-05-18T11:16:08.130Z</time>
      </trkpt>
      <trkpt lat="44.18484" lon="5.28176">
        <ele>1375</ele>
        <time>2015-05-18T11:16:16.150Z</time>
      </trkpt>
      <trkpt lat="44.18478" lon="5.2816">
        <ele>1375</ele>
        <time>2015-05-18T11:16:28.150Z</time>
      </trkpt>
      <trkpt lat="44.18473" lon="5.28148">
        <ele>1376.15399936</ele>
        <time>2015-05-18T11:16:36.150Z</time>
      </trkpt>
      <trkpt lat="44.18465" lon="5.28133">
        <ele>1377.47699968</ele>
        <time>2015-05-18T11:16:45.150Z</time>
      </trkpt>
      <trkpt lat="44.18459" lon="5.28119">
        <ele>1378</ele>
        <time>2015-05-18T11:16:52.920Z</time>
      </trkpt>
      <trkpt lat="44.18454" lon="5.28104">
        <ele>1378</ele>
        <time>2015-05-18T11:18:38.150Z</time>
      </trkpt>
      <trkpt lat="44.18446" lon="5.28094">
        <ele>1379.15399936</ele>
        <time>2015-05-18T11:18:46.150Z</time>
      </trkpt>
      <trkpt lat="44.18438" lon="5.28087">
        <ele>1380</ele>
        <time>2015-05-18T11:18:58.150Z</time>
      </trkpt>
      <trkpt lat="44.18426" lon="5.28087">
        <ele>1380.57699968</ele>
        <time>2015-05-18T11:19:06.150Z</time>
      </trkpt>
      <trkpt lat="44.18418" lon="5.2808">
        <ele>1379.82300032</ele>
        <time>2015-05-18T11:19:22.150Z</time>
      </trkpt>
      <trkpt lat="44.18411" lon="5.28075">
        <ele>1378.62300032</ele>
        <time>2015-05-18T11:19:34.150Z</time>
      </trkpt>
      <trkpt lat="44.18401" lon="5.28072">
        <ele>1377.42300032</ele>
        <time>2015-05-18T11:19:46.150Z</time>
      </trkpt>
      <trkpt lat="44.18389" lon="5.2807">
        <ele>1377</ele>
        <time>2015-05-18T11:19:54.150Z</time>
      </trkpt>
      <trkpt lat="44.18379" lon="5.28064">
        <ele>1377.26499968</ele>
        <time>2015-05-18T11:20:03.030Z</time>
      </trkpt>
      <trkpt lat="44.18366" lon="5.28056">
        <ele>1378.72599808</ele>
        <time>2015-05-18T11:20:14.010Z</time>
      </trkpt>
      <trkpt lat="44.18357" lon="5.28046">
        <ele>1380.72999936</ele>
        <time>2015-05-18T11:20:24.030Z</time>
      </trkpt>
      <trkpt lat="44.18344" lon="5.2804">
        <ele>1382.56499968</ele>
        <time>2015-05-18T11:20:36.030Z</time>
      </trkpt>
      <trkpt lat="44.18341" lon="5.28057">
        <ele>1385.98699904</ele>
        <time>2015-05-18T11:21:00.250Z</time>
      </trkpt>
      <trkpt lat="44.18342" lon="5.28071">
        <ele>1386</ele>
        <time>2015-05-18T11:21:08.250Z</time>
      </trkpt>
      <trkpt lat="44.18341" lon="5.28085">
        <ele>1386</ele>
        <time>2015-05-18T11:21:20.250Z</time>
      </trkpt>
      <trkpt lat="44.18338" lon="5.281">
        <ele>1387.18699904</ele>
        <time>2015-05-18T11:21:32.250Z</time>
      </trkpt>
      <trkpt lat="44.18337" lon="5.28114">
        <ele>1388.09399808</ele>
        <time>2015-05-18T11:21:40.850Z</time>
      </trkpt>
      <trkpt lat="44.18333" lon="5.28131">
        <ele>1390.28599936</ele>
        <time>2015-05-18T11:21:53.240Z</time>
      </trkpt>
      <trkpt lat="44.18327" lon="5.28148">
        <ele>1391.93599744</ele>
        <time>2015-05-18T11:22:05.060Z</time>
      </trkpt>
      <trkpt lat="44.18321" lon="5.28163">
        <ele>1393.26699904</ele>
        <time>2015-05-18T11:22:13.050Z</time>
      </trkpt>
      <trkpt lat="44.18313" lon="5.28176">
        <ele>1394</ele>
        <time>2015-05-18T11:22:23.030Z</time>
      </trkpt>
      <trkpt lat="44.18303" lon="5.2819">
        <ele>1394.93399808</ele>
        <time>2015-05-18T11:22:35.050Z</time>
      </trkpt>
      <trkpt lat="44.18293" lon="5.28194">
        <ele>1396.26699904</ele>
        <time>2015-05-18T11:22:43.050Z</time>
      </trkpt>
      <trkpt lat="44.18282" lon="5.28197">
        <ele>1397</ele>
        <time>2015-05-18T11:22:54.020Z</time>
      </trkpt>
      <trkpt lat="44.18274" lon="5.28209">
        <ele>1397.36299904</ele>
        <time>2015-05-18T11:23:04.010Z</time>
      </trkpt>
      <trkpt lat="44.18266" lon="5.28221">
        <ele>1398.56699904</ele>
        <time>2015-05-18T11:23:16.050Z</time>
      </trkpt>
      <trkpt lat="44.18253" lon="5.28225">
        <ele>1399</ele>
        <time>2015-05-18T11:23:24.250Z</time>
      </trkpt>
      <trkpt lat="44.18244" lon="5.28237">
        <ele>1399</ele>
        <time>2015-05-18T11:23:34.050Z</time>
      </trkpt>
      <trkpt lat="44.18238" lon="5.28249">
        <ele>1400.76999936</ele>
        <time>2015-05-18T11:23:49.230Z</time>
      </trkpt>
      <trkpt lat="44.18237" lon="5.28265">
        <ele>1402.37399808</ele>
        <time>2015-05-18T11:23:57.250Z</time>
      </trkpt>
      <trkpt lat="44.18236" lon="5.28284">
        <ele>1403</ele>
        <time>2015-05-18T11:24:13.250Z</time>
      </trkpt>
      <trkpt lat="44.18245" lon="5.28297">
        <ele>1406</ele>
        <time>2015-05-18T11:24:45.050Z</time>
      </trkpt>
      <trkpt lat="44.18254" lon="5.28316">
        <ele>1406.66699904</ele>
        <time>2015-05-18T11:24:57.050Z</time>
      </trkpt>
      <trkpt lat="44.18257" lon="5.28331">
        <ele>1407.86699904</ele>
        <time>2015-05-18T11:25:09.050Z</time>
      </trkpt>
      <trkpt lat="44.18259" lon="5.28348">
        <ele>1408.86699904</ele>
        <time>2015-05-18T11:25:19.050Z</time>
      </trkpt>
      <trkpt lat="44.18262" lon="5.28365">
        <ele>1410.37399808</ele>
        <time>2015-05-18T11:25:27.250Z</time>
      </trkpt>
      <trkpt lat="44.18263" lon="5.28383">
        <ele>1410.41300096</ele>
        <time>2015-05-18T11:25:36.250Z</time>
      </trkpt>
      <trkpt lat="44.18267" lon="5.28398">
        <ele>1409.31300096</ele>
        <time>2015-05-18T11:25:47.250Z</time>
      </trkpt>
      <trkpt lat="44.18265" lon="5.28413">
        <ele>1409.44299904</ele>
        <time>2015-05-18T11:25:54.810Z</time>
      </trkpt>
      <trkpt lat="44.18264" lon="5.28432">
        <ele>1411.76099712</ele>
        <time>2015-05-18T11:26:06.250Z</time>
      </trkpt>
      <trkpt lat="44.18264" lon="5.28447">
        <ele>1413.86499968</ele>
        <time>2015-05-18T11:26:19.030Z</time>
      </trkpt>
      <trkpt lat="44.18266" lon="5.28462">
        <ele>1414.66699904</ele>
        <time>2015-05-18T11:26:27.050Z</time>
      </trkpt>
      <trkpt lat="44.1826" lon="5.28477">
        <ele>1417</ele>
        <time>2015-05-18T11:26:43.050Z</time>
      </trkpt>
      <trkpt lat="44.18247" lon="5.28481">
        <ele>1417</ele>
        <time>2015-05-18T11:26:55.050Z</time>
      </trkpt>
      <trkpt lat="44.18224" lon="5.2847">
        <ele>1417.86499968</ele>
        <time>2015-05-18T11:27:09.030Z</time>
      </trkpt>
      <trkpt lat="44.18213" lon="5.28467">
        <ele>1419.32999936</ele>
        <time>2015-05-18T11:27:17.030Z</time>
      </trkpt>
      <trkpt lat="44.18208" lon="5.28453">
        <ele>1421.13399808</ele>
        <time>2015-05-18T11:27:41.050Z</time>
      </trkpt>
      <trkpt lat="44.18194" lon="5.28453">
        <ele>1428.26499968</ele>
        <time>2015-05-18T11:28:23.030Z</time>
      </trkpt>
      <trkpt lat="44.18183" lon="5.28459">
        <ele>1429</ele>
        <time>2015-05-18T11:28:35.230Z</time>
      </trkpt>
      <trkpt lat="44.18174" lon="5.28466">
        <ele>1430.32999936</ele>
        <time>2015-05-18T11:28:47.030Z</time>
      </trkpt>
      <trkpt lat="44.18162" lon="5.28472">
        <ele>1432.92999936</ele>
        <time>2015-05-18T11:29:00.030Z</time>
      </trkpt>
      <trkpt lat="44.18155" lon="5.28483">
        <ele>1434.18699904</ele>
        <time>2015-05-18T11:29:12.250Z</time>
      </trkpt>
      <trkpt lat="44.1815" lon="5.28497">
        <ele>1436.53399808</ele>
        <time>2015-05-18T11:29:28.050Z</time>
      </trkpt>
      <trkpt lat="44.18142" lon="5.28512">
        <ele>1438.16499968</ele>
        <time>2015-05-18T11:29:42.030Z</time>
      </trkpt>
      <trkpt lat="44.18135" lon="5.28524">
        <ele>1440.57399808</ele>
        <time>2015-05-18T11:29:58.250Z</time>
      </trkpt>
      <trkpt lat="44.18124" lon="5.28532">
        <ele>1441.58699904</ele>
        <time>2015-05-18T11:30:06.250Z</time>
      </trkpt>
      <trkpt lat="44.18114" lon="5.2854">
        <ele>1442.73399808</ele>
        <time>2015-05-18T11:30:14.050Z</time>
      </trkpt>
      <trkpt lat="44.18101" lon="5.28547">
        <ele>1444.36499968</ele>
        <time>2015-05-18T11:30:24.030Z</time>
      </trkpt>
      <trkpt lat="44.1809" lon="5.28554">
        <ele>1445.56699904</ele>
        <time>2015-05-18T11:30:36.050Z</time>
      </trkpt>
      <trkpt lat="44.18079" lon="5.28565">
        <ele>1447.53399808</ele>
        <time>2015-05-18T11:30:48.050Z</time>
      </trkpt>
      <trkpt lat="44.18069" lon="5.2857">
        <ele>1449.93399808</ele>
        <time>2015-05-18T11:31:00.050Z</time>
      </trkpt>
      <trkpt lat="44.1806" lon="5.28575">
        <ele>1451</ele>
        <time>2015-05-18T11:31:28.050Z</time>
      </trkpt>
      <trkpt lat="44.1805" lon="5.28584">
        <ele>1452.06499968</ele>
        <time>2015-05-18T11:31:51.030Z</time>
      </trkpt>
      <trkpt lat="44.18035" lon="5.28603">
        <ele>1454.52199936</ele>
        <time>2015-05-18T11:32:12.990Z</time>
      </trkpt>
      <trkpt lat="44.18025" lon="5.2861">
        <ele>1456.66499968</ele>
        <time>2015-05-18T11:32:27.030Z</time>
      </trkpt>
      <trkpt lat="44.18019" lon="5.28596">
        <ele>1459.33399808</ele>
        <time>2015-05-18T11:32:47.050Z</time>
      </trkpt>
      <trkpt lat="44.18022" lon="5.28581">
        <ele>1460.76499968</ele>
        <time>2015-05-18T11:32:58.030Z</time>
      </trkpt>
      <trkpt lat="44.18028" lon="5.28566">
        <ele>1462.93399808</ele>
        <time>2015-05-18T11:33:10.050Z</time>
      </trkpt>
      <trkpt lat="44.18035" lon="5.28556">
        <ele>1464</ele>
        <time>2015-05-18T11:33:22.050Z</time>
      </trkpt>
      <trkpt lat="44.18042" lon="5.28545">
        <ele>1464.36699904</ele>
        <time>2015-05-18T11:33:34.050Z</time>
      </trkpt>
      <trkpt lat="44.18049" lon="5.28531">
        <ele>1466.13399808</ele>
        <time>2015-05-18T11:33:46.050Z</time>
      </trkpt>
      <trkpt lat="44.18056" lon="5.28519">
        <ele>1467.78499968</ele>
        <time>2015-05-18T11:33:58.230Z</time>
      </trkpt>
      <trkpt lat="44.18064" lon="5.28509">
        <ele>1470</ele>
        <time>2015-05-18T11:34:14.260Z</time>
      </trkpt>
      <trkpt lat="44.18068" lon="5.28496">
        <ele>1471.06499968</ele>
        <time>2015-05-18T11:34:51.030Z</time>
      </trkpt>
      <trkpt lat="44.18076" lon="5.28482">
        <ele>1471.48699904</ele>
        <time>2015-05-18T11:35:15.250Z</time>
      </trkpt>
      <trkpt lat="44.18081" lon="5.2847">
        <ele>1472.68699904</ele>
        <time>2015-05-18T11:35:27.250Z</time>
      </trkpt>
      <trkpt lat="44.18086" lon="5.28457">
        <ele>1474.93199872</ele>
        <time>2015-05-18T11:35:40.040Z</time>
      </trkpt>
      <trkpt lat="44.18092" lon="5.28437">
        <ele>1475.92999936</ele>
        <time>2015-05-18T11:35:55.030Z</time>
      </trkpt>
      <trkpt lat="44.18096" lon="5.28424">
        <ele>1478.32999936</ele>
        <time>2015-05-18T11:36:07.030Z</time>
      </trkpt>
      <trkpt lat="44.18099" lon="5.28409">
        <ele>1480.57399808</ele>
        <time>2015-05-18T11:36:23.250Z</time>
      </trkpt>
      <trkpt lat="44.18103" lon="5.28394">
        <ele>1482.46699904</ele>
        <time>2015-05-18T11:36:35.050Z</time>
      </trkpt>
      <trkpt lat="44.18102" lon="5.28378">
        <ele>1483.66699904</ele>
        <time>2015-05-18T11:36:47.050Z</time>
      </trkpt>
      <trkpt lat="44.181" lon="5.2836">
        <ele>1485.73399808</ele>
        <time>2015-05-18T11:36:59.050Z</time>
      </trkpt>
      <trkpt lat="44.181" lon="5.28343">
        <ele>1486.36299904</ele>
        <time>2015-05-18T11:37:14.010Z</time>
      </trkpt>
      <trkpt lat="44.18097" lon="5.2833">
        <ele>1487.92999936</ele>
        <time>2015-05-18T11:37:25.030Z</time>
      </trkpt>
      <trkpt lat="44.18089" lon="5.28314">
        <ele>1489</ele>
        <time>2015-05-18T11:37:39.230Z</time>
      </trkpt>
      <trkpt lat="44.18088" lon="5.28299">
        <ele>1490.13399808</ele>
        <time>2015-05-18T11:37:51.050Z</time>
      </trkpt>
      <trkpt lat="44.18085" lon="5.28286">
        <ele>1492.53399808</ele>
        <time>2015-05-18T11:38:03.050Z</time>
      </trkpt>
      <trkpt lat="44.18079" lon="5.28272">
        <ele>1494</ele>
        <time>2015-05-18T11:38:15.050Z</time>
      </trkpt>
      <trkpt lat="44.18074" lon="5.28258">
        <ele>1494.66699904</ele>
        <time>2015-05-18T11:38:27.050Z</time>
      </trkpt>
      <trkpt lat="44.18069" lon="5.28244">
        <ele>1498</ele>
        <time>2015-05-18T11:38:55.050Z</time>
      </trkpt>
      <trkpt lat="44.18074" lon="5.28225">
        <ele>1498</ele>
        <time>2015-05-18T11:39:11.050Z</time>
      </trkpt>
      <trkpt lat="44.18077" lon="5.2821">
        <ele>1498.53399808</ele>
        <time>2015-05-18T11:39:23.050Z</time>
      </trkpt>
      <trkpt lat="44.18079" lon="5.28195">
        <ele>1500.46699904</ele>
        <time>2015-05-18T11:39:35.050Z</time>
      </trkpt>
      <trkpt lat="44.18082" lon="5.28178">
        <ele>1501.66699904</ele>
        <time>2015-05-18T11:39:47.050Z</time>
      </trkpt>
      <trkpt lat="44.18084" lon="5.28163">
        <ele>1502.88699904</ele>
        <time>2015-05-18T11:39:59.250Z</time>
      </trkpt>
      <trkpt lat="44.18086" lon="5.28142">
        <ele>1505.26499968</ele>
        <time>2015-05-18T11:40:13.030Z</time>
      </trkpt>
      <trkpt lat="44.1809" lon="5.28127">
        <ele>1506.06299904</ele>
        <time>2015-05-18T11:40:21.010Z</time>
      </trkpt>
      <trkpt lat="44.18088" lon="5.28109">
        <ele>1507.56499968</ele>
        <time>2015-05-18T11:40:36.030Z</time>
      </trkpt>
      <trkpt lat="44.18089" lon="5.28092">
        <ele>1509.53399808</ele>
        <time>2015-05-18T11:40:48.050Z</time>
      </trkpt>
      <trkpt lat="44.18089" lon="5.28075">
        <ele>1510.96699904</ele>
        <time>2015-05-18T11:41:00.050Z</time>
      </trkpt>
      <trkpt lat="44.18091" lon="5.28061">
        <ele>1512.56699904</ele>
        <time>2015-05-18T11:41:16.050Z</time>
      </trkpt>
      <trkpt lat="44.18087" lon="5.28045">
        <ele>1515.16699904</ele>
        <time>2015-05-18T11:41:32.050Z</time>
      </trkpt>
      <trkpt lat="44.18087" lon="5.28062">
        <ele>1519.78699904</ele>
        <time>2015-05-18T11:42:08.250Z</time>
      </trkpt>
      <trkpt lat="44.18084" lon="5.28079">
        <ele>1521.73399808</ele>
        <time>2015-05-18T11:42:24.050Z</time>
      </trkpt>
      <trkpt lat="44.1808" lon="5.28092">
        <ele>1523.56699904</ele>
        <time>2015-05-18T11:42:36.050Z</time>
      </trkpt>
      <trkpt lat="44.18076" lon="5.28106">
        <ele>1524.7862130785</ele>
        <time>2015-05-18T11:42:48.250Z</time>
      </trkpt>
      <trkpt lat="44.18071" lon="5.2812">
        <ele>1526.9339320332</ele>
        <time>2015-05-18T11:43:00.050Z</time>
      </trkpt>
      <trkpt lat="44.18068" lon="5.28133">
        <ele>1527</ele>
        <time>2015-05-18T11:43:12.050Z</time>
      </trkpt>
      <trkpt lat="44.18062" lon="5.2815">
        <ele>1527.73399808</ele>
        <time>2015-05-18T11:43:24.050Z</time>
      </trkpt>
      <trkpt lat="44.18057" lon="5.28163">
        <ele>1529.56699904</ele>
        <time>2015-05-18T11:43:36.050Z</time>
      </trkpt>
      <trkpt lat="44.18051" lon="5.28175">
        <ele>1531.18699904</ele>
        <time>2015-05-18T11:43:52.250Z</time>
      </trkpt>
      <trkpt lat="44.18042" lon="5.28182">
        <ele>1533.57399808</ele>
        <time>2015-05-18T11:44:08.250Z</time>
      </trkpt>
      <trkpt lat="44.18035" lon="5.28197">
        <ele>1534</ele>
        <time>2015-05-18T11:44:20.250Z</time>
      </trkpt>
      <trkpt lat="44.18026" lon="5.28211">
        <ele>1536</ele>
        <time>2015-05-18T11:44:36.050Z</time>
      </trkpt>
      <trkpt lat="44.18019" lon="5.28223">
        <ele>1536</ele>
        <time>2015-05-18T11:44:48.050Z</time>
      </trkpt>
      <trkpt lat="44.18012" lon="5.28239">
        <ele>1537.73399808</ele>
        <time>2015-05-18T11:45:04.050Z</time>
      </trkpt>
      <trkpt lat="44.1801" lon="5.28256">
        <ele>1539</ele>
        <time>2015-05-18T11:45:17.050Z</time>
      </trkpt>
      <trkpt lat="44.18" lon="5.28251">
        <ele>1542</ele>
        <time>2015-05-18T11:46:06.050Z</time>
      </trkpt>
      <trkpt lat="44.18002" lon="5.28265">
        <ele>1540.43300096</ele>
        <time>2015-05-18T11:46:46.050Z</time>
      </trkpt>
      <trkpt lat="44.1801" lon="5.28254">
        <ele>1541</ele>
        <time>2015-05-18T11:47:56.030Z</time>
      </trkpt>
      <trkpt lat="44.18018" lon="5.28263">
        <ele>1540</ele>
        <time>2015-05-18T11:49:20.230Z</time>
      </trkpt>
      <trkpt lat="44.18013" lon="5.28251">
        <ele>1540</ele>
        <time>2015-05-18T11:51:48.030Z</time>
      </trkpt>
      <trkpt lat="44.18013" lon="5.28267">
        <ele>1539.36499968</ele>
        <time>2015-05-18T11:53:14.030Z</time>
      </trkpt>
      <trkpt lat="44.18003" lon="5.28268">
        <ele>1541.33500032</ele>
        <time>2015-05-18T11:54:47.030Z</time>
      </trkpt>
      <trkpt lat="44.18012" lon="5.28252">
        <ele>1540</ele>
        <time>2015-05-18T11:55:03.050Z</time>
      </trkpt>
      <trkpt lat="44.18014" lon="5.28265">
        <ele>1541</ele>
        <time>2015-05-18T11:56:33.050Z</time>
      </trkpt>
      <trkpt lat="44.18014" lon="5.2825">
        <ele>1540.13500032</ele>
        <time>2015-05-18T11:57:59.030Z</time>
      </trkpt>
      <trkpt lat="44.18014" lon="5.28264">
        <ele>1541</ele>
        <time>2015-05-18T11:59:52.030Z</time>
      </trkpt>
      <trkpt lat="44.18016" lon="5.28277">
        <ele>1541</ele>
        <time>2015-05-18T12:00:12.010Z</time>
      </trkpt>
      <trkpt lat="44.18016" lon="5.28295">
        <ele>1541</ele>
        <time>2015-05-18T12:00:35.050Z</time>
      </trkpt>
      <trkpt lat="44.18015" lon="5.28318">
        <ele>1541</ele>
        <time>2015-05-18T12:00:53.030Z</time>
      </trkpt>
      <trkpt lat="44.18021" lon="5.28336">
        <ele>1544.98999808</ele>
        <time>2015-05-18T12:01:07.030Z</time>
      </trkpt>
      <trkpt lat="44.1802" lon="5.28352">
        <ele>1547</ele>
        <time>2015-05-18T12:01:19.050Z</time>
      </trkpt>
      <trkpt lat="44.18018" lon="5.28372">
        <ele>1549</ele>
        <time>2015-05-18T12:01:36.010Z</time>
      </trkpt>
      <trkpt lat="44.18009" lon="5.2839">
        <ele>1552.43500032</ele>
        <time>2015-05-18T12:02:06.030Z</time>
      </trkpt>
      <trkpt lat="44.18001" lon="5.28401">
        <ele>1552.16699904</ele>
        <time>2015-05-18T12:02:22.050Z</time>
      </trkpt>
      <trkpt lat="44.17992" lon="5.2841">
        <ele>1553.36699904</ele>
        <time>2015-05-18T12:02:34.050Z</time>
      </trkpt>
      <trkpt lat="44.17983" lon="5.28417">
        <ele>1555.13399808</ele>
        <time>2015-05-18T12:02:46.050Z</time>
      </trkpt>
      <trkpt lat="44.17974" lon="5.28423">
        <ele>1557.16699904</ele>
        <time>2015-05-18T12:03:02.050Z</time>
      </trkpt>
      <trkpt lat="44.17965" lon="5.2843">
        <ele>1558.73399808</ele>
        <time>2015-05-18T12:03:14.050Z</time>
      </trkpt>
      <trkpt lat="44.17955" lon="5.28437">
        <ele>1560.56699904</ele>
        <time>2015-05-18T12:03:26.050Z</time>
      </trkpt>
      <trkpt lat="44.17943" lon="5.28445">
        <ele>1562.53399808</ele>
        <time>2015-05-18T12:03:38.050Z</time>
      </trkpt>
      <trkpt lat="44.17932" lon="5.28453">
        <ele>1564.93399808</ele>
        <time>2015-05-18T12:03:50.050Z</time>
      </trkpt>
      <trkpt lat="44.17919" lon="5.28462">
        <ele>1566.16699904</ele>
        <time>2015-05-18T12:04:02.050Z</time>
      </trkpt>
      <trkpt lat="44.17907" lon="5.28468">
        <ele>1567.73399808</ele>
        <time>2015-05-18T12:04:14.050Z</time>
      </trkpt>
      <trkpt lat="44.17895" lon="5.28473">
        <ele>1569.16699904</ele>
        <time>2015-05-18T12:04:22.050Z</time>
      </trkpt>
      <trkpt lat="44.17884" lon="5.28471">
        <ele>1570.33399808</ele>
        <time>2015-05-18T12:04:42.050Z</time>
      </trkpt>
      <trkpt lat="44.17873" lon="5.28468">
        <ele>1572.36699904</ele>
        <time>2015-05-18T12:04:54.050Z</time>
      </trkpt>
      <trkpt lat="44.17861" lon="5.28468">
        <ele>1574.11599872</ele>
        <time>2015-05-18T12:05:05.960Z</time>
      </trkpt>
      <trkpt lat="44.17848" lon="5.28471">
        <ele>1575</ele>
        <time>2015-05-18T12:05:18.050Z</time>
      </trkpt>
      <trkpt lat="44.17837" lon="5.28472">
        <ele>1576.736</ele>
        <time>2015-05-18T12:05:34.060Z</time>
      </trkpt>
      <trkpt lat="44.17836" lon="5.28454">
        <ele>1583.26299904</ele>
        <time>2015-05-18T12:06:13.010Z</time>
      </trkpt>
      <trkpt lat="44.17847" lon="5.28448">
        <ele>1585.73399808</ele>
        <time>2015-05-18T12:06:29.050Z</time>
      </trkpt>
      <trkpt lat="44.17856" lon="5.28442">
        <ele>1587.13399808</ele>
        <time>2015-05-18T12:06:41.050Z</time>
      </trkpt>
      <trkpt lat="44.17868" lon="5.28435">
        <ele>1589.72799744</ele>
        <time>2015-05-18T12:06:54.020Z</time>
      </trkpt>
      <trkpt lat="44.17879" lon="5.28435">
        <ele>1591</ele>
        <time>2015-05-18T12:07:02.030Z</time>
      </trkpt>
      <trkpt lat="44.17891" lon="5.28431">
        <ele>1591.36499968</ele>
        <time>2015-05-18T12:07:14.030Z</time>
      </trkpt>
      <trkpt lat="44.17901" lon="5.2842">
        <ele>1592</ele>
        <time>2015-05-18T12:07:30.050Z</time>
      </trkpt>
      <trkpt lat="44.17907" lon="5.28405">
        <ele>1594</ele>
        <time>2015-05-18T12:07:46.060Z</time>
      </trkpt>
      <trkpt lat="44.17915" lon="5.28395">
        <ele>1594.76699904</ele>
        <time>2015-05-18T12:07:58.050Z</time>
      </trkpt>
      <trkpt lat="44.17922" lon="5.28385">
        <ele>1595.96699904</ele>
        <time>2015-05-18T12:08:10.050Z</time>
      </trkpt>
      <trkpt lat="44.17928" lon="5.28371">
        <ele>1598.16699904</ele>
        <time>2015-05-18T12:08:22.050Z</time>
      </trkpt>
      <trkpt lat="44.17934" lon="5.28359">
        <ele>1598.96699904</ele>
        <time>2015-05-18T12:08:30.050Z</time>
      </trkpt>
      <trkpt lat="44.17935" lon="5.28343">
        <ele>1600.26599936</ele>
        <time>2015-05-18T12:08:43.040Z</time>
      </trkpt>
      <trkpt lat="44.17932" lon="5.28326">
        <ele>1602.40099712</ele>
        <time>2015-05-18T12:08:55.050Z</time>
      </trkpt>
      <trkpt lat="44.17926" lon="5.28314">
        <ele>1605.37399808</ele>
        <time>2015-05-18T12:09:07.250Z</time>
      </trkpt>
      <trkpt lat="44.1792" lon="5.283">
        <ele>1607.06599936</ele>
        <time>2015-05-18T12:09:21.040Z</time>
      </trkpt>
      <trkpt lat="44.17917" lon="5.28282">
        <ele>1608.26299904</ele>
        <time>2015-05-18T12:09:33.010Z</time>
      </trkpt>
      <trkpt lat="44.1791" lon="5.28271">
        <ele>1609.52999936</ele>
        <time>2015-05-18T12:09:43.030Z</time>
      </trkpt>
      <trkpt lat="44.17903" lon="5.28254">
        <ele>1611.92999936</ele>
        <time>2015-05-18T12:09:55.030Z</time>
      </trkpt>
      <trkpt lat="44.17895" lon="5.28241">
        <ele>1613</ele>
        <time>2015-05-18T12:10:07.030Z</time>
      </trkpt>
      <trkpt lat="44.17888" lon="5.28223">
        <ele>1615.26299904</ele>
        <time>2015-05-18T12:10:23.010Z</time>
      </trkpt>
      <trkpt lat="44.17884" lon="5.28207">
        <ele>1617.53199872</ele>
        <time>2015-05-18T12:10:38.040Z</time>
      </trkpt>
      <trkpt lat="44.17885" lon="5.2819">
        <ele>1618.96499968</ele>
        <time>2015-05-18T12:10:50.030Z</time>
      </trkpt>
      <trkpt lat="44.17884" lon="5.28176">
        <ele>1620.33399808</ele>
        <time>2015-05-18T12:11:02.050Z</time>
      </trkpt>
      <trkpt lat="44.17889" lon="5.28161">
        <ele>1622.36699904</ele>
        <time>2015-05-18T12:11:14.050Z</time>
      </trkpt>
      <trkpt lat="44.17897" lon="5.28149">
        <ele>1623</ele>
        <time>2015-05-18T12:11:22.050Z</time>
      </trkpt>
      <trkpt lat="44.17903" lon="5.28138">
        <ele>1623</ele>
        <time>2015-05-18T12:11:30.050Z</time>
      </trkpt>
      <trkpt lat="44.17912" lon="5.28128">
        <ele>1624.16699904</ele>
        <time>2015-05-18T12:11:42.050Z</time>
      </trkpt>
      <trkpt lat="44.17917" lon="5.28109">
        <ele>1626.53399808</ele>
        <time>2015-05-18T12:11:58.050Z</time>
      </trkpt>
      <trkpt lat="44.17907" lon="5.28119">
        <ele>1632.36699904</ele>
        <time>2015-05-18T12:12:44.050Z</time>
      </trkpt>
      <trkpt lat="44.17898" lon="5.28128">
        <ele>1634.53199872</ele>
        <time>2015-05-18T12:12:58.040Z</time>
      </trkpt>
      <trkpt lat="44.17888" lon="5.28135">
        <ele>1635.96699904</ele>
        <time>2015-05-18T12:13:10.050Z</time>
      </trkpt>
      <trkpt lat="44.17876" lon="5.28143">
        <ele>1637.33399808</ele>
        <time>2015-05-18T12:13:22.050Z</time>
      </trkpt>
      <trkpt lat="44.17869" lon="5.28154">
        <ele>1639.36699904</ele>
        <time>2015-05-18T12:13:34.050Z</time>
      </trkpt>
      <trkpt lat="44.17863" lon="5.28166">
        <ele>1640.3336645223</ele>
        <time>2015-05-18T12:13:42.050Z</time>
      </trkpt>
      <trkpt lat="44.17858" lon="5.2818">
        <ele>1641.9320666316</ele>
        <time>2015-05-18T12:13:50.050Z</time>
      </trkpt>
      <trkpt lat="44.17851" lon="5.28191">
        <ele>1642</ele>
        <time>2015-05-18T12:14:00.050Z</time>
      </trkpt>
      <trkpt lat="44.1785" lon="5.28205">
        <ele>1644</ele>
        <time>2015-05-18T12:14:13.030Z</time>
      </trkpt>
      <trkpt lat="44.17851" lon="5.2822">
        <ele>1645.92999936</ele>
        <time>2015-05-18T12:14:30.030Z</time>
      </trkpt>
      <trkpt lat="44.17849" lon="5.28242">
        <ele>1648.16599936</ele>
        <time>2015-05-18T12:14:42.040Z</time>
      </trkpt>
      <trkpt lat="44.1785" lon="5.28256">
        <ele>1649.36499968</ele>
        <time>2015-05-18T12:14:54.030Z</time>
      </trkpt>
      <trkpt lat="44.17853" lon="5.28277">
        <ele>1653</ele>
        <time>2015-05-18T12:16:16.050Z</time>
      </trkpt>
      <trkpt lat="44.17851" lon="5.28302">
        <ele>1653.32999936</ele>
        <time>2015-05-18T12:16:32.030Z</time>
      </trkpt>
      <trkpt lat="44.1785" lon="5.28316">
        <ele>1655.26499968</ele>
        <time>2015-05-18T12:16:43.030Z</time>
      </trkpt>
      <trkpt lat="44.17842" lon="5.28302">
        <ele>1658.33399808</ele>
        <time>2015-05-18T12:17:07.050Z</time>
      </trkpt>
      <trkpt lat="44.17838" lon="5.28283">
        <ele>1660.72999936</ele>
        <time>2015-05-18T12:17:24.030Z</time>
      </trkpt>
      <trkpt lat="44.17832" lon="5.28268">
        <ele>1662.36499968</ele>
        <time>2015-05-18T12:17:34.030Z</time>
      </trkpt>
      <trkpt lat="44.17825" lon="5.28255">
        <ele>1662.96499968</ele>
        <time>2015-05-18T12:17:40.030Z</time>
      </trkpt>
      <trkpt lat="44.17821" lon="5.28238">
        <ele>1664.56699904</ele>
        <time>2015-05-18T12:17:56.050Z</time>
      </trkpt>
      <trkpt lat="44.17816" lon="5.28221">
        <ele>1668.72999936</ele>
        <time>2015-05-18T12:18:29.030Z</time>
      </trkpt>
      <trkpt lat="44.17805" lon="5.2822">
        <ele>1669.16499968</ele>
        <time>2015-05-18T12:18:42.030Z</time>
      </trkpt>
      <trkpt lat="44.17804" lon="5.28204">
        <ele>1670.56599936</ele>
        <time>2015-05-18T12:18:56.040Z</time>
      </trkpt>
      <trkpt lat="44.17809" lon="5.28187">
        <ele>1671</ele>
        <time>2015-05-18T12:19:08.030Z</time>
      </trkpt>
      <trkpt lat="44.17805" lon="5.28173">
        <ele>1673</ele>
        <time>2015-05-18T12:19:24.050Z</time>
      </trkpt>
      <trkpt lat="44.17811" lon="5.28155">
        <ele>1673.56499968</ele>
        <time>2015-05-18T12:19:36.030Z</time>
      </trkpt>
      <trkpt lat="44.17813" lon="5.28135">
        <ele>1675.47499904</ele>
        <time>2015-05-18T12:19:55.130Z</time>
      </trkpt>
      <trkpt lat="44.17815" lon="5.2812">
        <ele>1676.66899968</ele>
        <time>2015-05-18T12:20:07.070Z</time>
      </trkpt>
      <trkpt lat="44.17825" lon="5.28094">
        <ele>1679.12999936</ele>
        <time>2015-05-18T12:20:26.030Z</time>
      </trkpt>
      <trkpt lat="44.17831" lon="5.28079">
        <ele>1681.07499904</ele>
        <time>2015-05-18T12:20:41.130Z</time>
      </trkpt>
      <trkpt lat="44.17832" lon="5.28063">
        <ele>1683.30999808</ele>
        <time>2015-05-18T12:20:56.930Z</time>
      </trkpt>
      <trkpt lat="44.17824" lon="5.28074">
        <ele>1687.936</ele>
        <time>2015-05-18T12:21:20.060Z</time>
      </trkpt>
      <trkpt lat="44.17816" lon="5.28085">
        <ele>1690.95799936</ele>
        <time>2015-05-18T12:21:39.960Z</time>
      </trkpt>
      <trkpt lat="44.17808" lon="5.28099">
        <ele>1692.15699968</ele>
        <time>2015-05-18T12:21:51.950Z</time>
      </trkpt>
      <trkpt lat="44.17801" lon="5.28116">
        <ele>1693.30999808</ele>
        <time>2015-05-18T12:22:01.930Z</time>
      </trkpt>
      <trkpt lat="44.17788" lon="5.28125">
        <ele>1695.90999808</ele>
        <time>2015-05-18T12:22:14.930Z</time>
      </trkpt>
      <trkpt lat="44.1778" lon="5.28143">
        <ele>1699.34999808</ele>
        <time>2015-05-18T12:22:37.130Z</time>
      </trkpt>
      <trkpt lat="44.17773" lon="5.28155">
        <ele>1701</ele>
        <time>2015-05-18T12:22:51.130Z</time>
      </trkpt>
      <trkpt lat="44.17771" lon="5.28168">
        <ele>1701</ele>
        <time>2015-05-18T12:22:58.930Z</time>
      </trkpt>
      <trkpt lat="44.17761" lon="5.28178">
        <ele>1701.65699968</ele>
        <time>2015-05-18T12:23:06.950Z</time>
      </trkpt>
      <trkpt lat="44.1776" lon="5.28192">
        <ele>1702.77699968</ele>
        <time>2015-05-18T12:23:18.150Z</time>
      </trkpt>
      <trkpt lat="44.17765" lon="5.28204">
        <ele>1704.3766231773</ele>
        <time>2015-05-18T12:23:34.150Z</time>
      </trkpt>
      <trkpt lat="44.17763" lon="5.28219">
        <ele>1707.8708699513</ele>
        <time>2015-05-18T12:23:49.950Z</time>
      </trkpt>
      <trkpt lat="44.17755" lon="5.28228">
        <ele>1708.31399936</ele>
        <time>2015-05-18T12:24:01.950Z</time>
      </trkpt>
      <trkpt lat="44.17766" lon="5.28232">
        <ele>1710</ele>
        <time>2015-05-18T12:24:32.950Z</time>
      </trkpt>
      <trkpt lat="44.17757" lon="5.28239">
        <ele>1710.74999808</ele>
        <time>2015-05-18T12:24:59.130Z</time>
      </trkpt>
      <trkpt lat="44.17757" lon="5.28225">
        <ele>1715.91399936</ele>
        <time>2015-05-18T12:25:14.950Z</time>
      </trkpt>
      <trkpt lat="44.1775" lon="5.28211">
        <ele>1717.67699968</ele>
        <time>2015-05-18T12:25:27.150Z</time>
      </trkpt>
      <trkpt lat="44.1774" lon="5.28204">
        <ele>1718.45699968</ele>
        <time>2015-05-18T12:25:34.950Z</time>
      </trkpt>
      <trkpt lat="44.17749" lon="5.28195">
        <ele>1719.656</ele>
        <time>2015-05-18T12:25:46.940Z</time>
      </trkpt>
      <trkpt lat="44.17743" lon="5.2818">
        <ele>1721.34300032</ele>
        <time>2015-05-18T12:26:06.950Z</time>
      </trkpt>
      <trkpt lat="44.17736" lon="5.28166">
        <ele>1723.27699968</ele>
        <time>2015-05-18T12:26:23.150Z</time>
      </trkpt>
      <trkpt lat="44.17741" lon="5.28151">
        <ele>1724.45699968</ele>
        <time>2015-05-18T12:26:34.950Z</time>
      </trkpt>
      <trkpt lat="44.17743" lon="5.28134">
        <ele>1725.67699968</ele>
        <time>2015-05-18T12:26:47.150Z</time>
      </trkpt>
      <trkpt lat="44.17744" lon="5.28115">
        <ele>1728.25699968</ele>
        <time>2015-05-18T12:27:02.950Z</time>
      </trkpt>
      <trkpt lat="44.17747" lon="5.28096">
        <ele>1729.87699968</ele>
        <time>2015-05-18T12:27:19.150Z</time>
      </trkpt>
      <trkpt lat="44.17749" lon="5.28079">
        <ele>1730.65699968</ele>
        <time>2015-05-18T12:27:26.950Z</time>
      </trkpt>
      <trkpt lat="44.17751" lon="5.28064">
        <ele>1733.55399936</ele>
        <time>2015-05-18T12:27:43.150Z</time>
      </trkpt>
      <trkpt lat="44.1774" lon="5.28076">
        <ele>1739</ele>
        <time>2015-05-18T12:28:28.930Z</time>
      </trkpt>
      <trkpt lat="44.17739" lon="5.28091">
        <ele>1742.65699968</ele>
        <time>2015-05-18T12:29:16.950Z</time>
      </trkpt>
      <trkpt lat="44.1773" lon="5.28099">
        <ele>1743.91399936</ele>
        <time>2015-05-18T12:29:24.950Z</time>
      </trkpt>
      <trkpt lat="44.17723" lon="5.28111">
        <ele>1745.248</ele>
        <time>2015-05-18T12:29:32.860Z</time>
      </trkpt>
      <trkpt lat="44.17716" lon="5.2813">
        <ele>1746.85699968</ele>
        <time>2015-05-18T12:29:48.950Z</time>
      </trkpt>
      <trkpt lat="44.1771" lon="5.28144">
        <ele>1748.11399936</ele>
        <time>2015-05-18T12:30:00.950Z</time>
      </trkpt>
      <trkpt lat="44.17707" lon="5.28159">
        <ele>1751</ele>
        <time>2015-05-18T12:30:28.130Z</time>
      </trkpt>
      <trkpt lat="44.17707" lon="5.28174">
        <ele>1751</ele>
        <time>2015-05-18T12:30:35.950Z</time>
      </trkpt>
      <trkpt lat="44.17712" lon="5.28189">
        <ele>1753.31399936</ele>
        <time>2015-05-18T12:30:51.950Z</time>
      </trkpt>
      <trkpt lat="44.17705" lon="5.282">
        <ele>1755</ele>
        <time>2015-05-18T12:31:03.950Z</time>
      </trkpt>
      <trkpt lat="44.17696" lon="5.28203">
        <ele>1756.91399936</ele>
        <time>2015-05-18T12:31:19.950Z</time>
      </trkpt>
      <trkpt lat="44.17697" lon="5.28184">
        <ele>1758.45699968</ele>
        <time>2015-05-18T12:32:24.950Z</time>
      </trkpt>
      <trkpt lat="44.177" lon="5.28168">
        <ele>1760.31399936</ele>
        <time>2015-05-18T12:32:36.950Z</time>
      </trkpt>
      <trkpt lat="44.17701" lon="5.2815">
        <ele>1761.87699968</ele>
        <time>2015-05-18T12:32:49.150Z</time>
      </trkpt>
      <trkpt lat="44.17696" lon="5.28133">
        <ele>1763.05699968</ele>
        <time>2015-05-18T12:33:00.950Z</time>
      </trkpt>
      <trkpt lat="44.17695" lon="5.28117">
        <ele>1764.51599872</ele>
        <time>2015-05-18T12:33:12.960Z</time>
      </trkpt>
      <trkpt lat="44.17694" lon="5.28099">
        <ele>1766.11399936</ele>
        <time>2015-05-18T12:33:20.950Z</time>
      </trkpt>
      <trkpt lat="44.17695" lon="5.28085">
        <ele>1768.17499904</ele>
        <time>2015-05-18T12:33:32.130Z</time>
      </trkpt>
      <trkpt lat="44.17695" lon="5.28066">
        <ele>1769.37699968</ele>
        <time>2015-05-18T12:33:44.150Z</time>
      </trkpt>
      <trkpt lat="44.17692" lon="5.28049">
        <ele>1770.55699968</ele>
        <time>2015-05-18T12:33:55.950Z</time>
      </trkpt>
      <trkpt lat="44.1769" lon="5.2807">
        <ele>1774.50999808</ele>
        <time>2015-05-18T12:34:17.930Z</time>
      </trkpt>
      <trkpt lat="44.17682" lon="5.28085">
        <ele>1776.71399936</ele>
        <time>2015-05-18T12:34:33.950Z</time>
      </trkpt>
      <trkpt lat="44.17678" lon="5.28099">
        <ele>1779.11399936</ele>
        <time>2015-05-18T12:34:45.950Z</time>
      </trkpt>
      <trkpt lat="44.17674" lon="5.28113">
        <ele>1780.35699968</ele>
        <time>2015-05-18T12:34:53.950Z</time>
      </trkpt>
      <trkpt lat="44.17666" lon="5.28126">
        <ele>1782.67099904</ele>
        <time>2015-05-18T12:35:05.950Z</time>
      </trkpt>
      <trkpt lat="44.1766" lon="5.28139">
        <ele>1784.35699968</ele>
        <time>2015-05-18T12:35:13.950Z</time>
      </trkpt>
      <trkpt lat="44.17656" lon="5.28152">
        <ele>1785.35399936</ele>
        <time>2015-05-18T12:35:22.150Z</time>
      </trkpt>
      <trkpt lat="44.17656" lon="5.28137">
        <ele>1789</ele>
        <time>2015-05-18T12:36:15.950Z</time>
      </trkpt>
      <trkpt lat="44.17654" lon="5.28122">
        <ele>1791.35399936</ele>
        <time>2015-05-18T12:36:32.150Z</time>
      </trkpt>
      <trkpt lat="44.17649" lon="5.28106">
        <ele>1793.71399936</ele>
        <time>2015-05-18T12:36:43.950Z</time>
      </trkpt>
      <trkpt lat="44.17647" lon="5.28092">
        <ele>1797.17499904</ele>
        <time>2015-05-18T12:37:02.130Z</time>
      </trkpt>
      <trkpt lat="44.17636" lon="5.28081">
        <ele>1799.51399936</ele>
        <time>2015-05-18T12:37:17.950Z</time>
      </trkpt>
      <trkpt lat="44.17628" lon="5.28071">
        <ele>1802.35699968</ele>
        <time>2015-05-18T12:37:33.950Z</time>
      </trkpt>
      <trkpt lat="44.17628" lon="5.28057">
        <ele>1806.35399936</ele>
        <time>2015-05-18T12:37:57.150Z</time>
      </trkpt>
      <trkpt lat="44.17623" lon="5.28041">
        <ele>1807.91399936</ele>
        <time>2015-05-18T12:38:04.950Z</time>
      </trkpt>
      <trkpt lat="44.17622" lon="5.28023">
        <ele>1810.54999808</ele>
        <time>2015-05-18T12:38:23.130Z</time>
      </trkpt>
      <trkpt lat="44.17613" lon="5.2801">
        <ele>1813.35399936</ele>
        <time>2015-05-18T12:38:37.150Z</time>
      </trkpt>
      <trkpt lat="44.17611" lon="5.27994">
        <ele>1815.75399936</ele>
        <time>2015-05-18T12:38:49.150Z</time>
      </trkpt>
      <trkpt lat="44.17606" lon="5.2798">
        <ele>1820.94999808</ele>
        <time>2015-05-18T12:39:05.130Z</time>
      </trkpt>
      <trkpt lat="44.17598" lon="5.2797">
        <ele>1823.47699968</ele>
        <time>2015-05-18T12:39:25.150Z</time>
      </trkpt>
      <trkpt lat="44.17594" lon="5.27956">
        <ele>1825.85699968</ele>
        <time>2015-05-18T12:39:48.950Z</time>
      </trkpt>
      <trkpt lat="44.17585" lon="5.27949">
        <ele>1830.3849984</ele>
        <time>2015-05-18T12:40:05.150Z</time>
      </trkpt>
      <trkpt lat="44.17575" lon="5.27948">
        <ele>1833</ele>
        <time>2015-05-18T12:40:20.150Z</time>
      </trkpt>
      <trkpt lat="44.17565" lon="5.27959">
        <ele>1839.31399936</ele>
        <time>2015-05-18T12:40:51.950Z</time>
      </trkpt>
      <trkpt lat="44.17556" lon="5.27972">
        <ele>1840.91399936</ele>
        <time>2015-05-18T12:40:59.950Z</time>
      </trkpt>
      <trkpt lat="44.17549" lon="5.27986">
        <ele>1843</ele>
        <time>2015-05-18T12:41:14.930Z</time>
      </trkpt>
      <trkpt lat="44.17539" lon="5.27983">
        <ele>1849.35699968</ele>
        <time>2015-05-18T12:42:03.950Z</time>
      </trkpt>
      <trkpt lat="44.17536" lon="5.27969">
        <ele>1850.57799936</ele>
        <time>2015-05-18T12:42:16.160Z</time>
      </trkpt>
      <trkpt lat="44.17534" lon="5.27951">
        <ele>1853.35399936</ele>
        <time>2015-05-18T12:42:32.150Z</time>
      </trkpt>
      <trkpt lat="44.17536" lon="5.27939">
        <ele>1855.3766231773</ele>
        <time>2015-05-18T12:42:44.150Z</time>
      </trkpt>
      <trkpt lat="44.17535" lon="5.27928">
        <ele>1856.1741734777</ele>
        <time>2015-05-18T12:42:52.130Z</time>
      </trkpt>
      <trkpt lat="44.17532" lon="5.27915">
        <ele>1857.75399936</ele>
        <time>2015-05-18T12:43:04.150Z</time>
      </trkpt>
      <trkpt lat="44.17524" lon="5.27905">
        <ele>1861</ele>
        <time>2015-05-18T12:43:37.150Z</time>
      </trkpt>
      <trkpt lat="44.1752" lon="5.27889">
        <ele>1861.848</ele>
        <time>2015-05-18T12:43:48.860Z</time>
      </trkpt>
      <trkpt lat="44.1751" lon="5.2788">
        <ele>1864.15399936</ele>
        <time>2015-05-18T12:44:01.150Z</time>
      </trkpt>
      <trkpt lat="44.17497" lon="5.27877">
        <ele>1866.55399936</ele>
        <time>2015-05-18T12:44:13.150Z</time>
      </trkpt>
      <trkpt lat="44.17486" lon="5.27864">
        <ele>1870.176</ele>
        <time>2015-05-18T12:44:32.140Z</time>
      </trkpt>
      <trkpt lat="44.17474" lon="5.27857">
        <ele>1872.14799872</ele>
        <time>2015-05-18T12:44:46.120Z</time>
      </trkpt>
      <trkpt lat="44.17462" lon="5.27856">
        <ele>1876.128</ele>
        <time>2015-05-18T12:45:04.140Z</time>
      </trkpt>
      <trkpt lat="44.17452" lon="5.27858">
        <ele>1878.55699968</ele>
        <time>2015-05-18T12:45:15.950Z</time>
      </trkpt>
      <trkpt lat="44.1744" lon="5.27862">
        <ele>1882</ele>
        <time>2015-05-18T12:45:49.940Z</time>
      </trkpt>
      <trkpt lat="44.1743" lon="5.27859">
        <ele>1885.11399936</ele>
        <time>2015-05-18T12:46:05.950Z</time>
      </trkpt>
      <trkpt lat="44.17421" lon="5.27848">
        <ele>1887.15699968</ele>
        <time>2015-05-18T12:46:21.950Z</time>
      </trkpt>
      <trkpt lat="44.17415" lon="5.27835">
        <ele>1889.42799872</ele>
        <time>2015-05-18T12:46:33.950Z</time>
      </trkpt>
      <trkpt lat="44.17405" lon="5.27828">
        <ele>1892.95499904</ele>
        <time>2015-05-18T12:46:49.930Z</time>
      </trkpt>
      <trkpt lat="44.17391" lon="5.27752">
        <ele>1891</ele>
        <time>2015-05-18T13:23:18.070Z</time>
      </trkpt>
      <trkpt lat="44.17396" lon="5.2776">
        <ele>1891</ele>
        <time>2015-05-18T13:23:22.950Z</time>
      </trkpt>
      <trkpt lat="44.17403" lon="5.27774">
        <ele>1891</ele>
        <time>2015-05-18T13:23:38.950Z</time>
      </trkpt>
      <trkpt lat="44.17415" lon="5.27781">
        <ele>1891</ele>
        <time>2015-05-18T13:23:46.950Z</time>
      </trkpt>
      <trkpt lat="44.17421" lon="5.27797">
        <ele>1891</ele>
        <time>2015-05-18T13:23:59.930Z</time>
      </trkpt>
      <trkpt lat="44.17434" lon="5.27805">
        <ele>1891</ele>
        <time>2015-05-18T13:24:07.950Z</time>
      </trkpt>
      <trkpt lat="44.17437" lon="5.27823">
        <ele>1891</ele>
        <time>2015-05-18T13:24:19.950Z</time>
      </trkpt>
      <trkpt lat="44.17428" lon="5.27829">
        <ele>1891</ele>
        <time>2015-05-18T13:24:36.150Z</time>
      </trkpt>
      <trkpt lat="44.17432" lon="5.27845">
        <ele>1899</ele>
        <time>2015-05-18T13:24:48.130Z</time>
      </trkpt>
      <trkpt lat="44.17435" lon="5.27865">
        <ele>1899</ele>
        <time>2015-05-18T13:25:00.150Z</time>
      </trkpt>
      <trkpt lat="44.17438" lon="5.27883">
        <ele>1899</ele>
        <time>2015-05-18T13:25:12.150Z</time>
      </trkpt>
      <trkpt lat="44.17439" lon="5.27897">
        <ele>1899.67700096</ele>
        <time>2015-05-18T13:25:24.150Z</time>
      </trkpt>
      <trkpt lat="44.17441" lon="5.2791">
        <ele>1900</ele>
        <time>2015-05-18T13:25:32.130Z</time>
      </trkpt>
      <trkpt lat="44.17444" lon="5.27924">
        <ele>1898.64599808</ele>
        <time>2015-05-18T13:25:44.150Z</time>
      </trkpt>
      <trkpt lat="44.17443" lon="5.27937">
        <ele>1898</ele>
        <time>2015-05-18T13:25:56.150Z</time>
      </trkpt>
      <trkpt lat="44.17448" lon="5.27945">
        <ele>1897.24599808</ele>
        <time>2015-05-18T13:26:16.150Z</time>
      </trkpt>
      <trkpt lat="44.17458" lon="5.27936">
        <ele>1896</ele>
        <time>2015-05-18T13:26:28.150Z</time>
      </trkpt>
      <trkpt lat="44.17464" lon="5.27924">
        <ele>1896</ele>
        <time>2015-05-18T13:26:36.150Z</time>
      </trkpt>
      <trkpt lat="44.1747" lon="5.2791">
        <ele>1895.32299904</ele>
        <time>2015-05-18T13:26:44.150Z</time>
      </trkpt>
      <trkpt lat="44.17471" lon="5.27894">
        <ele>1895</ele>
        <time>2015-05-18T13:26:52.150Z</time>
      </trkpt>
      <trkpt lat="44.17467" lon="5.27885">
        <ele>1895</ele>
        <time>2015-05-18T13:27:00.150Z</time>
      </trkpt>
      <trkpt lat="44.17469" lon="5.27874">
        <ele>1893</ele>
        <time>2015-05-18T13:29:52.150Z</time>
      </trkpt>
      <trkpt lat="44.1747" lon="5.27865">
        <ele>1892.48599808</ele>
        <time>2015-05-18T13:29:59.950Z</time>
      </trkpt>
      <trkpt lat="44.17469" lon="5.27855">
        <ele>1891</ele>
        <time>2015-05-18T13:30:12.150Z</time>
      </trkpt>
      <trkpt lat="44.17481" lon="5.2786">
        <ele>1888.96899712</ele>
        <time>2015-05-18T13:30:24.150Z</time>
      </trkpt>
      <trkpt lat="44.17491" lon="5.27867">
        <ele>1887.54299904</ele>
        <time>2015-05-18T13:30:31.950Z</time>
      </trkpt>
      <trkpt lat="44.175" lon="5.27876">
        <ele>1886.72299904</ele>
        <time>2015-05-18T13:30:40.150Z</time>
      </trkpt>
      <trkpt lat="44.17509" lon="5.27882">
        <ele>1885.6099968</ele>
        <time>2015-05-18T13:30:48.160Z</time>
      </trkpt>
      <trkpt lat="44.17518" lon="5.27893">
        <ele>1881.6149952</ele>
        <time>2015-05-18T13:30:56.150Z</time>
      </trkpt>
      <trkpt lat="44.17527" lon="5.27903">
        <ele>1877</ele>
        <time>2015-05-18T13:31:08.150Z</time>
      </trkpt>
      <trkpt lat="44.17531" lon="5.27916">
        <ele>1877</ele>
        <time>2015-05-18T13:31:16.150Z</time>
      </trkpt>
      <trkpt lat="44.1754" lon="5.27932">
        <ele>1875.69199616</ele>
        <time>2015-05-18T13:31:28.150Z</time>
      </trkpt>
      <trkpt lat="44.17544" lon="5.27952">
        <ele>1872.57199616</ele>
        <time>2015-05-18T13:31:35.950Z</time>
      </trkpt>
      <trkpt lat="44.17547" lon="5.27968">
        <ele>1870.84999936</ele>
        <time>2015-05-18T13:31:48.130Z</time>
      </trkpt>
      <trkpt lat="44.17551" lon="5.27986">
        <ele>1868.16899712</ele>
        <time>2015-05-18T13:32:00.150Z</time>
      </trkpt>
      <trkpt lat="44.17557" lon="5.27974">
        <ele>1864.32299904</ele>
        <time>2015-05-18T13:32:24.150Z</time>
      </trkpt>
      <trkpt lat="44.17562" lon="5.27962">
        <ele>1861.7149952</ele>
        <time>2015-05-18T13:32:31.950Z</time>
      </trkpt>
      <trkpt lat="44.17571" lon="5.27944">
        <ele>1857.02899712</ele>
        <time>2015-05-18T13:32:43.950Z</time>
      </trkpt>
      <trkpt lat="44.17577" lon="5.27929">
        <ele>1854.17199616</ele>
        <time>2015-05-18T13:32:51.950Z</time>
      </trkpt>
      <trkpt lat="44.17589" lon="5.27946">
        <ele>1849.37199616</ele>
        <time>2015-05-18T13:33:03.950Z</time>
      </trkpt>
      <trkpt lat="44.176" lon="5.27962">
        <ele>1846.5704280643</ele>
        <time>2015-05-18T13:33:12.150Z</time>
      </trkpt>
      <trkpt lat="44.17607" lon="5.27979">
        <ele>1843.08599808</ele>
        <time>2015-05-18T13:33:31.950Z</time>
      </trkpt>
      <trkpt lat="44.17613" lon="5.2799">
        <ele>1840.33799424</ele>
        <time>2015-05-18T13:33:40.150Z</time>
      </trkpt>
      <trkpt lat="44.17619" lon="5.28005">
        <ele>1835.6923041512</ele>
        <time>2015-05-18T13:33:48.150Z</time>
      </trkpt>
      <trkpt lat="44.17624" lon="5.28021">
        <ele>1832.5754240236</ele>
        <time>2015-05-18T13:33:55.950Z</time>
      </trkpt>
      <trkpt lat="44.1763" lon="5.28037">
        <ele>1828.7167135616</ele>
        <time>2015-05-18T13:34:03.950Z</time>
      </trkpt>
      <trkpt lat="44.17636" lon="5.28053">
        <ele>1825.62899712</ele>
        <time>2015-05-18T13:34:11.950Z</time>
      </trkpt>
      <trkpt lat="44.17642" lon="5.28067">
        <ele>1824</ele>
        <time>2015-05-18T13:34:19.950Z</time>
      </trkpt>
      <trkpt lat="44.17645" lon="5.2808">
        <ele>1823.60099328</ele>
        <time>2015-05-18T13:34:27.950Z</time>
      </trkpt>
      <trkpt lat="44.17648" lon="5.28094">
        <ele>1818.00099328</ele>
        <time>2015-05-18T13:34:35.950Z</time>
      </trkpt>
      <trkpt lat="44.17653" lon="5.28109">
        <ele>1815.64599808</ele>
        <time>2015-05-18T13:34:44.150Z</time>
      </trkpt>
      <trkpt lat="44.17657" lon="5.28123">
        <ele>1814.54299904</ele>
        <time>2015-05-18T13:34:51.950Z</time>
      </trkpt>
      <trkpt lat="44.17659" lon="5.28138">
        <ele>1812.6149952</ele>
        <time>2015-05-18T13:35:00.150Z</time>
      </trkpt>
      <trkpt lat="44.1766" lon="5.28154">
        <ele>1808.92299904</ele>
        <time>2015-05-18T13:35:08.150Z</time>
      </trkpt>
      <trkpt lat="44.17667" lon="5.28141">
        <ele>1807.34199936</ele>
        <time>2015-05-18T13:35:23.960Z</time>
      </trkpt>
      <trkpt lat="44.17672" lon="5.28125">
        <ele>1805.17199616</ele>
        <time>2015-05-18T13:35:31.950Z</time>
      </trkpt>
      <trkpt lat="44.17678" lon="5.28108">
        <ele>1801.89199616</ele>
        <time>2015-05-18T13:35:40.150Z</time>
      </trkpt>
      <trkpt lat="44.17668" lon="5.28091">
        <ele>1798.70999808</ele>
        <time>2015-05-18T13:35:48.830Z</time>
      </trkpt>
      <trkpt lat="44.17688" lon="5.28062">
        <ele>1795.93499904</ele>
        <time>2015-05-18T13:36:00.930Z</time>
      </trkpt>
      <trkpt lat="44.17695" lon="5.28046">
        <ele>1793.84299904</ele>
        <time>2015-05-18T13:36:08.950Z</time>
      </trkpt>
      <trkpt lat="44.177" lon="5.28058">
        <ele>1791.68599808</ele>
        <time>2015-05-18T13:36:28.950Z</time>
      </trkpt>
      <trkpt lat="44.17709" lon="5.2807">
        <ele>1790.08599808</ele>
        <time>2015-05-18T13:36:36.950Z</time>
      </trkpt>
      <trkpt lat="44.17713" lon="5.28087">
        <ele>1790</ele>
        <time>2015-05-18T13:36:45.950Z</time>
      </trkpt>
      <trkpt lat="44.17704" lon="5.28096">
        <ele>1787.84999936</ele>
        <time>2015-05-18T13:37:03.130Z</time>
      </trkpt>
      <trkpt lat="44.17709" lon="5.28081">
        <ele>1780.7149952</ele>
        <time>2015-05-18T13:37:43.950Z</time>
      </trkpt>
      <trkpt lat="44.17715" lon="5.28093">
        <ele>1779</ele>
        <time>2015-05-18T13:37:51.950Z</time>
      </trkpt>
      <trkpt lat="44.17726" lon="5.28099">
        <ele>1774.68599808</ele>
        <time>2015-05-18T13:38:23.950Z</time>
      </trkpt>
      <trkpt lat="44.17729" lon="5.28084">
        <ele>1770.82499968</ele>
        <time>2015-05-18T13:38:49.130Z</time>
      </trkpt>
      <trkpt lat="44.17741" lon="5.28074">
        <ele>1765.34499968</ele>
        <time>2015-05-18T13:39:33.930Z</time>
      </trkpt>
      <trkpt lat="44.17748" lon="5.2806">
        <ele>1763.6303680668</ele>
        <time>2015-05-18T13:39:41.950Z</time>
      </trkpt>
      <trkpt lat="44.17757" lon="5.28067">
        <ele>1761.94299904</ele>
        <time>2015-05-18T13:42:47.950Z</time>
      </trkpt>
      <trkpt lat="44.17762" lon="5.28085">
        <ele>1759.20099328</ele>
        <time>2015-05-18T13:42:59.950Z</time>
      </trkpt>
      <trkpt lat="44.1776" lon="5.28102">
        <ele>1753.94299904</ele>
        <time>2015-05-18T13:43:07.950Z</time>
      </trkpt>
      <trkpt lat="44.17755" lon="5.28115">
        <ele>1753.14299904</ele>
        <time>2015-05-18T13:43:15.950Z</time>
      </trkpt>
      <trkpt lat="44.1775" lon="5.28131">
        <ele>1752.54299904</ele>
        <time>2015-05-18T13:43:31.950Z</time>
      </trkpt>
      <trkpt lat="44.17747" lon="5.2815">
        <ele>1750.94299904</ele>
        <time>2015-05-18T13:43:47.950Z</time>
      </trkpt>
      <trkpt lat="44.17756" lon="5.28165">
        <ele>1750.14299904</ele>
        <time>2015-05-18T13:43:55.950Z</time>
      </trkpt>
      <trkpt lat="44.17758" lon="5.28186">
        <ele>1747.37199616</ele>
        <time>2015-05-18T13:44:03.950Z</time>
      </trkpt>
      <trkpt lat="44.17757" lon="5.282">
        <ele>1745.54299904</ele>
        <time>2015-05-18T13:44:11.950Z</time>
      </trkpt>
      <trkpt lat="44.1776" lon="5.28216">
        <ele>1744</ele>
        <time>2015-05-18T13:44:27.950Z</time>
      </trkpt>
      <trkpt lat="44.17769" lon="5.28225">
        <ele>1743.74299904</ele>
        <time>2015-05-18T13:44:39.950Z</time>
      </trkpt>
      <trkpt lat="44.17768" lon="5.28242">
        <ele>1741.22899712</ele>
        <time>2015-05-18T13:44:59.950Z</time>
      </trkpt>
      <trkpt lat="44.17757" lon="5.28247">
        <ele>1738.54299904</ele>
        <time>2015-05-18T13:45:11.950Z</time>
      </trkpt>
      <trkpt lat="44.17761" lon="5.28232">
        <ele>1736.08599808</ele>
        <time>2015-05-18T13:45:31.950Z</time>
      </trkpt>
      <trkpt lat="44.17757" lon="5.282">
        <ele>1734.34299904</ele>
        <time>2015-05-18T13:45:43.950Z</time>
      </trkpt>
      <trkpt lat="44.17753" lon="5.28183">
        <ele>1732.48599808</ele>
        <time>2015-05-18T13:45:59.950Z</time>
      </trkpt>
      <trkpt lat="44.17767" lon="5.28177">
        <ele>1731</ele>
        <time>2015-05-18T13:46:11.950Z</time>
      </trkpt>
      <trkpt lat="44.17773" lon="5.28163">
        <ele>1730.74299904</ele>
        <time>2015-05-18T13:46:19.950Z</time>
      </trkpt>
      <trkpt lat="44.17776" lon="5.28149">
        <ele>1729.54299904</ele>
        <time>2015-05-18T13:46:31.950Z</time>
      </trkpt>
      <trkpt lat="44.17785" lon="5.28136">
        <ele>1728.48599808</ele>
        <time>2015-05-18T13:46:39.950Z</time>
      </trkpt>
      <trkpt lat="44.17792" lon="5.28127">
        <ele>1726.84599808</ele>
        <time>2015-05-18T13:46:48.150Z</time>
      </trkpt>
      <trkpt lat="44.17796" lon="5.28106">
        <ele>1724.14299904</ele>
        <time>2015-05-18T13:47:05.950Z</time>
      </trkpt>
      <trkpt lat="44.17802" lon="5.28093">
        <ele>1722.432</ele>
        <time>2015-05-18T13:47:23.060Z</time>
      </trkpt>
      <trkpt lat="44.17815" lon="5.28087">
        <ele>1721.68599808</ele>
        <time>2015-05-18T13:47:38.950Z</time>
      </trkpt>
      <trkpt lat="44.17821" lon="5.28067">
        <ele>1718.2149952</ele>
        <time>2015-05-18T13:47:50.950Z</time>
      </trkpt>
      <trkpt lat="44.17825" lon="5.28055">
        <ele>1714.68599808</ele>
        <time>2015-05-18T13:47:58.950Z</time>
      </trkpt>
      <trkpt lat="44.17839" lon="5.28074">
        <ele>1712.24299904</ele>
        <time>2015-05-18T13:48:14.950Z</time>
      </trkpt>
      <trkpt lat="44.17836" lon="5.28089">
        <ele>1711.44299904</ele>
        <time>2015-05-18T13:48:22.950Z</time>
      </trkpt>
      <trkpt lat="44.17834" lon="5.28103">
        <ele>1709.57199616</ele>
        <time>2015-05-18T13:48:30.950Z</time>
      </trkpt>
      <trkpt lat="44.17825" lon="5.28115">
        <ele>1707</ele>
        <time>2015-05-18T13:48:38.950Z</time>
      </trkpt>
      <trkpt lat="44.1782" lon="5.28136">
        <ele>1707</ele>
        <time>2015-05-18T13:48:46.950Z</time>
      </trkpt>
      <trkpt lat="44.17819" lon="5.28157">
        <ele>1705.48599808</ele>
        <time>2015-05-18T13:48:54.950Z</time>
      </trkpt>
      <trkpt lat="44.17822" lon="5.28171">
        <ele>1703.32899712</ele>
        <time>2015-05-18T13:49:02.950Z</time>
      </trkpt>
      <trkpt lat="44.1782" lon="5.28185">
        <ele>1701.64299904</ele>
        <time>2015-05-18T13:49:10.950Z</time>
      </trkpt>
      <trkpt lat="44.17822" lon="5.28203">
        <ele>1701</ele>
        <time>2015-05-18T13:49:22.950Z</time>
      </trkpt>
      <trkpt lat="44.17838" lon="5.28216">
        <ele>1699</ele>
        <time>2015-05-18T13:49:51.950Z</time>
      </trkpt>
      <trkpt lat="44.17828" lon="5.28223">
        <ele>1698.34499968</ele>
        <time>2015-05-18T13:50:03.930Z</time>
      </trkpt>
      <trkpt lat="44.17819" lon="5.28228">
        <ele>1698</ele>
        <time>2015-05-18T13:50:11.950Z</time>
      </trkpt>
      <trkpt lat="44.1782" lon="5.28242">
        <ele>1696.64599808</ele>
        <time>2015-05-18T13:50:24.150Z</time>
      </trkpt>
      <trkpt lat="44.17831" lon="5.2826">
        <ele>1693.97199616</ele>
        <time>2015-05-18T13:50:39.950Z</time>
      </trkpt>
      <trkpt lat="44.17837" lon="5.2828">
        <ele>1690.52499968</ele>
        <time>2015-05-18T13:50:52.130Z</time>
      </trkpt>
      <trkpt lat="44.17846" lon="5.28297">
        <ele>1689.16899712</ele>
        <time>2015-05-18T13:51:00.150Z</time>
      </trkpt>
      <trkpt lat="44.17847" lon="5.28314">
        <ele>1686.52299904</ele>
        <time>2015-05-18T13:51:12.150Z</time>
      </trkpt>
      <trkpt lat="44.17856" lon="5.28289">
        <ele>1683.28799744</ele>
        <time>2015-05-18T13:51:30.940Z</time>
      </trkpt>
      <trkpt lat="44.17858" lon="5.28275">
        <ele>1681.952</ele>
        <time>2015-05-18T13:51:37.860Z</time>
      </trkpt>
      <trkpt lat="44.17851" lon="5.28243">
        <ele>1680.48999936</ele>
        <time>2015-05-18T13:51:49.930Z</time>
      </trkpt>
      <trkpt lat="44.1785" lon="5.28225">
        <ele>1678.82899712</ele>
        <time>2015-05-18T13:51:57.950Z</time>
      </trkpt>
      <trkpt lat="44.17847" lon="5.28211">
        <ele>1676</ele>
        <time>2015-05-18T13:52:13.950Z</time>
      </trkpt>
      <trkpt lat="44.17851" lon="5.28191">
        <ele>1674.27799808</ele>
        <time>2015-05-18T13:52:23.120Z</time>
      </trkpt>
      <trkpt lat="44.17855" lon="5.28172">
        <ele>1672.64299904</ele>
        <time>2015-05-18T13:52:30.950Z</time>
      </trkpt>
      <trkpt lat="44.17861" lon="5.28159">
        <ele>1671.62499968</ele>
        <time>2015-05-18T13:52:41.130Z</time>
      </trkpt>
      <trkpt lat="44.17865" lon="5.28144">
        <ele>1669.5774188268</ele>
        <time>2015-05-18T13:52:50.940Z</time>
      </trkpt>
      <trkpt lat="44.17878" lon="5.28134">
        <ele>1666.6526519985</ele>
        <time>2015-05-18T13:53:00.860Z</time>
      </trkpt>
      <trkpt lat="44.17888" lon="5.28125">
        <ele>1665.62499968</ele>
        <time>2015-05-18T13:53:11.130Z</time>
      </trkpt>
      <trkpt lat="44.179" lon="5.2812">
        <ele>1664.64999936</ele>
        <time>2015-05-18T13:53:19.130Z</time>
      </trkpt>
      <trkpt lat="44.17909" lon="5.28108">
        <ele>1662.68999936</ele>
        <time>2015-05-18T13:53:28.930Z</time>
      </trkpt>
      <trkpt lat="44.17924" lon="5.28099">
        <ele>1661.08999936</ele>
        <time>2015-05-18T13:53:36.930Z</time>
      </trkpt>
      <trkpt lat="44.17936" lon="5.28097">
        <ele>1659.84299904</ele>
        <time>2015-05-18T13:53:48.950Z</time>
      </trkpt>
      <trkpt lat="44.17927" lon="5.28107">
        <ele>1657.92899712</ele>
        <time>2015-05-18T13:54:00.950Z</time>
      </trkpt>
      <trkpt lat="44.17925" lon="5.28122">
        <ele>1655.84699904</ele>
        <time>2015-05-18T13:54:08.910Z</time>
      </trkpt>
      <trkpt lat="44.17906" lon="5.28148">
        <ele>1653.64599808</ele>
        <time>2015-05-18T13:54:24.150Z</time>
      </trkpt>
      <trkpt lat="44.179" lon="5.28161">
        <ele>1652.424</ele>
        <time>2015-05-18T13:54:33.140Z</time>
      </trkpt>
      <trkpt lat="44.17897" lon="5.28176">
        <ele>1651.44499968</ele>
        <time>2015-05-18T13:54:42.930Z</time>
      </trkpt>
      <trkpt lat="44.1789" lon="5.2819">
        <ele>1650.24299904</ele>
        <time>2015-05-18T13:54:54.950Z</time>
      </trkpt>
      <trkpt lat="44.17893" lon="5.2821">
        <ele>1647.77199616</ele>
        <time>2015-05-18T13:55:02.950Z</time>
      </trkpt>
      <trkpt lat="44.17904" lon="5.28226">
        <ele>1645.52499968</ele>
        <time>2015-05-18T13:55:12.130Z</time>
      </trkpt>
      <trkpt lat="44.17914" lon="5.28236">
        <ele>1645.24299904</ele>
        <time>2015-05-18T13:57:24.950Z</time>
      </trkpt>
      <trkpt lat="44.17922" lon="5.28249">
        <ele>1643.88599808</ele>
        <time>2015-05-18T13:57:32.950Z</time>
      </trkpt>
      <trkpt lat="44.1793" lon="5.28263">
        <ele>1642.44499968</ele>
        <time>2015-05-18T13:57:42.930Z</time>
      </trkpt>
      <trkpt lat="44.17936" lon="5.28278">
        <ele>1641.62299904</ele>
        <time>2015-05-18T13:57:51.150Z</time>
      </trkpt>
      <trkpt lat="44.17932" lon="5.28297">
        <ele>1640.2149952</ele>
        <time>2015-05-18T13:57:58.950Z</time>
      </trkpt>
      <trkpt lat="44.17938" lon="5.28316">
        <ele>1636</ele>
        <time>2015-05-18T13:58:11.150Z</time>
      </trkpt>
      <trkpt lat="44.17946" lon="5.28335">
        <ele>1635.82299904</ele>
        <time>2015-05-18T13:58:19.150Z</time>
      </trkpt>
      <trkpt lat="44.17935" lon="5.28369">
        <ele>1633.6249984</ele>
        <time>2015-05-18T13:58:30.130Z</time>
      </trkpt>
      <trkpt lat="44.17928" lon="5.28386">
        <ele>1630.6249984</ele>
        <time>2015-05-18T13:58:36.130Z</time>
      </trkpt>
      <trkpt lat="44.17916" lon="5.28403">
        <ele>1628.68999936</ele>
        <time>2015-05-18T13:58:43.930Z</time>
      </trkpt>
      <trkpt lat="44.17896" lon="5.2843">
        <ele>1627.14299904</ele>
        <time>2015-05-18T13:58:55.950Z</time>
      </trkpt>
      <trkpt lat="44.17885" lon="5.28437">
        <ele>1624.37199616</ele>
        <time>2015-05-18T13:59:03.950Z</time>
      </trkpt>
      <trkpt lat="44.17869" lon="5.28441">
        <ele>1623</ele>
        <time>2015-05-18T13:59:11.950Z</time>
      </trkpt>
      <trkpt lat="44.17856" lon="5.28449">
        <ele>1621.7149952</ele>
        <time>2015-05-18T13:59:19.950Z</time>
      </trkpt>
      <trkpt lat="44.17843" lon="5.28456">
        <ele>1618.6149952</ele>
        <time>2015-05-18T13:59:26.150Z</time>
      </trkpt>
      <trkpt lat="44.17831" lon="5.28471">
        <ele>1615.06899712</ele>
        <time>2015-05-18T13:59:37.150Z</time>
      </trkpt>
      <trkpt lat="44.17842" lon="5.28473">
        <ele>1609.28599808</ele>
        <time>2015-05-18T14:00:00.950Z</time>
      </trkpt>
      <trkpt lat="44.17855" lon="5.28473">
        <ele>1607.84299904</ele>
        <time>2015-05-18T14:00:08.950Z</time>
      </trkpt>
      <trkpt lat="44.17878" lon="5.28476">
        <ele>1606.64299904</ele>
        <time>2015-05-18T14:00:20.950Z</time>
      </trkpt>
      <trkpt lat="44.1789" lon="5.28474">
        <ele>1604.1249984</ele>
        <time>2015-05-18T14:00:31.130Z</time>
      </trkpt>
      <trkpt lat="44.17903" lon="5.28473">
        <ele>1600.64999936</ele>
        <time>2015-05-18T14:00:39.130Z</time>
      </trkpt>
      <trkpt lat="44.17917" lon="5.28468">
        <ele>1599.04999936</ele>
        <time>2015-05-18T14:00:47.130Z</time>
      </trkpt>
      <trkpt lat="44.17931" lon="5.28459">
        <ele>1598.24299904</ele>
        <time>2015-05-18T14:00:54.950Z</time>
      </trkpt>
      <trkpt lat="44.17959" lon="5.28427">
        <ele>1593.17499904</ele>
        <time>2015-05-18T14:01:10.130Z</time>
      </trkpt>
      <trkpt lat="44.17973" lon="5.28417">
        <ele>1590.69999872</ele>
        <time>2015-05-18T14:01:18.130Z</time>
      </trkpt>
      <trkpt lat="44.17985" lon="5.28403">
        <ele>1587.57999872</ele>
        <time>2015-05-18T14:01:25.930Z</time>
      </trkpt>
      <trkpt lat="44.18007" lon="5.28387">
        <ele>1586.92299904</ele>
        <time>2015-05-18T14:01:38.150Z</time>
      </trkpt>
      <trkpt lat="44.18014" lon="5.28369">
        <ele>1585.48599808</ele>
        <time>2015-05-18T14:01:49.950Z</time>
      </trkpt>
      <trkpt lat="44.18017" lon="5.28341">
        <ele>1582.6249984</ele>
        <time>2015-05-18T14:02:00.130Z</time>
      </trkpt>
      <trkpt lat="44.18018" lon="5.28323">
        <ele>1579.6249984</ele>
        <time>2015-05-18T14:02:06.130Z</time>
      </trkpt>
      <trkpt lat="44.18014" lon="5.28306">
        <ele>1578.42499968</ele>
        <time>2015-05-18T14:02:13.130Z</time>
      </trkpt>
      <trkpt lat="44.18008" lon="5.28272">
        <ele>1578</ele>
        <time>2015-05-18T14:02:26.140Z</time>
      </trkpt>
      <trkpt lat="44.18008" lon="5.28243">
        <ele>1573.94399232</ele>
        <time>2015-05-18T14:02:34.140Z</time>
      </trkpt>
      <trkpt lat="44.18016" lon="5.28225">
        <ele>1570.09199616</ele>
        <time>2015-05-18T14:02:42.150Z</time>
      </trkpt>
      <trkpt lat="44.18034" lon="5.28196">
        <ele>1567.32299904</ele>
        <time>2015-05-18T14:02:54.150Z</time>
      </trkpt>
      <trkpt lat="44.18047" lon="5.28173">
        <ele>1564.29199616</ele>
        <time>2015-05-18T14:03:04.150Z</time>
      </trkpt>
      <trkpt lat="44.18055" lon="5.28148">
        <ele>1561.57199616</ele>
        <time>2015-05-18T14:03:12.140Z</time>
      </trkpt>
      <trkpt lat="44.18059" lon="5.28126">
        <ele>1559.72299904</ele>
        <time>2015-05-18T14:03:20.150Z</time>
      </trkpt>
      <trkpt lat="44.18067" lon="5.28103">
        <ele>1558.88599808</ele>
        <time>2015-05-18T14:03:27.950Z</time>
      </trkpt>
      <trkpt lat="44.18074" lon="5.28078">
        <ele>1557.28599808</ele>
        <time>2015-05-18T14:03:35.950Z</time>
      </trkpt>
      <trkpt lat="44.18076" lon="5.28059">
        <ele>1554.51499776</ele>
        <time>2015-05-18T14:03:40.930Z</time>
      </trkpt>
      <trkpt lat="44.18095" lon="5.28062">
        <ele>1548.28099712</ele>
        <time>2015-05-18T14:03:53.110Z</time>
      </trkpt>
      <trkpt lat="44.181" lon="5.28086">
        <ele>1546.44999936</ele>
        <time>2015-05-18T14:04:00.130Z</time>
      </trkpt>
      <trkpt lat="44.18103" lon="5.28117">
        <ele>1544.94499968</ele>
        <time>2015-05-18T14:04:07.930Z</time>
      </trkpt>
      <trkpt lat="44.18103" lon="5.28133">
        <ele>1544.42499968</ele>
        <time>2015-05-18T14:04:13.130Z</time>
      </trkpt>
      <trkpt lat="44.181" lon="5.28149">
        <ele>1543.46099328</ele>
        <time>2015-05-18T14:04:18.150Z</time>
      </trkpt>
      <trkpt lat="44.18092" lon="5.2818">
        <ele>1538.01499776</ele>
        <time>2015-05-18T14:04:25.930Z</time>
      </trkpt>
      <trkpt lat="44.18087" lon="5.28197">
        <ele>1536.24599808</ele>
        <time>2015-05-18T14:04:31.150Z</time>
      </trkpt>
      <trkpt lat="44.18088" lon="5.28221">
        <ele>1534.71599872</ele>
        <time>2015-05-18T14:04:38.090Z</time>
      </trkpt>
      <trkpt lat="44.18087" lon="5.28249">
        <ele>1531.11599872</ele>
        <time>2015-05-18T14:04:47.090Z</time>
      </trkpt>
      <trkpt lat="44.18091" lon="5.28273">
        <ele>1529.44999936</ele>
        <time>2015-05-18T14:04:55.130Z</time>
      </trkpt>
      <trkpt lat="44.18101" lon="5.28295">
        <ele>1527.26599808</ele>
        <time>2015-05-18T14:05:03.160Z</time>
      </trkpt>
      <trkpt lat="44.18118" lon="5.28325">
        <ele>1525.04599808</ele>
        <time>2015-05-18T14:05:12.150Z</time>
      </trkpt>
      <trkpt lat="44.18128" lon="5.28354">
        <ele>1522.34999808</ele>
        <time>2015-05-18T14:05:20.130Z</time>
      </trkpt>
      <trkpt lat="44.1812" lon="5.28383">
        <ele>1517.84599808</ele>
        <time>2015-05-18T14:05:28.150Z</time>
      </trkpt>
      <trkpt lat="44.18108" lon="5.28409">
        <ele>1515.72299904</ele>
        <time>2015-05-18T14:05:40.150Z</time>
      </trkpt>
      <trkpt lat="44.1811" lon="5.28424">
        <ele>1513.15300096</ele>
        <time>2015-05-18T14:06:08.910Z</time>
      </trkpt>
      <trkpt lat="44.18105" lon="5.2844">
        <ele>1513.42499968</ele>
        <time>2015-05-18T14:06:23.130Z</time>
      </trkpt>
      <trkpt lat="44.18098" lon="5.28456">
        <ele>1511.88999936</ele>
        <time>2015-05-18T14:06:32.930Z</time>
      </trkpt>
      <trkpt lat="44.18093" lon="5.2847">
        <ele>1510.64499968</ele>
        <time>2015-05-18T14:06:40.930Z</time>
      </trkpt>
      <trkpt lat="44.18086" lon="5.28483">
        <ele>1509.84299904</ele>
        <time>2015-05-18T14:06:48.950Z</time>
      </trkpt>
      <trkpt lat="44.18083" lon="5.28498">
        <ele>1509.22299904</ele>
        <time>2015-05-18T14:06:55.150Z</time>
      </trkpt>
      <trkpt lat="44.18076" lon="5.2851">
        <ele>1507.84999936</ele>
        <time>2015-05-18T14:07:03.130Z</time>
      </trkpt>
      <trkpt lat="44.18073" lon="5.28524">
        <ele>1504.57500032</ele>
        <time>2015-05-18T14:07:43.130Z</time>
      </trkpt>
      <trkpt lat="44.18065" lon="5.2854">
        <ele>1504.02499968</ele>
        <time>2015-05-18T14:08:17.130Z</time>
      </trkpt>
      <trkpt lat="44.1804" lon="5.28572">
        <ele>1498.48099712</ele>
        <time>2015-05-18T14:08:29.110Z</time>
      </trkpt>
      <trkpt lat="44.18021" lon="5.28602">
        <ele>1494.87499904</ele>
        <time>2015-05-18T14:08:41.130Z</time>
      </trkpt>
      <trkpt lat="44.18037" lon="5.28591">
        <ele>1490.1249984</ele>
        <time>2015-05-18T14:09:01.130Z</time>
      </trkpt>
      <trkpt lat="44.18048" lon="5.28584">
        <ele>1487</ele>
        <time>2015-05-18T14:09:12.950Z</time>
      </trkpt>
      <trkpt lat="44.18062" lon="5.28574">
        <ele>1486.44499968</ele>
        <time>2015-05-18T14:09:22.930Z</time>
      </trkpt>
      <trkpt lat="44.1808" lon="5.28561">
        <ele>1484.57199616</ele>
        <time>2015-05-18T14:09:30.950Z</time>
      </trkpt>
      <trkpt lat="44.18095" lon="5.28546">
        <ele>1481.37199616</ele>
        <time>2015-05-18T14:09:38.950Z</time>
      </trkpt>
      <trkpt lat="44.1811" lon="5.28532">
        <ele>1478.17199616</ele>
        <time>2015-05-18T14:09:46.950Z</time>
      </trkpt>
      <trkpt lat="44.1813" lon="5.28507">
        <ele>1476.04599808</ele>
        <time>2015-05-18T14:09:57.150Z</time>
      </trkpt>
      <trkpt lat="44.18145" lon="5.28489">
        <ele>1472.68</ele>
        <time>2015-05-18T14:10:04.020Z</time>
      </trkpt>
      <trkpt lat="44.18172" lon="5.28464">
        <ele>1469.26999808</ele>
        <time>2015-05-18T14:10:16.030Z</time>
      </trkpt>
      <trkpt lat="44.1819" lon="5.28453">
        <ele>1468.33299968</ele>
        <time>2015-05-18T14:10:24.050Z</time>
      </trkpt>
      <trkpt lat="44.18207" lon="5.28451">
        <ele>1465.19799808</ele>
        <time>2015-05-18T14:10:32.050Z</time>
      </trkpt>
      <trkpt lat="44.18218" lon="5.2846">
        <ele>1460.6649984</ele>
        <time>2015-05-18T14:10:40.050Z</time>
      </trkpt>
      <trkpt lat="44.18228" lon="5.28472">
        <ele>1453.99899904</ele>
        <time>2015-05-18T14:11:04.050Z</time>
      </trkpt>
      <trkpt lat="44.18239" lon="5.28478">
        <ele>1453</ele>
        <time>2015-05-18T14:11:12.050Z</time>
      </trkpt>
      <trkpt lat="44.18253" lon="5.28478">
        <ele>1453</ele>
        <time>2015-05-18T14:11:24.050Z</time>
      </trkpt>
      <trkpt lat="44.18258" lon="5.28468">
        <ele>1452.53299968</ele>
        <time>2015-05-18T14:11:32.050Z</time>
      </trkpt>
      <trkpt lat="44.18262" lon="5.28451">
        <ele>1451.33499904</ele>
        <time>2015-05-18T14:11:44.030Z</time>
      </trkpt>
      <trkpt lat="44.18263" lon="5.28437">
        <ele>1449.59899904</ele>
        <time>2015-05-18T14:11:52.050Z</time>
      </trkpt>
      <trkpt lat="44.18268" lon="5.28422">
        <ele>1445.99899904</ele>
        <time>2015-05-18T14:12:04.050Z</time>
      </trkpt>
      <trkpt lat="44.18269" lon="5.284">
        <ele>1445</ele>
        <time>2015-05-18T14:12:16.050Z</time>
      </trkpt>
      <trkpt lat="44.18265" lon="5.28381">
        <ele>1444</ele>
        <time>2015-05-18T14:12:28.050Z</time>
      </trkpt>
      <trkpt lat="44.18263" lon="5.28368">
        <ele>1444</ele>
        <time>2015-05-18T14:12:36.050Z</time>
      </trkpt>
      <trkpt lat="44.18261" lon="5.28352">
        <ele>1444</ele>
        <time>2015-05-18T14:12:44.050Z</time>
      </trkpt>
      <trkpt lat="44.18255" lon="5.28335">
        <ele>1444</ele>
        <time>2015-05-18T14:12:56.050Z</time>
      </trkpt>
      <trkpt lat="44.18246" lon="5.28318">
        <ele>1440.93299968</ele>
        <time>2015-05-18T14:13:08.050Z</time>
      </trkpt>
      <trkpt lat="44.1824" lon="5.28306">
        <ele>1440.13299968</ele>
        <time>2015-05-18T14:13:16.050Z</time>
      </trkpt>
      <trkpt lat="44.18235" lon="5.28288">
        <ele>1439.33299968</ele>
        <time>2015-05-18T14:13:24.050Z</time>
      </trkpt>
      <trkpt lat="44.18233" lon="5.2827">
        <ele>1438.53299968</ele>
        <time>2015-05-18T14:13:32.050Z</time>
      </trkpt>
      <trkpt lat="44.18232" lon="5.28254">
        <ele>1437.46599936</ele>
        <time>2015-05-18T14:13:40.050Z</time>
      </trkpt>
      <trkpt lat="44.18236" lon="5.2824">
        <ele>1435.93299968</ele>
        <time>2015-05-18T14:13:48.050Z</time>
      </trkpt>
      <trkpt lat="44.18244" lon="5.28229">
        <ele>1435.13299968</ele>
        <time>2015-05-18T14:13:56.050Z</time>
      </trkpt>
      <trkpt lat="44.18256" lon="5.28221">
        <ele>1432.06899712</ele>
        <time>2015-05-18T14:14:07.150Z</time>
      </trkpt>
      <trkpt lat="44.18267" lon="5.28213">
        <ele>1431.22499968</ele>
        <time>2015-05-18T14:14:15.130Z</time>
      </trkpt>
      <trkpt lat="44.18282" lon="5.28203">
        <ele>1430.44299904</ele>
        <time>2015-05-18T14:14:22.950Z</time>
      </trkpt>
      <trkpt lat="44.18295" lon="5.28189">
        <ele>1430</ele>
        <time>2015-05-18T14:14:32.930Z</time>
      </trkpt>
      <trkpt lat="44.18313" lon="5.28169">
        <ele>1426.97199616</ele>
        <time>2015-05-18T14:14:44.950Z</time>
      </trkpt>
      <trkpt lat="44.1832" lon="5.28153">
        <ele>1426</ele>
        <time>2015-05-18T14:14:56.950Z</time>
      </trkpt>
      <trkpt lat="44.18326" lon="5.28141">
        <ele>1424.24599808</ele>
        <time>2015-05-18T14:15:06.150Z</time>
      </trkpt>
      <trkpt lat="44.1833" lon="5.28123">
        <ele>1424</ele>
        <time>2015-05-18T14:15:14.130Z</time>
      </trkpt>
      <trkpt lat="44.18334" lon="5.28106">
        <ele>1423.52299904</ele>
        <time>2015-05-18T14:15:22.150Z</time>
      </trkpt>
      <trkpt lat="44.18334" lon="5.28091">
        <ele>1422.64499968</ele>
        <time>2015-05-18T14:15:30.930Z</time>
      </trkpt>
      <trkpt lat="44.18333" lon="5.28069">
        <ele>1421.42499968</ele>
        <time>2015-05-18T14:15:43.130Z</time>
      </trkpt>
      <trkpt lat="44.18334" lon="5.2805">
        <ele>1420.62299904</ele>
        <time>2015-05-18T14:15:51.150Z</time>
      </trkpt>
      <trkpt lat="44.18342" lon="5.28038">
        <ele>1419.24999936</ele>
        <time>2015-05-18T14:16:01.130Z</time>
      </trkpt>
      <trkpt lat="44.18356" lon="5.28042">
        <ele>1417.64999936</ele>
        <time>2015-05-18T14:16:09.130Z</time>
      </trkpt>
      <trkpt lat="44.18378" lon="5.28054">
        <ele>1414.6349952</ele>
        <time>2015-05-18T14:16:20.110Z</time>
      </trkpt>
      <trkpt lat="44.18396" lon="5.28065">
        <ele>1411</ele>
        <time>2015-05-18T14:16:31.140Z</time>
      </trkpt>
      <trkpt lat="44.18409" lon="5.28075">
        <ele>1411</ele>
        <time>2015-05-18T14:16:39.130Z</time>
      </trkpt>
      <trkpt lat="44.18416" lon="5.28087">
        <ele>1411.37500032</ele>
        <time>2015-05-18T14:16:51.130Z</time>
      </trkpt>
      <trkpt lat="44.18429" lon="5.28091">
        <ele>1414.95600128</ele>
        <time>2015-05-18T14:17:16.940Z</time>
      </trkpt>
      <trkpt lat="44.18444" lon="5.28101">
        <ele>1415</ele>
        <time>2015-05-18T14:17:28.130Z</time>
      </trkpt>
      <trkpt lat="44.18453" lon="5.28111">
        <ele>1415</ele>
        <time>2015-05-18T14:17:36.130Z</time>
      </trkpt>
      <trkpt lat="44.18461" lon="5.2813">
        <ele>1413.94299904</ele>
        <time>2015-05-18T14:17:47.950Z</time>
      </trkpt>
      <trkpt lat="44.18476" lon="5.28148">
        <ele>1412.86999808</ele>
        <time>2015-05-18T14:17:58.030Z</time>
      </trkpt>
      <trkpt lat="44.18483" lon="5.2817">
        <ele>1411.26999808</ele>
        <time>2015-05-18T14:18:06.030Z</time>
      </trkpt>
      <trkpt lat="44.18488" lon="5.28183">
        <ele>1411</ele>
        <time>2015-05-18T14:18:13.940Z</time>
      </trkpt>
      <trkpt lat="44.18494" lon="5.28201">
        <ele>1410.34299904</ele>
        <time>2015-05-18T14:18:23.950Z</time>
      </trkpt>
      <trkpt lat="44.18505" lon="5.28217">
        <ele>1409.06399744</ele>
        <time>2015-05-18T14:18:32.060Z</time>
      </trkpt>
      <trkpt lat="44.18513" lon="5.28229">
        <ele>1406.62899712</ele>
        <time>2015-05-18T14:18:41.950Z</time>
      </trkpt>
      <trkpt lat="44.18525" lon="5.2824">
        <ele>1404.23499904</ele>
        <time>2015-05-18T14:18:49.930Z</time>
      </trkpt>
      <trkpt lat="44.18531" lon="5.28255">
        <ele>1400.57499904</ele>
        <time>2015-05-18T14:19:02.130Z</time>
      </trkpt>
      <trkpt lat="44.18541" lon="5.28259">
        <ele>1398.74299904</ele>
        <time>2015-05-18T14:19:09.950Z</time>
      </trkpt>
      <trkpt lat="44.18552" lon="5.28271">
        <ele>1397.88599808</ele>
        <time>2015-05-18T14:19:17.950Z</time>
      </trkpt>
      <trkpt lat="44.18566" lon="5.28285">
        <ele>1394.84399872</ele>
        <time>2015-05-18T14:19:33.160Z</time>
      </trkpt>
      <trkpt lat="44.1858" lon="5.28285">
        <ele>1392.50399744</ele>
        <time>2015-05-18T14:19:44.860Z</time>
      </trkpt>
      <trkpt lat="44.18593" lon="5.28281">
        <ele>1390.2199936</ele>
        <time>2015-05-18T14:19:58.940Z</time>
      </trkpt>
      <trkpt lat="44.18583" lon="5.28303">
        <ele>1384.92899712</ele>
        <time>2015-05-18T14:20:10.950Z</time>
      </trkpt>
      <trkpt lat="44.18571" lon="5.28318">
        <ele>1381.688</ele>
        <time>2015-05-18T14:20:23.940Z</time>
      </trkpt>
      <trkpt lat="44.18559" lon="5.28314">
        <ele>1380.54299904</ele>
        <time>2015-05-18T14:20:31.950Z</time>
      </trkpt>
      <trkpt lat="44.1855" lon="5.28307">
        <ele>1380</ele>
        <time>2015-05-18T14:20:41.930Z</time>
      </trkpt>
      <trkpt lat="44.18547" lon="5.28293">
        <ele>1380</ele>
        <time>2015-05-18T14:20:49.950Z</time>
      </trkpt>
      <trkpt lat="44.18537" lon="5.28298">
        <ele>1378.62899712</ele>
        <time>2015-05-18T14:21:01.950Z</time>
      </trkpt>
      <trkpt lat="44.18529" lon="5.28306">
        <ele>1376.74299904</ele>
        <time>2015-05-18T14:21:09.950Z</time>
      </trkpt>
      <trkpt lat="44.18514" lon="5.28303">
        <ele>1375.82899712</ele>
        <time>2015-05-18T14:21:17.950Z</time>
      </trkpt>
      <trkpt lat="44.18497" lon="5.28297">
        <ele>1373.42899712</ele>
        <time>2015-05-18T14:21:25.950Z</time>
      </trkpt>
      <trkpt lat="44.18486" lon="5.28294">
        <ele>1372.32299904</ele>
        <time>2015-05-18T14:21:34.150Z</time>
      </trkpt>
      <trkpt lat="44.18474" lon="5.28291">
        <ele>1370.97999872</ele>
        <time>2015-05-18T14:21:39.930Z</time>
      </trkpt>
      <trkpt lat="44.18453" lon="5.28282">
        <ele>1367.69999872</ele>
        <time>2015-05-18T14:21:48.130Z</time>
      </trkpt>
      <trkpt lat="44.18442" lon="5.28271">
        <ele>1365.37999872</ele>
        <time>2015-05-18T14:21:53.930Z</time>
      </trkpt>
      <trkpt lat="44.18434" lon="5.2825">
        <ele>1363.28999936</ele>
        <time>2015-05-18T14:22:00.930Z</time>
      </trkpt>
      <trkpt lat="44.18418" lon="5.28244">
        <ele>1361.05199872</ele>
        <time>2015-05-18T14:22:16.860Z</time>
      </trkpt>
      <trkpt lat="44.18417" lon="5.28261">
        <ele>1357.66099328</ele>
        <time>2015-05-18T14:22:22.150Z</time>
      </trkpt>
      <trkpt lat="44.18409" lon="5.28305">
        <ele>1348.56099328</ele>
        <time>2015-05-18T14:22:35.150Z</time>
      </trkpt>
      <trkpt lat="44.18408" lon="5.28327">
        <ele>1344.67499904</ele>
        <time>2015-05-18T14:22:45.130Z</time>
      </trkpt>
      <trkpt lat="44.18408" lon="5.28341">
        <ele>1344</ele>
        <time>2015-05-18T14:22:53.130Z</time>
      </trkpt>
      <trkpt lat="44.18411" lon="5.28365">
        <ele>1341.07499904</ele>
        <time>2015-05-18T14:23:07.130Z</time>
      </trkpt>
      <trkpt lat="44.18419" lon="5.28384">
        <ele>1340.24499968</ele>
        <time>2015-05-18T14:23:14.930Z</time>
      </trkpt>
      <trkpt lat="44.18425" lon="5.28414">
        <ele>1336.1149952</ele>
        <time>2015-05-18T14:23:25.150Z</time>
      </trkpt>
      <trkpt lat="44.18426" lon="5.28428">
        <ele>1333.27499904</ele>
        <time>2015-05-18T14:23:33.130Z</time>
      </trkpt>
      <trkpt lat="44.18422" lon="5.28454">
        <ele>1331.52499968</ele>
        <time>2015-05-18T14:23:42.130Z</time>
      </trkpt>
      <trkpt lat="44.18429" lon="5.28487">
        <ele>1328.97499904</ele>
        <time>2015-05-18T14:23:54.130Z</time>
      </trkpt>
      <trkpt lat="44.18438" lon="5.28506">
        <ele>1324.928</ele>
        <time>2015-05-18T14:24:05.060Z</time>
      </trkpt>
      <trkpt lat="44.18446" lon="5.2854">
        <ele>1323.02499968</ele>
        <time>2015-05-18T14:24:17.130Z</time>
      </trkpt>
      <trkpt lat="44.18445" lon="5.28558">
        <ele>1322</ele>
        <time>2015-05-18T14:24:28.950Z</time>
      </trkpt>
      <trkpt lat="44.18435" lon="5.2857">
        <ele>1322</ele>
        <time>2015-05-18T14:24:37.150Z</time>
      </trkpt>
      <trkpt lat="44.18434" lon="5.28588">
        <ele>1318.1149952</ele>
        <time>2015-05-18T14:24:45.150Z</time>
      </trkpt>
      <trkpt lat="44.18436" lon="5.28604">
        <ele>1315.84599808</ele>
        <time>2015-05-18T14:24:53.150Z</time>
      </trkpt>
      <trkpt lat="44.18431" lon="5.28618">
        <ele>1314.13399936</ele>
        <time>2015-05-18T14:25:06.040Z</time>
      </trkpt>
      <trkpt lat="44.18425" lon="5.28633">
        <ele>1312.94299904</ele>
        <time>2015-05-18T14:25:17.950Z</time>
      </trkpt>
      <trkpt lat="44.18421" lon="5.28652">
        <ele>1311.72299904</ele>
        <time>2015-05-18T14:25:30.150Z</time>
      </trkpt>
      <trkpt lat="44.18421" lon="5.28671">
        <ele>1310.88599808</ele>
        <time>2015-05-18T14:25:37.950Z</time>
      </trkpt>
      <trkpt lat="44.18415" lon="5.28686">
        <ele>1309.08599808</ele>
        <time>2015-05-18T14:25:46.950Z</time>
      </trkpt>
      <trkpt lat="44.18402" lon="5.287">
        <ele>1307.48599808</ele>
        <time>2015-05-18T14:25:54.950Z</time>
      </trkpt>
      <trkpt lat="44.18398" lon="5.28714">
        <ele>1306.02299904</ele>
        <time>2015-05-18T14:26:07.150Z</time>
      </trkpt>
      <trkpt lat="44.18395" lon="5.28732">
        <ele>1306</ele>
        <time>2015-05-18T14:26:14.930Z</time>
      </trkpt>
      <trkpt lat="44.18381" lon="5.28746">
        <ele>1305.44299904</ele>
        <time>2015-05-18T14:26:22.950Z</time>
      </trkpt>
      <trkpt lat="44.18366" lon="5.28757">
        <ele>1304.54599936</ele>
        <time>2015-05-18T14:26:31.920Z</time>
      </trkpt>
      <trkpt lat="44.18346" lon="5.28761">
        <ele>1303.74299904</ele>
        <time>2015-05-18T14:26:39.950Z</time>
      </trkpt>
      <trkpt lat="44.1834" lon="5.28775">
        <ele>1302.54299904</ele>
        <time>2015-05-18T14:26:51.950Z</time>
      </trkpt>
      <trkpt lat="44.18314" lon="5.28789">
        <ele>1299</ele>
        <time>2015-05-18T14:27:07.950Z</time>
      </trkpt>
      <trkpt lat="44.18303" lon="5.288">
        <ele>1298.92499968</ele>
        <time>2015-05-18T14:27:18.130Z</time>
      </trkpt>
      <trkpt lat="44.18309" lon="5.28815">
        <ele>1298</ele>
        <time>2015-05-18T14:27:28.130Z</time>
      </trkpt>
      <trkpt lat="44.18312" lon="5.28837">
        <ele>1298</ele>
        <time>2015-05-18T14:27:36.130Z</time>
      </trkpt>
      <trkpt lat="44.18317" lon="5.28852">
        <ele>1294.7149952</ele>
        <time>2015-05-18T14:27:43.950Z</time>
      </trkpt>
      <trkpt lat="44.18314" lon="5.28865">
        <ele>1292.08599808</ele>
        <time>2015-05-18T14:27:51.950Z</time>
      </trkpt>
      <trkpt lat="44.18332" lon="5.28885">
        <ele>1288.96899712</ele>
        <time>2015-05-18T14:28:04.150Z</time>
      </trkpt>
      <trkpt lat="44.18342" lon="5.28891">
        <ele>1287.24299904</ele>
        <time>2015-05-18T14:28:14.950Z</time>
      </trkpt>
      <trkpt lat="44.18351" lon="5.289">
        <ele>1287</ele>
        <time>2015-05-18T14:28:23.150Z</time>
      </trkpt>
      <trkpt lat="44.18358" lon="5.28916">
        <ele>1286.24599808</ele>
        <time>2015-05-18T14:28:31.150Z</time>
      </trkpt>
      <trkpt lat="44.1837" lon="5.28919">
        <ele>1283.84599808</ele>
        <time>2015-05-18T14:28:43.150Z</time>
      </trkpt>
      <trkpt lat="44.1838" lon="5.28926">
        <ele>1282.24599808</ele>
        <time>2015-05-18T14:28:51.150Z</time>
      </trkpt>
      <trkpt lat="44.1839" lon="5.28932">
        <ele>1280.64599808</ele>
        <time>2015-05-18T14:28:59.150Z</time>
      </trkpt>
      <trkpt lat="44.184" lon="5.2894">
        <ele>1279</ele>
        <time>2015-05-18T14:29:07.930Z</time>
      </trkpt>
      <trkpt lat="44.18411" lon="5.28957">
        <ele>1279</ele>
        <time>2015-05-18T14:29:15.930Z</time>
      </trkpt>
      <trkpt lat="44.18421" lon="5.28969">
        <ele>1277.94299904</ele>
        <time>2015-05-18T14:29:27.950Z</time>
      </trkpt>
      <trkpt lat="44.18432" lon="5.28979">
        <ele>1276.74299904</ele>
        <time>2015-05-18T14:29:39.950Z</time>
      </trkpt>
      <trkpt lat="44.1844" lon="5.28987">
        <ele>1275.94299904</ele>
        <time>2015-05-18T14:29:47.950Z</time>
      </trkpt>
      <trkpt lat="44.18447" lon="5.28997">
        <ele>1275.14299904</ele>
        <time>2015-05-18T14:29:55.950Z</time>
      </trkpt>
      <trkpt lat="44.18456" lon="5.29003">
        <ele>1273.704</ele>
        <time>2015-05-18T14:30:03.860Z</time>
      </trkpt>
      <trkpt lat="44.18466" lon="5.29013">
        <ele>1273</ele>
        <time>2015-05-18T14:30:11.950Z</time>
      </trkpt>
      <trkpt lat="44.18476" lon="5.29022">
        <ele>1272.48599808</ele>
        <time>2015-05-18T14:30:19.950Z</time>
      </trkpt>
      <trkpt lat="44.18491" lon="5.29033">
        <ele>1270.92299904</ele>
        <time>2015-05-18T14:30:28.150Z</time>
      </trkpt>
      <trkpt lat="44.185" lon="5.29044">
        <ele>1269.48999936</ele>
        <time>2015-05-18T14:30:39.930Z</time>
      </trkpt>
      <trkpt lat="44.18504" lon="5.29058">
        <ele>1267.88599808</ele>
        <time>2015-05-18T14:30:47.950Z</time>
      </trkpt>
      <trkpt lat="44.18512" lon="5.29071">
        <ele>1266.24599808</ele>
        <time>2015-05-18T14:30:56.150Z</time>
      </trkpt>
      <trkpt lat="44.18517" lon="5.29086">
        <ele>1263.29199616</ele>
        <time>2015-05-18T14:31:04.150Z</time>
      </trkpt>
      <trkpt lat="44.18525" lon="5.29105">
        <ele>1260.24599808</ele>
        <time>2015-05-18T14:31:16.150Z</time>
      </trkpt>
      <trkpt lat="44.18528" lon="5.2912">
        <ele>1258.64599808</ele>
        <time>2015-05-18T14:31:24.150Z</time>
      </trkpt>
      <trkpt lat="44.18526" lon="5.29137">
        <ele>1256.09599488</ele>
        <time>2015-05-18T14:31:32.140Z</time>
      </trkpt>
      <trkpt lat="44.18521" lon="5.29153">
        <ele>1254</ele>
        <time>2015-05-18T14:31:42.150Z</time>
      </trkpt>
      <trkpt lat="44.18531" lon="5.29147">
        <ele>1250.09199616</ele>
        <time>2015-05-18T14:32:02.150Z</time>
      </trkpt>
      <trkpt lat="44.18541" lon="5.29145">
        <ele>1247.72299904</ele>
        <time>2015-05-18T14:32:10.150Z</time>
      </trkpt>
      <trkpt lat="44.18546" lon="5.29131">
        <ele>1246.54299904</ele>
        <time>2015-05-18T14:32:21.950Z</time>
      </trkpt>
      <trkpt lat="44.18545" lon="5.29114">
        <ele>1245.44999936</ele>
        <time>2015-05-18T14:32:30.130Z</time>
      </trkpt>
      <trkpt lat="44.18542" lon="5.29086">
        <ele>1243.69599488</ele>
        <time>2015-05-18T14:32:38.140Z</time>
      </trkpt>
      <trkpt lat="44.18545" lon="5.29043">
        <ele>1238.09999872</ele>
        <time>2015-05-18T14:32:52.130Z</time>
      </trkpt>
      <trkpt lat="44.18535" lon="5.29003">
        <ele>1232.72499968</ele>
        <time>2015-05-18T14:33:10.130Z</time>
      </trkpt>
      <trkpt lat="44.18524" lon="5.29">
        <ele>1232.04399872</ele>
        <time>2015-05-18T14:33:16.940Z</time>
      </trkpt>
      <trkpt lat="44.18514" lon="5.28989">
        <ele>1229.5315310814</ele>
        <time>2015-05-18T14:33:28.950Z</time>
      </trkpt>
      <trkpt lat="44.18503" lon="5.28981">
        <ele>1227.1291263703</ele>
        <time>2015-05-18T14:33:36.950Z</time>
      </trkpt>
      <trkpt lat="44.18496" lon="5.28968">
        <ele>1226.24299904</ele>
        <time>2015-05-18T14:33:44.950Z</time>
      </trkpt>
      <trkpt lat="44.18491" lon="5.28953">
        <ele>1224.88599808</ele>
        <time>2015-05-18T14:33:52.950Z</time>
      </trkpt>
      <trkpt lat="44.18486" lon="5.28941">
        <ele>1223.28599808</ele>
        <time>2015-05-18T14:34:00.950Z</time>
      </trkpt>
      <trkpt lat="44.18473" lon="5.28923">
        <ele>1221.54299904</ele>
        <time>2015-05-18T14:34:11.950Z</time>
      </trkpt>
      <trkpt lat="44.18462" lon="5.28896">
        <ele>1220.32499968</ele>
        <time>2015-05-18T14:34:24.130Z</time>
      </trkpt>
      <trkpt lat="44.18453" lon="5.2886">
        <ele>1215.1249984</ele>
        <time>2015-05-18T14:34:37.130Z</time>
      </trkpt>
      <trkpt lat="44.18472" lon="5.28834">
        <ele>1214.21199616</ele>
        <time>2015-05-18T14:34:49.350Z</time>
      </trkpt>
      <trkpt lat="44.18484" lon="5.28819">
        <ele>1211.17199616</ele>
        <time>2015-05-18T14:34:56.950Z</time>
      </trkpt>
      <trkpt lat="44.18494" lon="5.28808">
        <ele>1208.73499904</ele>
        <time>2015-05-18T14:35:04.930Z</time>
      </trkpt>
      <trkpt lat="44.18506" lon="5.28793">
        <ele>1207.04299904</ele>
        <time>2015-05-18T14:35:16.950Z</time>
      </trkpt>
      <trkpt lat="44.18513" lon="5.28773">
        <ele>1205.48599808</ele>
        <time>2015-05-18T14:35:24.950Z</time>
      </trkpt>
      <trkpt lat="44.18523" lon="5.28757">
        <ele>1204.04299904</ele>
        <time>2015-05-18T14:35:36.950Z</time>
      </trkpt>
      <trkpt lat="44.18528" lon="5.28742">
        <ele>1199.04599808</ele>
        <time>2015-05-18T14:35:52.150Z</time>
      </trkpt>
      <trkpt lat="44.18542" lon="5.28724">
        <ele>1196.44999936</ele>
        <time>2015-05-18T14:36:05.130Z</time>
      </trkpt>
      <trkpt lat="44.18554" lon="5.2871">
        <ele>1196</ele>
        <time>2015-05-18T14:36:16.140Z</time>
      </trkpt>
      <trkpt lat="44.18561" lon="5.28696">
        <ele>1195.32499968</ele>
        <time>2015-05-18T14:36:24.130Z</time>
      </trkpt>
      <trkpt lat="44.18568" lon="5.28684">
        <ele>1194.50299904</ele>
        <time>2015-05-18T14:36:32.350Z</time>
      </trkpt>
      <trkpt lat="44.18574" lon="5.28668">
        <ele>1193.08599808</ele>
        <time>2015-05-18T14:36:41.950Z</time>
      </trkpt>
      <trkpt lat="44.18586" lon="5.28655">
        <ele>1191.24999936</ele>
        <time>2015-05-18T14:36:51.130Z</time>
      </trkpt>
      <trkpt lat="44.18599" lon="5.28642">
        <ele>1186.832</ele>
        <time>2015-05-18T14:37:09.060Z</time>
      </trkpt>
      <trkpt lat="44.18611" lon="5.28636">
        <ele>1185.92499968</ele>
        <time>2015-05-18T14:37:18.130Z</time>
      </trkpt>
      <trkpt lat="44.18622" lon="5.28636">
        <ele>1184.24999936</ele>
        <time>2015-05-18T14:37:31.130Z</time>
      </trkpt>
      <trkpt lat="44.18628" lon="5.28648">
        <ele>1182.04399872</ele>
        <time>2015-05-18T14:37:46.940Z</time>
      </trkpt>
      <trkpt lat="44.18623" lon="5.28665">
        <ele>1178</ele>
        <time>2015-05-18T14:38:08.130Z</time>
      </trkpt>
      <trkpt lat="44.18614" lon="5.28674">
        <ele>1178</ele>
        <time>2015-05-18T14:38:15.930Z</time>
      </trkpt>
      <trkpt lat="44.1861" lon="5.28689">
        <ele>1176.44599808</ele>
        <time>2015-05-18T14:38:25.150Z</time>
      </trkpt>
      <trkpt lat="44.18602" lon="5.28703">
        <ele>1175.44499968</ele>
        <time>2015-05-18T14:38:32.930Z</time>
      </trkpt>
      <trkpt lat="44.18596" lon="5.28715">
        <ele>1173.28599808</ele>
        <time>2015-05-18T14:38:45.950Z</time>
      </trkpt>
      <trkpt lat="44.18593" lon="5.28738">
        <ele>1171.69199616</ele>
        <time>2015-05-18T14:38:58.150Z</time>
      </trkpt>
      <trkpt lat="44.18585" lon="5.28755">
        <ele>1168.57199616</ele>
        <time>2015-05-18T14:39:05.950Z</time>
      </trkpt>
      <trkpt lat="44.18584" lon="5.2877">
        <ele>1167.32299904</ele>
        <time>2015-05-18T14:39:14.150Z</time>
      </trkpt>
      <trkpt lat="44.1858" lon="5.28786">
        <ele>1166.24299904</ele>
        <time>2015-05-18T14:39:24.950Z</time>
      </trkpt>
      <trkpt lat="44.18578" lon="5.28803">
        <ele>1164.88599808</ele>
        <time>2015-05-18T14:39:32.950Z</time>
      </trkpt>
      <trkpt lat="44.18582" lon="5.28821">
        <ele>1163.22299904</ele>
        <time>2015-05-18T14:39:45.150Z</time>
      </trkpt>
      <trkpt lat="44.18576" lon="5.28841">
        <ele>1161.84599808</ele>
        <time>2015-05-18T14:39:53.150Z</time>
      </trkpt>
      <trkpt lat="44.1858" lon="5.28858">
        <ele>1159.44599808</ele>
        <time>2015-05-18T14:40:05.150Z</time>
      </trkpt>
      <trkpt lat="44.18594" lon="5.28865">
        <ele>1157.26899712</ele>
        <time>2015-05-18T14:40:13.150Z</time>
      </trkpt>
      <trkpt lat="44.1861" lon="5.28876">
        <ele>1153.73799424</ele>
        <time>2015-05-18T14:40:21.150Z</time>
      </trkpt>
      <trkpt lat="44.18627" lon="5.28892">
        <ele>1149.29199616</ele>
        <time>2015-05-18T14:40:29.150Z</time>
      </trkpt>
      <trkpt lat="44.18639" lon="5.28904">
        <ele>1146.09199616</ele>
        <time>2015-05-18T14:40:37.150Z</time>
      </trkpt>
      <trkpt lat="44.18653" lon="5.2892">
        <ele>1145.22299904</ele>
        <time>2015-05-18T14:40:45.150Z</time>
      </trkpt>
      <trkpt lat="44.18669" lon="5.28939">
        <ele>1141.53799424</ele>
        <time>2015-05-18T14:40:53.150Z</time>
      </trkpt>
      <trkpt lat="44.18683" lon="5.2896">
        <ele>1137.49199616</ele>
        <time>2015-05-18T14:41:01.150Z</time>
      </trkpt>
      <trkpt lat="44.18692" lon="5.28987">
        <ele>1134.29199616</ele>
        <time>2015-05-18T14:41:09.150Z</time>
      </trkpt>
      <trkpt lat="44.18697" lon="5.29014">
        <ele>1131.09199616</ele>
        <time>2015-05-18T14:41:17.150Z</time>
      </trkpt>
      <trkpt lat="44.1871" lon="5.29031">
        <ele>1128.66899712</ele>
        <time>2015-05-18T14:41:25.150Z</time>
      </trkpt>
      <trkpt lat="44.18723" lon="5.29046">
        <ele>1125.69999872</ele>
        <time>2015-05-18T14:41:33.130Z</time>
      </trkpt>
      <trkpt lat="44.18732" lon="5.29064">
        <ele>1122.49199616</ele>
        <time>2015-05-18T14:41:41.150Z</time>
      </trkpt>
      <trkpt lat="44.18742" lon="5.29082">
        <ele>1119.68599808</ele>
        <time>2015-05-18T14:41:48.950Z</time>
      </trkpt>
      <trkpt lat="44.1875" lon="5.29091">
        <ele>1118.64599808</ele>
        <time>2015-05-18T14:41:54.150Z</time>
      </trkpt>
      <trkpt lat="44.18767" lon="5.29118">
        <ele>1116.12799488</ele>
        <time>2015-05-18T14:42:02.060Z</time>
      </trkpt>
      <trkpt lat="44.18777" lon="5.29132">
        <ele>1114.128</ele>
        <time>2015-05-18T14:42:07.060Z</time>
      </trkpt>
      <trkpt lat="44.18789" lon="5.29165">
        <ele>1112.37999872</ele>
        <time>2015-05-18T14:42:18.930Z</time>
      </trkpt>
      <trkpt lat="44.18799" lon="5.29185">
        <ele>1109.17999872</ele>
        <time>2015-05-18T14:42:26.930Z</time>
      </trkpt>
      <trkpt lat="44.18806" lon="5.29195">
        <ele>1107.56899712</ele>
        <time>2015-05-18T14:42:32.150Z</time>
      </trkpt>
      <trkpt lat="44.18816" lon="5.29236">
        <ele>1103.37999872</ele>
        <time>2015-05-18T14:42:43.930Z</time>
      </trkpt>
      <trkpt lat="44.18815" lon="5.2926">
        <ele>1101.04599808</ele>
        <time>2015-05-18T14:42:52.150Z</time>
      </trkpt>
      <trkpt lat="44.18817" lon="5.29277">
        <ele>1099.496</ele>
        <time>2015-05-18T14:42:59.060Z</time>
      </trkpt>
      <trkpt lat="44.18823" lon="5.29299">
        <ele>1097.15599616</ele>
        <time>2015-05-18T14:43:06.860Z</time>
      </trkpt>
      <trkpt lat="44.18832" lon="5.29311">
        <ele>1096.24299904</ele>
        <time>2015-05-18T14:43:14.950Z</time>
      </trkpt>
      <trkpt lat="44.18839" lon="5.29325">
        <ele>1093.69199616</ele>
        <time>2015-05-18T14:43:23.150Z</time>
      </trkpt>
      <trkpt lat="44.18844" lon="5.29345">
        <ele>1091.62299904</ele>
        <time>2015-05-18T14:43:31.150Z</time>
      </trkpt>
      <trkpt lat="44.18841" lon="5.2936">
        <ele>1090.84299904</ele>
        <time>2015-05-18T14:43:38.950Z</time>
      </trkpt>
      <trkpt lat="44.18841" lon="5.29379">
        <ele>1090.04299904</ele>
        <time>2015-05-18T14:43:46.950Z</time>
      </trkpt>
      <trkpt lat="44.18846" lon="5.29392">
        <ele>1086.97199616</ele>
        <time>2015-05-18T14:43:54.950Z</time>
      </trkpt>
      <trkpt lat="44.18847" lon="5.29407">
        <ele>1086</ele>
        <time>2015-05-18T14:44:10.930Z</time>
      </trkpt>
      <trkpt lat="44.18843" lon="5.29428">
        <ele>1084.48999936</ele>
        <time>2015-05-18T14:44:24.930Z</time>
      </trkpt>
      <trkpt lat="44.18837" lon="5.29451">
        <ele>1082.24399872</ele>
        <time>2015-05-18T14:44:41.160Z</time>
      </trkpt>
      <trkpt lat="44.1884" lon="5.29474">
        <ele>1079.864</ele>
        <time>2015-05-18T14:44:53.060Z</time>
      </trkpt>
      <trkpt lat="44.18828" lon="5.29511">
        <ele>1076.29199616</ele>
        <time>2015-05-18T14:45:04.150Z</time>
      </trkpt>
      <trkpt lat="44.18826" lon="5.29551">
        <ele>1073.28999936</ele>
        <time>2015-05-18T14:45:15.930Z</time>
      </trkpt>
      <trkpt lat="44.18825" lon="5.29593">
        <ele>1068.76899712</ele>
        <time>2015-05-18T14:45:28.150Z</time>
      </trkpt>
      <trkpt lat="44.18817" lon="5.29613">
        <ele>1066.06899712</ele>
        <time>2015-05-18T14:45:37.150Z</time>
      </trkpt>
      <trkpt lat="44.18803" lon="5.2963">
        <ele>1063.37499904</ele>
        <time>2015-05-18T14:45:46.130Z</time>
      </trkpt>
      <trkpt lat="44.18789" lon="5.29654">
        <ele>1059.928</ele>
        <time>2015-05-18T14:45:55.060Z</time>
      </trkpt>
      <trkpt lat="44.18779" lon="5.2968">
        <ele>1056.1249984</ele>
        <time>2015-05-18T14:46:03.130Z</time>
      </trkpt>
      <trkpt lat="44.18777" lon="5.29726">
        <ele>1051.99899904</ele>
        <time>2015-05-18T14:46:14.050Z</time>
      </trkpt>
      <trkpt lat="44.18772" lon="5.29749">
        <ele>1049.608</ele>
        <time>2015-05-18T14:46:22.020Z</time>
      </trkpt>
      <trkpt lat="44.1876" lon="5.29771">
        <ele>1047.44599808</ele>
        <time>2015-05-18T14:46:30.150Z</time>
      </trkpt>
      <trkpt lat="44.18751" lon="5.29783">
        <ele>1045.94299904</ele>
        <time>2015-05-18T14:46:37.950Z</time>
      </trkpt>
      <trkpt lat="44.18739" lon="5.29778">
        <ele>1045.12199936</ele>
        <time>2015-05-18T14:46:46.160Z</time>
      </trkpt>
      <trkpt lat="44.18729" lon="5.29767">
        <ele>1044.34299904</ele>
        <time>2015-05-18T14:46:53.950Z</time>
      </trkpt>
      <trkpt lat="44.18721" lon="5.29755">
        <ele>1043.08599808</ele>
        <time>2015-05-18T14:47:01.950Z</time>
      </trkpt>
      <trkpt lat="44.18713" lon="5.29744">
        <ele>1041.32299904</ele>
        <time>2015-05-18T14:47:14.150Z</time>
      </trkpt>
      <trkpt lat="44.18713" lon="5.29729">
        <ele>1040.152</ele>
        <time>2015-05-18T14:47:25.860Z</time>
      </trkpt>
      <trkpt lat="44.18696" lon="5.29724">
        <ele>1038.944</ele>
        <time>2015-05-18T14:47:37.940Z</time>
      </trkpt>
      <trkpt lat="44.18682" lon="5.29718">
        <ele>1037.68799744</ele>
        <time>2015-05-18T14:47:48.940Z</time>
      </trkpt>
      <trkpt lat="44.1867" lon="5.29711">
        <ele>1036.08799744</ele>
        <time>2015-05-18T14:47:56.940Z</time>
      </trkpt>
      <trkpt lat="44.18651" lon="5.29699">
        <ele>1032.82499968</ele>
        <time>2015-05-18T14:48:09.130Z</time>
      </trkpt>
      <trkpt lat="44.18634" lon="5.2969">
        <ele>1031.84499968</ele>
        <time>2015-05-18T14:48:18.930Z</time>
      </trkpt>
      <trkpt lat="44.18621" lon="5.2968">
        <ele>1031.02499968</ele>
        <time>2015-05-18T14:48:27.130Z</time>
      </trkpt>
      <trkpt lat="44.18594" lon="5.29675">
        <ele>1027.94999808</ele>
        <time>2015-05-18T14:48:39.130Z</time>
      </trkpt>
      <trkpt lat="44.18577" lon="5.29674">
        <ele>1023.14999808</ele>
        <time>2015-05-18T14:48:47.130Z</time>
      </trkpt>
      <trkpt lat="44.18587" lon="5.2968">
        <ele>1019.84399872</ele>
        <time>2015-05-18T14:48:58.940Z</time>
      </trkpt>
      <trkpt lat="44.18604" lon="5.29689">
        <ele>1019.04399872</ele>
        <time>2015-05-18T14:49:06.940Z</time>
      </trkpt>
      <trkpt lat="44.18613" lon="5.29706">
        <ele>1017.84599808</ele>
        <time>2015-05-18T14:49:13.150Z</time>
      </trkpt>
      <trkpt lat="44.18632" lon="5.29728">
        <ele>1015.09999872</ele>
        <time>2015-05-18T14:49:22.130Z</time>
      </trkpt>
      <trkpt lat="44.18656" lon="5.29747">
        <ele>1011.30499712</ele>
        <time>2015-05-18T14:49:33.030Z</time>
      </trkpt>
      <trkpt lat="44.18673" lon="5.29775">
        <ele>1007.06399744</ele>
        <time>2015-05-18T14:49:44.720Z</time>
      </trkpt>
      <trkpt lat="44.18687" lon="5.29798">
        <ele>1004.88599808</ele>
        <time>2015-05-18T14:49:52.950Z</time>
      </trkpt>
      <trkpt lat="44.18696" lon="5.29822">
        <ele>1002.92899712</ele>
        <time>2015-05-18T14:50:00.950Z</time>
      </trkpt>
      <trkpt lat="44.18695" lon="5.29843">
        <ele>1000.84299904</ele>
        <time>2015-05-18T14:50:08.950Z</time>
      </trkpt>
      <trkpt lat="44.18691" lon="5.29858">
        <ele>1000</ele>
        <time>2015-05-18T14:50:22.940Z</time>
      </trkpt>
      <trkpt lat="44.18692" lon="5.29875">
        <ele>998.52299904</ele>
        <time>2015-05-18T14:50:42.150Z</time>
      </trkpt>
      <trkpt lat="44.18698" lon="5.29887">
        <ele>997.64499968</ele>
        <time>2015-05-18T14:50:50.930Z</time>
      </trkpt>
      <trkpt lat="44.18707" lon="5.29904">
        <ele>995.89999872</ele>
        <time>2015-05-18T14:51:00.130Z</time>
      </trkpt>
      <trkpt lat="44.18712" lon="5.29923">
        <ele>992.52999936</ele>
        <time>2015-05-18T14:51:09.730Z</time>
      </trkpt>
      <trkpt lat="44.1872" lon="5.29942">
        <ele>990.92299904</ele>
        <time>2015-05-18T14:51:18.150Z</time>
      </trkpt>
      <trkpt lat="44.18724" lon="5.29956">
        <ele>990.12299904</ele>
        <time>2015-05-18T14:51:26.150Z</time>
      </trkpt>
      <trkpt lat="44.18727" lon="5.2997">
        <ele>989.33199872</ele>
        <time>2015-05-18T14:51:34.060Z</time>
      </trkpt>
      <trkpt lat="44.18738" lon="5.2998">
        <ele>986.73499904</ele>
        <time>2015-05-18T14:51:44.930Z</time>
      </trkpt>
      <trkpt lat="44.18748" lon="5.29978">
        <ele>986</ele>
        <time>2015-05-18T14:51:51.940Z</time>
      </trkpt>
      <trkpt lat="44.18767" lon="5.29976">
        <ele>983.1249984</ele>
        <time>2015-05-18T14:52:03.130Z</time>
      </trkpt>
      <trkpt lat="44.18781" lon="5.29971">
        <ele>980.62299904</ele>
        <time>2015-05-18T14:52:11.150Z</time>
      </trkpt>
      <trkpt lat="44.18795" lon="5.29963">
        <ele>979.82299904</ele>
        <time>2015-05-18T14:52:19.150Z</time>
      </trkpt>
      <trkpt lat="44.18808" lon="5.2996">
        <ele>979.02299904</ele>
        <time>2015-05-18T14:52:27.150Z</time>
      </trkpt>
      <trkpt lat="44.18802" lon="5.29982">
        <ele>973.85799424</ele>
        <time>2015-05-18T14:52:35.950Z</time>
      </trkpt>
      <trkpt lat="44.18794" lon="5.30002">
        <ele>971.48599808</ele>
        <time>2015-05-18T14:52:44.950Z</time>
      </trkpt>
      <trkpt lat="44.1878" lon="5.30021">
        <ele>971</ele>
        <time>2015-05-18T14:52:54.130Z</time>
      </trkpt>
      <trkpt lat="44.1876" lon="5.30046">
        <ele>968.6349952</ele>
        <time>2015-05-18T14:53:02.110Z</time>
      </trkpt>
      <trkpt lat="44.18747" lon="5.30076">
        <ele>965.52347602144</ele>
        <time>2015-05-18T14:53:12.150Z</time>
      </trkpt>
      <trkpt lat="44.18738" lon="5.3009">
        <ele>965.02397600098</ele>
        <time>2015-05-18T14:53:17.150Z</time>
      </trkpt>
      <trkpt lat="44.18734" lon="5.30102">
        <ele>961.82299904</ele>
        <time>2015-05-18T14:53:29.150Z</time>
      </trkpt>
      <trkpt lat="44.18736" lon="5.30121">
        <ele>961.02299904</ele>
        <time>2015-05-18T14:53:37.150Z</time>
      </trkpt>
      <trkpt lat="44.18732" lon="5.30133">
        <ele>961</ele>
        <time>2015-05-18T14:53:44.950Z</time>
      </trkpt>
      <trkpt lat="44.18729" lon="5.30149">
        <ele>959.88599808</ele>
        <time>2015-05-18T14:53:52.950Z</time>
      </trkpt>
      <trkpt lat="44.18735" lon="5.30193">
        <ele>954.45799424</ele>
        <time>2015-05-18T14:54:04.950Z</time>
      </trkpt>
      <trkpt lat="44.18741" lon="5.30224">
        <ele>950.77199616</ele>
        <time>2015-05-18T14:54:12.950Z</time>
      </trkpt>
      <trkpt lat="44.18746" lon="5.30256">
        <ele>948.28599808</ele>
        <time>2015-05-18T14:54:20.950Z</time>
      </trkpt>
      <trkpt lat="44.18748" lon="5.30278">
        <ele>947</ele>
        <time>2015-05-18T14:54:28.930Z</time>
      </trkpt>
      <trkpt lat="44.18744" lon="5.30298">
        <ele>947</ele>
        <time>2015-05-18T14:54:36.940Z</time>
      </trkpt>
      <trkpt lat="44.18753" lon="5.3031">
        <ele>947.24299904</ele>
        <time>2015-05-18T14:55:04.950Z</time>
      </trkpt>
      <trkpt lat="44.18761" lon="5.30328">
        <ele>947</ele>
        <time>2015-05-18T14:55:16.950Z</time>
      </trkpt>
      <trkpt lat="44.18772" lon="5.30343">
        <ele>947</ele>
        <time>2015-05-18T14:55:24.950Z</time>
      </trkpt>
      <trkpt lat="44.18771" lon="5.30361">
        <ele>945.64299904</ele>
        <time>2015-05-18T14:55:40.950Z</time>
      </trkpt>
      <trkpt lat="44.18775" lon="5.30377">
        <ele>945.31400192</ele>
        <time>2015-05-18T14:55:48.950Z</time>
      </trkpt>
      <trkpt lat="44.18778" lon="5.30391">
        <ele>946.91400192</ele>
        <time>2015-05-18T14:55:56.950Z</time>
      </trkpt>
      <trkpt lat="44.18785" lon="5.30406">
        <ele>947</ele>
        <time>2015-05-18T14:56:12.950Z</time>
      </trkpt>
      <trkpt lat="44.1879" lon="5.30438">
        <ele>947</ele>
        <time>2015-05-18T14:56:24.950Z</time>
      </trkpt>
      <trkpt lat="44.18791" lon="5.30453">
        <ele>948.91400192</ele>
        <time>2015-05-18T14:56:36.950Z</time>
      </trkpt>
      <trkpt lat="44.18791" lon="5.30471">
        <ele>947.48599808</ele>
        <time>2015-05-18T14:56:44.950Z</time>
      </trkpt>
      <trkpt lat="44.1878" lon="5.30501">
        <ele>943.92899712</ele>
        <time>2015-05-18T14:57:00.950Z</time>
      </trkpt>
      <trkpt lat="44.18777" lon="5.30519">
        <ele>940.88599808</ele>
        <time>2015-05-18T14:57:12.950Z</time>
      </trkpt>
      <trkpt lat="44.18774" lon="5.30533">
        <ele>938.2149952</ele>
        <time>2015-05-18T14:57:20.950Z</time>
      </trkpt>
      <trkpt lat="44.18772" lon="5.30549">
        <ele>934.2149952</ele>
        <time>2015-05-18T14:57:28.950Z</time>
      </trkpt>
      <trkpt lat="44.18774" lon="5.30563">
        <ele>930.1149952</ele>
        <time>2015-05-18T14:57:37.150Z</time>
      </trkpt>
      <trkpt lat="44.18778" lon="5.30576">
        <ele>928.48599808</ele>
        <time>2015-05-18T14:57:44.950Z</time>
      </trkpt>
      <trkpt lat="44.18781" lon="5.30596">
        <ele>925.00899712</ele>
        <time>2015-05-18T14:57:57.350Z</time>
      </trkpt>
      <trkpt lat="44.18776" lon="5.30608">
        <ele>920.51199232</ele>
        <time>2015-05-18T14:58:04.860Z</time>
      </trkpt>
      <trkpt lat="44.18777" lon="5.30626">
        <ele>916.12899712</ele>
        <time>2015-05-18T14:58:16.950Z</time>
      </trkpt>
      <trkpt lat="44.18775" lon="5.30642">
        <ele>913.72899712</ele>
        <time>2015-05-18T14:58:24.950Z</time>
      </trkpt>
      <trkpt lat="44.18773" lon="5.30668">
        <ele>910.12899712</ele>
        <time>2015-05-18T14:58:36.950Z</time>
      </trkpt>
      <trkpt lat="44.18772" lon="5.30689">
        <ele>908.2149952</ele>
        <time>2015-05-18T14:58:48.950Z</time>
      </trkpt>
      <trkpt lat="44.18771" lon="5.30703">
        <ele>903.28599808</ele>
        <time>2015-05-18T14:59:00.950Z</time>
      </trkpt>
      <trkpt lat="44.18765" lon="5.30714">
        <ele>900.44299904</ele>
        <time>2015-05-18T14:59:52.950Z</time>
      </trkpt>
      <trkpt lat="44.18764" lon="5.30737">
        <ele>897.72899712</ele>
        <time>2015-05-18T15:00:04.950Z</time>
      </trkpt>
      <trkpt lat="44.1877" lon="5.3075">
        <ele>895.84399872</ele>
        <time>2015-05-18T15:00:13.160Z</time>
      </trkpt>
      <trkpt lat="44.18773" lon="5.30766">
        <ele>894.62299904</ele>
        <time>2015-05-18T15:00:21.150Z</time>
      </trkpt>
      <trkpt lat="44.18774" lon="5.30782">
        <ele>892.93799424</ele>
        <time>2015-05-18T15:00:29.150Z</time>
      </trkpt>
      <trkpt lat="44.18774" lon="5.30797">
        <ele>888.13799424</ele>
        <time>2015-05-18T15:00:37.150Z</time>
      </trkpt>
      <trkpt lat="44.18775" lon="5.30814">
        <ele>885.66899712</ele>
        <time>2015-05-18T15:00:45.150Z</time>
      </trkpt>
      <trkpt lat="44.18776" lon="5.3083">
        <ele>882.68799744</ele>
        <time>2015-05-18T15:00:53.160Z</time>
      </trkpt>
      <trkpt lat="44.1878" lon="5.30845">
        <ele>879.57199616</ele>
        <time>2015-05-18T15:01:00.950Z</time>
      </trkpt>
      <trkpt lat="44.18782" lon="5.30862">
        <ele>876.44299904</ele>
        <time>2015-05-18T15:01:12.950Z</time>
      </trkpt>
      <trkpt lat="44.18786" lon="5.30877">
        <ele>874.2249984</ele>
        <time>2015-05-18T15:01:20.930Z</time>
      </trkpt>
      <trkpt lat="44.18785" lon="5.309">
        <ele>870.37199616</ele>
        <time>2015-05-18T15:01:28.950Z</time>
      </trkpt>
      <trkpt lat="44.1879" lon="5.30912">
        <ele>863</ele>
        <time>2015-05-18T15:03:09.950Z</time>
      </trkpt>
      <trkpt lat="44.18789" lon="5.30926">
        <ele>860.48599808</ele>
        <time>2015-05-18T15:03:29.950Z</time>
      </trkpt>
      <trkpt lat="44.18796" lon="5.30936">
        <ele>855.22899712</ele>
        <time>2015-05-18T15:03:49.950Z</time>
      </trkpt>
      <trkpt lat="44.18809" lon="5.30929">
        <ele>852.08999936</ele>
        <time>2015-05-18T15:04:01.930Z</time>
      </trkpt>
      <trkpt lat="44.18822" lon="5.30921">
        <ele>850.84999936</ele>
        <time>2015-05-18T15:04:08.130Z</time>
      </trkpt>
      <trkpt lat="44.18841" lon="5.30908">
        <ele>849.08999936</ele>
        <time>2015-05-18T15:04:16.930Z</time>
      </trkpt>
      <trkpt lat="44.18851" lon="5.30893">
        <ele>845.2199936</ele>
        <time>2015-05-18T15:04:24.940Z</time>
      </trkpt>
      <trkpt lat="44.18846" lon="5.30906">
        <ele>844</ele>
        <time>2015-05-18T15:04:32.950Z</time>
      </trkpt>
      <trkpt lat="44.18847" lon="5.30929">
        <ele>844</ele>
        <time>2015-05-18T15:04:44.950Z</time>
      </trkpt>
      <trkpt lat="44.18839" lon="5.3096">
        <ele>842.88599808</ele>
        <time>2015-05-18T15:04:52.950Z</time>
      </trkpt>
      <trkpt lat="44.18843" lon="5.30973">
        <ele>841.24299904</ele>
        <time>2015-05-18T15:05:04.950Z</time>
      </trkpt>
      <trkpt lat="44.1883" lon="5.30995">
        <ele>841</ele>
        <time>2015-05-18T15:05:12.950Z</time>
      </trkpt>
      <trkpt lat="44.1884" lon="5.30989">
        <ele>838.05199872</ele>
        <time>2015-05-18T15:05:36.860Z</time>
      </trkpt>
      <trkpt lat="44.18845" lon="5.30977">
        <ele>837.22299904</ele>
        <time>2015-05-18T15:05:45.150Z</time>
      </trkpt>
      <trkpt lat="44.18852" lon="5.30963">
        <ele>837</ele>
        <time>2015-05-18T15:05:57.150Z</time>
      </trkpt>
      <trkpt lat="44.18866" lon="5.30926">
        <ele>835</ele>
        <time>2015-05-18T15:06:08.940Z</time>
      </trkpt>
      <trkpt lat="44.18872" lon="5.30914">
        <ele>835</ele>
        <time>2015-05-18T15:06:19.130Z</time>
      </trkpt>
      <trkpt lat="44.18875" lon="5.30897">
        <ele>834.92499968</ele>
        <time>2015-05-18T15:06:28.130Z</time>
      </trkpt>
      <trkpt lat="44.18879" lon="5.30878">
        <ele>834.14499968</ele>
        <time>2015-05-18T15:06:35.930Z</time>
      </trkpt>
      <trkpt lat="44.18876" lon="5.30861">
        <ele>833.32499968</ele>
        <time>2015-05-18T15:06:44.130Z</time>
      </trkpt>
      <trkpt lat="44.18881" lon="5.30845">
        <ele>833</ele>
        <time>2015-05-18T15:06:55.130Z</time>
      </trkpt>
      <trkpt lat="44.18881" lon="5.30823">
        <ele>832</ele>
        <time>2015-05-18T15:07:07.940Z</time>
      </trkpt>
      <trkpt lat="44.18889" lon="5.30798">
        <ele>832</ele>
        <time>2015-05-18T15:07:16.930Z</time>
      </trkpt>
      <trkpt lat="44.18895" lon="5.30783">
        <ele>832</ele>
        <time>2015-05-18T15:07:24.930Z</time>
      </trkpt>
      <trkpt lat="44.18901" lon="5.30772">
        <ele>832</ele>
        <time>2015-05-18T15:07:33.150Z</time>
      </trkpt>
      <trkpt lat="44.18915" lon="5.3076">
        <ele>831.64299904</ele>
        <time>2015-05-18T15:07:40.950Z</time>
      </trkpt>
      <trkpt lat="44.18926" lon="5.3075">
        <ele>830.84299904</ele>
        <time>2015-05-18T15:07:48.950Z</time>
      </trkpt>
      <trkpt lat="44.18938" lon="5.30743">
        <ele>830.04299904</ele>
        <time>2015-05-18T15:07:56.950Z</time>
      </trkpt>
      <trkpt lat="44.18947" lon="5.30734">
        <ele>829.24299904</ele>
        <time>2015-05-18T15:08:04.950Z</time>
      </trkpt>
      <trkpt lat="44.18961" lon="5.30717">
        <ele>829</ele>
        <time>2015-05-18T15:08:17.130Z</time>
      </trkpt>
      <trkpt lat="44.18975" lon="5.307">
        <ele>828</ele>
        <time>2015-05-18T15:08:29.150Z</time>
      </trkpt>
      <trkpt lat="44.18986" lon="5.3069">
        <ele>828</ele>
        <time>2015-05-18T15:08:37.150Z</time>
      </trkpt>
      <trkpt lat="44.18995" lon="5.30678">
        <ele>827.22299904</ele>
        <time>2015-05-18T15:08:45.150Z</time>
      </trkpt>
      <trkpt lat="44.19004" lon="5.30668">
        <ele>826.44299904</ele>
        <time>2015-05-18T15:08:52.950Z</time>
      </trkpt>
      <trkpt lat="44.19015" lon="5.30655">
        <ele>825.64199936</ele>
        <time>2015-05-18T15:09:00.960Z</time>
      </trkpt>
      <trkpt lat="44.19022" lon="5.3063">
        <ele>825</ele>
        <time>2015-05-18T15:09:11.230Z</time>
      </trkpt>
      <trkpt lat="44.19031" lon="5.30624">
        <ele>825</ele>
        <time>2015-05-18T15:09:18.960Z</time>
      </trkpt>
      <trkpt lat="44.19039" lon="5.30613">
        <ele>825</ele>
        <time>2015-05-18T15:09:27.060Z</time>
      </trkpt>
      <trkpt lat="44.19046" lon="5.30601">
        <ele>824.24499968</ele>
        <time>2015-05-18T15:09:34.930Z</time>
      </trkpt>
      <trkpt lat="44.19056" lon="5.30583">
        <ele>824</ele>
        <time>2015-05-18T15:09:44.950Z</time>
      </trkpt>
      <trkpt lat="44.19061" lon="5.30566">
        <ele>824</ele>
        <time>2015-05-18T15:09:53.950Z</time>
      </trkpt>
      <trkpt lat="44.19065" lon="5.30551">
        <ele>822.84599808</ele>
        <time>2015-05-18T15:10:03.150Z</time>
      </trkpt>
      <trkpt lat="44.19073" lon="5.30529">
        <ele>822</ele>
        <time>2015-05-18T15:10:13.940Z</time>
      </trkpt>
      <trkpt lat="44.19077" lon="5.30515">
        <ele>821.74499968</ele>
        <time>2015-05-18T15:10:19.930Z</time>
      </trkpt>
      <trkpt lat="44.19076" lon="5.30496">
        <ele>820.944</ele>
        <time>2015-05-18T15:10:27.940Z</time>
      </trkpt>
      <trkpt lat="44.19075" lon="5.3047">
        <ele>820</ele>
        <time>2015-05-18T15:10:39.930Z</time>
      </trkpt>
      <trkpt lat="44.19072" lon="5.30455">
        <ele>819.32499968</ele>
        <time>2015-05-18T15:10:54.130Z</time>
      </trkpt>
      <trkpt lat="44.19064" lon="5.30444">
        <ele>818</ele>
        <time>2015-05-18T15:12:01.150Z</time>
      </trkpt>
      <trkpt lat="44.1905" lon="5.30427">
        <ele>818</ele>
        <time>2015-05-18T15:12:17.130Z</time>
      </trkpt>
      <trkpt lat="44.19035" lon="5.30403">
        <ele>817.84299904</ele>
        <time>2015-05-18T15:12:28.950Z</time>
      </trkpt>
      <trkpt lat="44.19028" lon="5.3038">
        <ele>816.64299904</ele>
        <time>2015-05-18T15:12:40.950Z</time>
      </trkpt>
      <trkpt lat="44.19026" lon="5.30361">
        <ele>815.84399872</ele>
        <time>2015-05-18T15:12:48.940Z</time>
      </trkpt>
      <trkpt lat="44.19033" lon="5.30342">
        <ele>815</ele>
        <time>2015-05-18T15:13:04.150Z</time>
      </trkpt>
      <trkpt lat="44.19046" lon="5.30345">
        <ele>814.14499968</ele>
        <time>2015-05-18T15:13:15.930Z</time>
      </trkpt>
      <trkpt lat="44.19056" lon="5.30362">
        <ele>809.2657320928</ele>
        <time>2015-05-18T15:13:24.150Z</time>
      </trkpt>
      <trkpt lat="44.19067" lon="5.30371">
        <ele>806.73273215558</ele>
        <time>2015-05-18T15:13:30.060Z</time>
      </trkpt>
      <trkpt lat="44.19079" lon="5.3039">
        <ele>805.69999872</ele>
        <time>2015-05-18T15:13:38.130Z</time>
      </trkpt>
      <trkpt lat="44.19092" lon="5.30401">
        <ele>802.49999872</ele>
        <time>2015-05-18T15:13:46.130Z</time>
      </trkpt>
      <trkpt lat="44.19102" lon="5.30421">
        <ele>800.24599808</ele>
        <time>2015-05-18T15:13:56.150Z</time>
      </trkpt>
      <trkpt lat="44.19107" lon="5.3044">
        <ele>796.90309859443</ele>
        <time>2015-05-18T15:14:05.130Z</time>
      </trkpt>
      <trkpt lat="44.19115" lon="5.3045">
        <ele>793.09609618844</ele>
        <time>2015-05-18T15:14:17.060Z</time>
      </trkpt>
      <trkpt lat="44.19123" lon="5.30461">
        <ele>790.696</ele>
        <time>2015-05-18T15:14:25.060Z</time>
      </trkpt>
      <trkpt lat="44.19129" lon="5.30475">
        <ele>789.42299904</ele>
        <time>2015-05-18T15:14:33.150Z</time>
      </trkpt>
      <trkpt lat="44.19136" lon="5.30493">
        <ele>787.44755201833</ele>
        <time>2015-05-18T15:14:45.150Z</time>
      </trkpt>
      <trkpt lat="44.19143" lon="5.30505">
        <ele>785.84484437543</ele>
        <time>2015-05-18T15:14:53.160Z</time>
      </trkpt>
      <trkpt lat="44.19147" lon="5.30518">
        <ele>782.42299904</ele>
        <time>2015-05-18T15:15:13.150Z</time>
      </trkpt>
      <trkpt lat="44.19154" lon="5.30531">
        <ele>780.1149952</ele>
        <time>2015-05-18T15:15:21.150Z</time>
      </trkpt>
      <trkpt lat="44.19159" lon="5.30544">
        <ele>776.46899712</ele>
        <time>2015-05-18T15:15:29.150Z</time>
      </trkpt>
      <trkpt lat="44.19162" lon="5.30557">
        <ele>774.06899712</ele>
        <time>2015-05-18T15:15:37.150Z</time>
      </trkpt>
      <trkpt lat="44.19168" lon="5.30574">
        <ele>772.44599808</ele>
        <time>2015-05-18T15:15:45.150Z</time>
      </trkpt>
      <trkpt lat="44.19171" lon="5.30588">
        <ele>771.42299904</ele>
        <time>2015-05-18T15:15:53.150Z</time>
      </trkpt>
      <trkpt lat="44.19175" lon="5.30601">
        <ele>769.1149952</ele>
        <time>2015-05-18T15:16:01.150Z</time>
      </trkpt>
      <trkpt lat="44.19177" lon="5.30615">
        <ele>765.82299904</ele>
        <time>2015-05-18T15:16:09.150Z</time>
      </trkpt>
      <trkpt lat="44.19179" lon="5.3063">
        <ele>765.02299904</ele>
        <time>2015-05-18T15:16:17.150Z</time>
      </trkpt>
      <trkpt lat="44.19179" lon="5.30645">
        <ele>761.1149952</ele>
        <time>2015-05-18T15:16:25.150Z</time>
      </trkpt>
      <trkpt lat="44.19182" lon="5.30661">
        <ele>758.26899712</ele>
        <time>2015-05-18T15:16:33.150Z</time>
      </trkpt>
      <trkpt lat="44.1918" lon="5.30677">
        <ele>756.62299904</ele>
        <time>2015-05-18T15:16:41.150Z</time>
      </trkpt>
      <trkpt lat="44.19176" lon="5.30691">
        <ele>755.64599808</ele>
        <time>2015-05-18T15:16:49.150Z</time>
      </trkpt>
      <trkpt lat="44.19169" lon="5.30711">
        <ele>754.04599808</ele>
        <time>2015-05-18T15:16:57.150Z</time>
      </trkpt>
      <trkpt lat="44.19161" lon="5.30734">
        <ele>747.78399232</ele>
        <time>2015-05-18T15:17:05.150Z</time>
      </trkpt>
      <trkpt lat="44.19154" lon="5.3076">
        <ele>746</ele>
        <time>2015-05-18T15:17:13.150Z</time>
      </trkpt>
      <trkpt lat="44.19147" lon="5.30786">
        <ele>743.73799424</ele>
        <time>2015-05-18T15:17:21.150Z</time>
      </trkpt>
      <trkpt lat="44.19139" lon="5.30809">
        <ele>739.1149952</ele>
        <time>2015-05-18T15:17:29.150Z</time>
      </trkpt>
      <trkpt lat="44.19123" lon="5.3083">
        <ele>735.1149952</ele>
        <time>2015-05-18T15:17:37.150Z</time>
      </trkpt>
      <trkpt lat="44.1913" lon="5.3084">
        <ele>733.44599808</ele>
        <time>2015-05-18T15:17:45.150Z</time>
      </trkpt>
      <trkpt lat="44.19154" lon="5.30824">
        <ele>732.42299904</ele>
        <time>2015-05-18T15:17:53.150Z</time>
      </trkpt>
      <trkpt lat="44.19172" lon="5.30809">
        <ele>730.53199872</ele>
        <time>2015-05-18T15:18:01.050Z</time>
      </trkpt>
      <trkpt lat="44.19185" lon="5.30795">
        <ele>727.6249984</ele>
        <time>2015-05-18T15:18:08.130Z</time>
      </trkpt>
      <trkpt lat="44.1921" lon="5.30771">
        <ele>721.976</ele>
        <time>2015-05-18T15:18:19.940Z</time>
      </trkpt>
      <trkpt lat="44.19226" lon="5.30758">
        <ele>718.6149952</ele>
        <time>2015-05-18T15:18:28.150Z</time>
      </trkpt>
      <trkpt lat="44.19246" lon="5.30742">
        <ele>714.6149952</ele>
        <time>2015-05-18T15:18:36.150Z</time>
      </trkpt>
      <trkpt lat="44.19266" lon="5.30728">
        <ele>711.37199616</ele>
        <time>2015-05-18T15:18:43.950Z</time>
      </trkpt>
      <trkpt lat="44.19278" lon="5.30715">
        <ele>709.04599808</ele>
        <time>2015-05-18T15:18:52.150Z</time>
      </trkpt>
      <trkpt lat="44.19282" lon="5.30734">
        <ele>706</ele>
        <time>2015-05-18T15:19:07.950Z</time>
      </trkpt>
      <trkpt lat="44.19275" lon="5.30743">
        <ele>706</ele>
        <time>2015-05-18T15:19:15.950Z</time>
      </trkpt>
      <trkpt lat="44.19265" lon="5.30762">
        <ele>704.64599808</ele>
        <time>2015-05-18T15:19:24.150Z</time>
      </trkpt>
      <trkpt lat="44.1928" lon="5.3076">
        <ele>697.93799424</ele>
        <time>2015-05-18T15:19:44.150Z</time>
      </trkpt>
      <trkpt lat="44.19292" lon="5.30751">
        <ele>695.04599808</ele>
        <time>2015-05-18T15:19:52.150Z</time>
      </trkpt>
      <trkpt lat="44.19305" lon="5.30742">
        <ele>693.44599808</ele>
        <time>2015-05-18T15:20:00.150Z</time>
      </trkpt>
      <trkpt lat="44.19316" lon="5.30737">
        <ele>691.92199936</ele>
        <time>2015-05-18T15:20:08.160Z</time>
      </trkpt>
      <trkpt lat="44.19318" lon="5.30753">
        <ele>691.12299904</ele>
        <time>2015-05-18T15:20:16.150Z</time>
      </trkpt>
      <trkpt lat="44.19313" lon="5.30771">
        <ele>689.64599808</ele>
        <time>2015-05-18T15:20:24.150Z</time>
      </trkpt>
      <trkpt lat="44.19299" lon="5.30794">
        <ele>686.13799424</ele>
        <time>2015-05-18T15:20:32.150Z</time>
      </trkpt>
      <trkpt lat="44.19279" lon="5.3083">
        <ele>681.64599808</ele>
        <time>2015-05-18T15:20:44.150Z</time>
      </trkpt>
      <trkpt lat="44.19265" lon="5.30851">
        <ele>679.09199616</ele>
        <time>2015-05-18T15:20:52.150Z</time>
      </trkpt>
      <trkpt lat="44.19247" lon="5.30877">
        <ele>674.96899712</ele>
        <time>2015-05-18T15:21:04.150Z</time>
      </trkpt>
      <trkpt lat="44.19241" lon="5.30893">
        <ele>670.49199616</ele>
        <time>2015-05-18T15:21:16.150Z</time>
      </trkpt>
      <trkpt lat="44.19259" lon="5.30884">
        <ele>668.6149952</ele>
        <time>2015-05-18T15:21:28.150Z</time>
      </trkpt>
      <trkpt lat="44.19281" lon="5.30871">
        <ele>664.6149952</ele>
        <time>2015-05-18T15:21:36.150Z</time>
      </trkpt>
      <trkpt lat="44.19284" lon="5.30887">
        <ele>660</ele>
        <time>2015-05-18T15:22:16.150Z</time>
      </trkpt>
      <trkpt lat="44.19273" lon="5.30908">
        <ele>658.64599808</ele>
        <time>2015-05-18T15:22:24.150Z</time>
      </trkpt>
      <trkpt lat="44.19262" lon="5.30929">
        <ele>654.66099328</ele>
        <time>2015-05-18T15:22:32.150Z</time>
      </trkpt>
      <trkpt lat="44.19272" lon="5.30948">
        <ele>649.89999872</ele>
        <time>2015-05-18T15:22:40.130Z</time>
      </trkpt>
      <trkpt lat="44.19294" lon="5.30948">
        <ele>645.09199616</ele>
        <time>2015-05-18T15:22:52.150Z</time>
      </trkpt>
      <trkpt lat="44.19306" lon="5.30942">
        <ele>640.29199616</ele>
        <time>2015-05-18T15:23:04.150Z</time>
      </trkpt>
      <trkpt lat="44.19316" lon="5.30934">
        <ele>636.36899712</ele>
        <time>2015-05-18T15:23:16.150Z</time>
      </trkpt>
      <trkpt lat="44.19327" lon="5.30924">
        <ele>632.69199616</ele>
        <time>2015-05-18T15:23:28.150Z</time>
      </trkpt>
      <trkpt lat="44.19336" lon="5.30915">
        <ele>629.49199616</ele>
        <time>2015-05-18T15:23:36.150Z</time>
      </trkpt>
      <trkpt lat="44.19346" lon="5.30907">
        <ele>627.64599808</ele>
        <time>2015-05-18T15:23:44.150Z</time>
      </trkpt>
      <trkpt lat="44.19359" lon="5.309">
        <ele>623.49199616</ele>
        <time>2015-05-18T15:23:56.150Z</time>
      </trkpt>
      <trkpt lat="44.19377" lon="5.30895">
        <ele>619.92299904</ele>
        <time>2015-05-18T15:24:08.150Z</time>
      </trkpt>
      <trkpt lat="44.19388" lon="5.30892">
        <ele>619.12299904</ele>
        <time>2015-05-18T15:24:16.150Z</time>
      </trkpt>
      <trkpt lat="44.19398" lon="5.30889">
        <ele>614.93799424</ele>
        <time>2015-05-18T15:24:24.150Z</time>
      </trkpt>
      <trkpt lat="44.19411" lon="5.30885">
        <ele>611.24399872</ele>
        <time>2015-05-18T15:24:36.160Z</time>
      </trkpt>
      <trkpt lat="44.19419" lon="5.30873">
        <ele>606.69199616</ele>
        <time>2015-05-18T15:24:48.150Z</time>
      </trkpt>
      <trkpt lat="44.19426" lon="5.30864">
        <ele>603.49199616</ele>
        <time>2015-05-18T15:24:56.150Z</time>
      </trkpt>
      <trkpt lat="44.19435" lon="5.30856">
        <ele>602</ele>
        <time>2015-05-18T15:25:16.150Z</time>
      </trkpt>
      <trkpt lat="44.19442" lon="5.30844">
        <ele>600.12299904</ele>
        <time>2015-05-18T15:25:36.150Z</time>
      </trkpt>
      <trkpt lat="44.19452" lon="5.30836">
        <ele>594.76899712</ele>
        <time>2015-05-18T15:25:48.150Z</time>
      </trkpt>
      <trkpt lat="44.19462" lon="5.30833">
        <ele>592.36899712</ele>
        <time>2015-05-18T15:25:56.150Z</time>
      </trkpt>
      <trkpt lat="44.19474" lon="5.30822">
        <ele>588.92299904</ele>
        <time>2015-05-18T15:26:08.150Z</time>
      </trkpt>
      <trkpt lat="44.19485" lon="5.30826">
        <ele>585.29199616</ele>
        <time>2015-05-18T15:27:04.150Z</time>
      </trkpt>
      <trkpt lat="44.19495" lon="5.3083">
        <ele>581.32299904</ele>
        <time>2015-05-18T15:27:44.150Z</time>
      </trkpt>
      <trkpt lat="44.19506" lon="5.3083">
        <ele>574.92299904</ele>
        <time>2015-05-18T15:28:08.150Z</time>
      </trkpt>
      <trkpt lat="44.19518" lon="5.30834">
        <ele>572.6149952</ele>
        <time>2015-05-18T15:28:20.150Z</time>
      </trkpt>
      <trkpt lat="44.19529" lon="5.30834">
        <ele>567.56899712</ele>
        <time>2015-05-18T15:28:32.150Z</time>
      </trkpt>
      <trkpt lat="44.19538" lon="5.30828">
        <ele>564.64599808</ele>
        <time>2015-05-18T15:28:44.150Z</time>
      </trkpt>
      <trkpt lat="44.19549" lon="5.30823">
        <ele>563.52299904</ele>
        <time>2015-05-18T15:28:52.150Z</time>
      </trkpt>
      <trkpt lat="44.1956" lon="5.30811">
        <ele>559.6149952</ele>
        <time>2015-05-18T15:29:04.150Z</time>
      </trkpt>
      <trkpt lat="44.19567" lon="5.30803">
        <ele>558</ele>
        <time>2015-05-18T15:29:12.150Z</time>
      </trkpt>
      <trkpt lat="44.19574" lon="5.30797">
        <ele>557.32299904</ele>
        <time>2015-05-18T15:29:24.150Z</time>
      </trkpt>
      <trkpt lat="44.19579" lon="5.30816">
        <ele>556.52299904</ele>
        <time>2015-05-18T15:29:32.150Z</time>
      </trkpt>
      <trkpt lat="44.19582" lon="5.3083">
        <ele>556</ele>
        <time>2015-05-18T15:29:40.150Z</time>
      </trkpt>
      <trkpt lat="44.19585" lon="5.30844">
        <ele>556</ele>
        <time>2015-05-18T15:29:48.150Z</time>
      </trkpt>
      <trkpt lat="44.19592" lon="5.3084">
        <ele>556</ele>
        <time>2015-05-18T15:29:56.150Z</time>
      </trkpt>
      <trkpt lat="44.19601" lon="5.30826">
        <ele>555.32299904</ele>
        <time>2015-05-18T15:30:04.150Z</time>
      </trkpt>
      <trkpt lat="44.19614" lon="5.30811">
        <ele>555</ele>
        <time>2015-05-18T15:30:12.160Z</time>
      </trkpt>
      <trkpt lat="44.19628" lon="5.308">
        <ele>555</ele>
        <time>2015-05-18T15:30:20.150Z</time>
      </trkpt>
      <trkpt lat="44.19644" lon="5.30792">
        <ele>555</ele>
        <time>2015-05-18T15:30:28.150Z</time>
      </trkpt>
      <trkpt lat="44.19669" lon="5.3077">
        <ele>554.72299904</ele>
        <time>2015-05-18T15:30:40.150Z</time>
      </trkpt>
      <trkpt lat="44.19685" lon="5.30755">
        <ele>553.6149952</ele>
        <time>2015-05-18T15:30:48.150Z</time>
      </trkpt>
      <trkpt lat="44.19706" lon="5.3073">
        <ele>549</ele>
        <time>2015-05-18T15:31:00.150Z</time>
      </trkpt>
      <trkpt lat="44.19714" lon="5.30719">
        <ele>548.84599808</ele>
        <time>2015-05-18T15:31:08.150Z</time>
      </trkpt>
      <trkpt lat="44.19723" lon="5.30709">
        <ele>547.24599808</ele>
        <time>2015-05-18T15:31:16.150Z</time>
      </trkpt>
      <trkpt lat="44.19731" lon="5.30697">
        <ele>543.6149952</ele>
        <time>2015-05-18T15:31:24.150Z</time>
      </trkpt>
      <trkpt lat="44.1973" lon="5.30675">
        <ele>540.09199616</ele>
        <time>2015-05-18T15:31:32.150Z</time>
      </trkpt>
      <trkpt lat="44.19718" lon="5.30656">
        <ele>537.44655205925</ele>
        <time>2015-05-18T15:31:40.150Z</time>
      </trkpt>
      <trkpt lat="44.1971" lon="5.30634">
        <ele>535.92392385082</ele>
        <time>2015-05-18T15:31:48.150Z</time>
      </trkpt>
      <trkpt lat="44.19704" lon="5.30606">
        <ele>535.12312228048</ele>
        <time>2015-05-18T15:31:56.150Z</time>
      </trkpt>
      <trkpt lat="44.19696" lon="5.30574">
        <ele>532.29199616</ele>
        <time>2015-05-18T15:32:04.150Z</time>
      </trkpt>
      <trkpt lat="44.19695" lon="5.30543">
        <ele>530.52299904</ele>
        <time>2015-05-18T15:32:12.150Z</time>
      </trkpt>
      <trkpt lat="44.19688" lon="5.30509">
        <ele>528.6149952</ele>
        <time>2015-05-18T15:32:20.150Z</time>
      </trkpt>
      <trkpt lat="44.19683" lon="5.30478">
        <ele>524.84599808</ele>
        <time>2015-05-18T15:32:28.150Z</time>
      </trkpt>
      <trkpt lat="44.1968" lon="5.30447">
        <ele>523.24599808</ele>
        <time>2015-05-18T15:32:36.150Z</time>
      </trkpt>
      <trkpt lat="44.19679" lon="5.30415">
        <ele>522.32299904</ele>
        <time>2015-05-18T15:32:44.150Z</time>
      </trkpt>
      <trkpt lat="44.19681" lon="5.30385">
        <ele>521.04599808</ele>
        <time>2015-05-18T15:32:52.150Z</time>
      </trkpt>
      <trkpt lat="44.19679" lon="5.30358">
        <ele>518.6149952</ele>
        <time>2015-05-18T15:33:00.150Z</time>
      </trkpt>
      <trkpt lat="44.19668" lon="5.30328">
        <ele>514.92299904</ele>
        <time>2015-05-18T15:33:08.150Z</time>
      </trkpt>
      <trkpt lat="44.19679" lon="5.30291">
        <ele>514.12299904</ele>
        <time>2015-05-18T15:33:16.150Z</time>
      </trkpt>
      <trkpt lat="44.19691" lon="5.30261">
        <ele>512.64599808</ele>
        <time>2015-05-18T15:33:24.150Z</time>
      </trkpt>
      <trkpt lat="44.19693" lon="5.30231">
        <ele>509.6149952</ele>
        <time>2015-05-18T15:33:32.150Z</time>
      </trkpt>
      <trkpt lat="44.19681" lon="5.30202">
        <ele>507</ele>
        <time>2015-05-18T15:33:40.150Z</time>
      </trkpt>
      <trkpt lat="44.19668" lon="5.30177">
        <ele>506.92299904</ele>
        <time>2015-05-18T15:33:48.150Z</time>
      </trkpt>
      <trkpt lat="44.19682" lon="5.30141">
        <ele>506.12299904</ele>
        <time>2015-05-18T15:33:56.150Z</time>
      </trkpt>
      <trkpt lat="44.19698" lon="5.30111">
        <ele>501.92299904</ele>
        <time>2015-05-18T15:34:08.150Z</time>
      </trkpt>
      <trkpt lat="44.1972" lon="5.30089">
        <ele>501.12299904</ele>
        <time>2015-05-18T15:34:16.150Z</time>
      </trkpt>
      <trkpt lat="44.19744" lon="5.30092">
        <ele>500.32299904</ele>
        <time>2015-05-18T15:34:24.150Z</time>
      </trkpt>
      <trkpt lat="44.19768" lon="5.30084">
        <ele>497.6149952</ele>
        <time>2015-05-18T15:34:32.150Z</time>
      </trkpt>
      <trkpt lat="44.19785" lon="5.30085">
        <ele>494.72299904</ele>
        <time>2015-05-18T15:34:40.150Z</time>
      </trkpt>
      <trkpt lat="44.19807" lon="5.30084">
        <ele>493.92299904</ele>
        <time>2015-05-18T15:34:48.150Z</time>
      </trkpt>
      <trkpt lat="44.19836" lon="5.30085">
        <ele>492.44599808</ele>
        <time>2015-05-18T15:35:00.150Z</time>
      </trkpt>
      <trkpt lat="44.19862" lon="5.30084">
        <ele>490.84599808</ele>
        <time>2015-05-18T15:35:08.150Z</time>
      </trkpt>
      <trkpt lat="44.19884" lon="5.30093">
        <ele>489.24599808</ele>
        <time>2015-05-18T15:35:16.150Z</time>
      </trkpt>
      <trkpt lat="44.19886" lon="5.30094">
        <ele>489</ele>
        <time>2015-05-18T15:35:17.950Z</time>
      </trkpt>
    </trkseg>
  </trk>
</gpx>